Date StartTime U_cm/s V_cm/s W_cm/s Ustd_cm/s Vstd_cm/s Wstd_cm/s Uvar_(cm/s)^2 Vvar_(cm/s)^2 Wvar_(cm/s)^2 KE_(m/s)^2 TurbulentKE_(m/s)^2 HorizWindSpeed_cm/s FrictionSpeec_cm/s DragCoef SpeedOfSound_m/s SonicTemperature_C Pressure_mb 
05/23/2013  00:00:00     -109.433        9.776       -3.768       27.732       40.750       22.243      769.071     1660.522      494.762        0.750        0.146      109.869       21.940        0.040      336.846        8.421      855.187
05/23/2013  00:01:00     -107.108       -7.293      -15.131       34.875       36.473       18.345     1216.285     1330.254      336.521        0.732        0.144      107.356       13.105        0.015      336.859        8.444      855.179
05/23/2013  00:02:00     -161.446       -3.100       -7.020       44.902       37.596       25.257     2016.182     1413.482      637.893        1.509        0.203      161.475       21.351        0.017      336.827        8.390      855.169
05/23/2013  00:03:00     -167.023       -9.581      -15.774       58.186       32.807       22.434     3385.558     1076.297      503.267        1.660        0.248      167.298       27.275        0.027      336.790        8.327      855.172
05/23/2013  00:04:00      -96.713       -5.434       -5.373       28.952       32.370       21.738      838.219     1047.843      472.556        0.588        0.118       96.866       19.963        0.042      336.743        8.252      855.163
05/23/2013  00:05:00     -179.905       -1.971      -20.419       44.889       38.446       28.001     2014.997     1478.083      784.082        1.853        0.214      179.916       20.219        0.013      336.781        8.312      855.153
05/23/2013  00:06:00     -111.236      -11.931       -6.048       49.416       42.419       25.205     2441.899     1799.383      635.282        0.871        0.244      111.874       24.709        0.049      336.765        8.288      855.144
05/23/2013  00:07:00     -167.456      -80.392      -11.083       65.745       39.082       24.070     4322.413     1527.408      579.346        2.053        0.321      185.753       25.424        0.019      336.746        8.253      855.142
05/23/2013  00:08:00      -90.695      -35.177       -4.842       42.420       59.169       24.372     1799.448     3501.003      593.988        0.769        0.295       97.278       25.377        0.068      336.713        8.200      855.139
05/23/2013  00:09:00     -176.122      -81.620      -10.664       80.291       67.244       37.727     6446.643     4521.725     1423.362        2.509        0.620      194.115       27.255        0.020      336.749        8.259      855.146
05/23/2013  00:10:00     -128.627      -35.659      -18.794       59.733       50.480       29.433     3568.016     2548.182      866.276        1.257        0.349      133.478       29.214        0.048      336.725        8.221      855.147
05/23/2013  00:11:00     -115.807      -65.815        3.807       66.030       54.775       37.495     4359.910     3000.256     1405.853        1.326        0.438      133.202       33.985        0.065      336.690        8.162      855.156
05/23/2013  00:12:00      -89.620      -43.064        6.668       67.322       47.926       26.932     4532.305     2296.906      725.357        0.874        0.378       99.429       23.701        0.057      336.727        8.224      855.156
05/23/2013  00:13:00     -141.733        9.375        1.309       52.874       53.482       32.371     2795.667     2860.376     1047.853        1.344        0.335      142.043       29.537        0.043      336.704        8.185      855.158
05/23/2013  00:14:00     -162.443      -13.674      -10.668       57.993       37.286       27.386     3363.198     1390.229      750.009        1.609        0.275      163.017       21.882        0.018      336.693        8.166      855.173
05/23/2013  00:15:00     -153.259      -33.426       -0.944       79.713       43.618       28.723     6354.208     1902.568      824.994        1.684        0.454      156.862       31.275        0.040      336.687        8.156      855.178
05/23/2013  00:16:00     -106.104      -34.811      -13.422       59.663       47.104       28.238     3559.645     2218.762      797.401        0.961        0.329      111.668       29.521        0.070      336.658        8.108      855.181
05/23/2013  00:17:00      -55.529        8.250        1.733       37.680       29.768       17.756     1419.804      886.119      315.273        0.289        0.131       56.139       15.301        0.074      336.607        8.024      855.180
05/23/2013  00:18:00     -107.938        1.544      -15.702       47.093       31.888       21.603     2217.789     1016.818      466.710        0.780        0.185      107.949       22.779        0.045      336.594        8.002      855.187
05/23/2013  00:19:00     -101.437      -18.766      -10.512       62.008       45.627       27.872     3845.051     2081.866      776.875        0.873        0.335      103.158       30.233        0.086      336.484        7.818      855.180
05/23/2013  00:20:00     -101.352       -9.584      -19.173       45.883       41.470       30.213     2105.261     1719.777      912.810        0.773        0.237      101.804       18.649        0.034      336.562        7.947      855.181
05/23/2013  00:21:00     -121.556      -37.954       -7.062       49.787       45.641       26.786     2478.741     2083.083      717.515        1.077        0.264      127.344       24.143        0.036      336.511        7.862      855.165
05/23/2013  00:22:00      -93.820       -9.202       -5.978       47.955       31.348       17.356     2299.721      982.687      301.214        0.625        0.179       94.270       19.021        0.041      336.433        7.733      855.162
05/23/2013  00:23:00      -80.256        4.797      -13.523       28.465       20.860       15.765      810.234      435.120      248.538        0.407        0.075       80.399       17.051        0.045      336.445        7.753      855.161
05/23/2013  00:24:00      -70.692      -18.397       -1.070       53.590       24.255       27.301     2871.900      588.323      745.363        0.477        0.210       73.047       29.765        0.166      336.544        7.918      855.159
05/23/2013  00:25:00      -89.492       15.644      -13.258       29.859       14.267       11.714      891.570      203.550      137.213        0.483        0.062       90.849       10.376        0.013      336.490        7.828      855.158
05/23/2013  00:26:00      -69.925        9.399      -11.741       35.894       19.522       12.930     1288.378      381.090      167.177        0.348        0.092       70.554        6.662        0.009      336.471        7.796      855.152
05/23/2013  00:27:00      -88.835        5.880       -7.447       27.388       17.422       15.434      750.088      303.513      238.217        0.464        0.065       89.030       13.430        0.023      336.472        7.797      855.156
05/23/2013  00:28:00      -92.766        1.298      -13.002       14.728       14.157       10.988      216.901      200.428      120.737        0.466        0.027       92.775        9.111        0.010      336.468        7.791      855.154
05/23/2013  00:29:00     -108.455        6.849      -15.789       43.188       18.914       13.961     1865.227      357.728      194.899        0.724        0.121      108.671       17.178        0.025      336.495        7.835      855.146
05/23/2013  00:30:00      -28.690      -14.306        3.120       36.752       19.442       16.667     1350.717      377.976      277.800        0.152        0.100       32.059       21.617        0.455      336.425        7.717      855.137
05/23/2013  00:31:00      -70.124       18.539       -4.397       23.374       13.644       12.449      546.351      186.164      154.966        0.308        0.044       72.533       10.602        0.021      336.537        7.907      855.123
05/23/2013  00:32:00      -76.391        2.808       -6.143       13.555       13.830        9.140      183.740      191.264       83.548        0.317        0.023       76.442        6.583        0.007      336.613        8.034      855.110
05/23/2013  00:33:00      -72.264        2.364       -3.090       15.433       12.872        9.694      238.183      165.679       93.981        0.287        0.025       72.303        7.959        0.012      336.629        8.060      855.097
05/23/2013  00:34:00      -79.205      -23.871       -3.167       16.084       15.231       10.855      258.691      231.974      117.832        0.373        0.030       82.724        5.737        0.005      336.600        8.012      855.089
05/23/2013  00:35:00      -40.458      -29.215       -2.688       11.677       12.764        9.582      136.347      162.914       91.812        0.144        0.020       49.904        4.557        0.008      336.643        8.083      855.073
05/23/2013  00:36:00      -38.157      -20.694      -11.273       15.824        8.414        8.571      250.403       70.793       73.465        0.120        0.020       43.407        5.752        0.018      336.713        8.202      855.060
05/23/2013  00:37:00        0.040       -3.526        1.898        9.333        6.985        6.355       87.114       48.789       40.383        0.010        0.009        3.526        5.819        2.723      336.670        8.129      855.049
05/23/2013  00:38:00       -1.015      -11.987       -2.428        6.844       14.251        7.650       46.846      203.092       58.516        0.023        0.015       12.030        6.364        0.280      336.586        7.987      855.037
05/23/2013  00:39:00      -11.806      -22.315        0.850       28.317        9.699        8.257      801.880       94.073       68.171        0.080        0.048       25.246        5.263        0.043      336.616        8.039      855.041
05/23/2013  00:40:00      -70.367      -18.255       -5.619       19.427       13.393       11.290      377.412      179.370      127.470        0.300        0.034       72.696       10.563        0.021      336.618        8.042      855.040
05/23/2013  00:41:00       -5.052      -33.125        0.779       11.818       15.912       11.571      139.672      253.197      133.879        0.082        0.026       33.508        9.561        0.081      336.559        7.943      855.032
05/23/2013  00:42:00      -23.960      -41.359       -1.464       11.801        9.511       10.301      139.273       90.462      106.104        0.131        0.017       47.798        4.722        0.010      336.770        8.295      855.029
05/23/2013  00:43:00      -28.680      -81.924       -4.346       44.571       26.560       16.168     1986.598      705.422      261.407        0.525        0.148       86.799       18.783        0.047      336.785        8.318      855.027
05/23/2013  00:44:00      -98.361      -27.089       -5.791       39.821       24.248       18.169     1585.690      587.984      330.098        0.647        0.125      102.023       15.500        0.023      336.716        8.206      855.023
05/23/2013  00:45:00      -10.614      -21.764       -1.997       28.435       26.806       19.635      808.545      718.545      385.548        0.125        0.096       24.215       21.245        0.770      336.647        8.090      855.016
05/23/2013  00:46:00      -27.439      -71.997       -1.540       30.623       46.168       13.131      937.745     2131.515      172.433        0.459        0.162       77.048       16.183        0.044      336.749        8.261      855.011
05/23/2013  00:47:00      -61.831      -71.125       -1.876       37.557       35.588       18.150     1410.546     1266.529      329.412        0.595        0.150       94.244       15.816        0.028      336.664        8.118      855.015
05/23/2013  00:48:00      -42.191      -50.405       -4.652       35.150       37.123       12.440     1235.493     1378.102      154.751        0.355        0.138       65.732       11.652        0.031      336.678        8.140      855.016
05/23/2013  00:49:00        3.812       -8.611        4.399       15.710       21.618       13.531      246.794      467.350      183.075        0.050        0.045        9.417        8.655        0.845      336.649        8.093      855.004
05/23/2013  00:50:00      -77.249      -26.474       -6.366       40.579       29.142       19.459     1646.679      849.248      378.664        0.479        0.144       81.660       21.506        0.069      336.635        8.070      855.012
05/23/2013  00:51:00      -45.825      -14.964      -13.737       11.000       17.165        9.620      121.002      294.635       92.539        0.151        0.025       48.206        5.809        0.015      336.625        8.055      855.007
05/23/2013  00:52:00      -53.479        5.870       -4.093       14.277       17.548       10.190      203.844      307.930      103.833        0.176        0.031       53.800        6.224        0.013      336.625        8.052      855.009
05/23/2013  00:53:00      -35.926        2.845       -1.383       22.792       13.905       10.118      519.486      193.345      102.366        0.106        0.041       36.038        5.759        0.026      336.526        7.889      855.008
05/23/2013  00:54:00      -53.618      -43.605       -2.635       42.668       18.039       13.300     1820.528      325.409      176.889        0.355        0.116       69.111       15.693        0.052      336.568        7.959      855.006
05/23/2013  00:55:00      -52.417      -23.061       -2.909       27.209       27.539       14.296      740.335      758.370      204.375        0.250        0.085       57.266       16.799        0.086      336.485        7.819      855.005
05/23/2013  00:56:00      -55.805       13.779       -3.248       27.282       16.188       11.624      744.298      262.052      135.115        0.223        0.057       57.481        9.290        0.026      336.321        7.543      855.006
05/23/2013  00:57:00      -51.424       19.154       -7.730       12.636       24.318       10.423      159.681      591.378      108.633        0.197        0.043       54.875       12.067        0.048      336.328        7.557      855.005
05/23/2013  00:58:00      -48.956       24.081       -3.533       14.262       12.649       12.459      203.409      159.996      155.238        0.175        0.026       54.558        8.682        0.025      336.395        7.669      855.002
05/23/2013  00:59:00      -17.228       42.850       -9.159       37.320       20.208        9.799     1392.788      408.370       96.023        0.206        0.095       46.184       12.479        0.073      336.530        7.893      854.997
05/23/2013  01:00:00       -0.748       57.588       -3.497       39.352       40.387       17.629     1548.576     1631.126      310.787        0.341        0.175       57.593        6.772        0.014      336.397        7.671      854.990
05/23/2013  01:01:00      -22.519       -2.414       -3.323       26.886       23.822       16.826      722.881      567.493      283.117        0.105        0.079       22.648       14.347        0.401      336.532        7.897      854.993
05/23/2013  01:02:00       -6.879       20.561       -4.626        5.604        8.940        6.352       31.405       79.930       40.346        0.032        0.008       21.681        4.999        0.053      336.484        7.818      854.988
05/23/2013  01:03:00      -18.693       36.382       -5.614       28.633       37.199       15.988      819.859     1383.783      255.618        0.208        0.123       40.903       23.818        0.339      336.432        7.729      854.990
05/23/2013  01:04:00      -76.565       47.236      -10.524       30.003       36.140       19.902      900.191     1306.090      396.071        0.540        0.130       89.964       18.743        0.043      336.444        7.752      854.991
05/23/2013  01:05:00      -64.234       -6.944       -3.336       22.611       39.361       17.235      511.242     1549.310      297.031        0.327        0.118       64.609       12.742        0.039      336.442        7.748      854.989
05/23/2013  01:06:00      -55.491      -41.096        1.942       30.073       27.152       17.363      904.396      737.243      301.482        0.336        0.097       69.052       18.092        0.069      336.478        7.807      854.984
05/23/2013  01:07:00      -95.776      -28.412       -6.207       36.125       28.540       21.058     1305.011      814.523      443.460        0.629        0.128       99.902       18.972        0.036      336.521        7.880      854.987
05/23/2013  01:08:00      -39.154      -30.681       -4.571       32.757       17.160        9.355     1072.994      294.470       87.512        0.197        0.073       49.743        7.928        0.025      336.520        7.878      854.979
05/23/2013  01:09:00       -6.550      -17.248       -2.016       16.141       24.536       13.972      260.521      601.994      195.215        0.070        0.053       18.450       14.854        0.648      336.370        7.626      854.975
05/23/2013  01:10:00       18.360       19.701       11.133        9.415       20.774       11.213       88.635      431.569      125.727        0.075        0.032       26.930        9.357        0.121      336.262        7.446      854.972
05/23/2013  01:11:00       23.285       39.497        6.305       24.168       12.924       19.068      584.097      167.022      363.589        0.163        0.056       45.850       13.540        0.087      336.039        7.072      854.972
05/23/2013  01:12:00       36.225       22.539        4.722       21.558       24.819       15.862      464.734      615.995      251.609        0.159        0.067       42.665       14.352        0.113      335.985        6.984      854.974
05/23/2013  01:13:00        2.703       -3.469       20.594       17.158       33.145       17.471      294.383     1098.596      305.225        0.107        0.085        4.397       17.152       15.214      336.044        7.081      854.984
05/23/2013  01:14:00       14.641       18.528       21.591       22.704       17.727       20.111      515.453      314.249      404.451        0.113        0.062       23.614       16.140        0.467      335.989        6.990      855.004
05/23/2013  01:15:00       47.555       32.337       26.941       31.843       19.595       17.469     1013.986      383.974      305.158        0.287        0.085       57.508       15.414        0.072      336.015        7.032      855.003
05/23/2013  01:16:00       33.670       40.125       23.842       32.550       22.643       14.076     1059.526      512.692      198.136        0.254        0.089       52.380        9.640        0.034      335.992        6.994      855.007
05/23/2013  01:17:00        3.362       17.720       35.774       21.853       24.462       14.171      477.538      598.390      200.807        0.144        0.064       18.036       13.795        0.585      335.991        6.992      855.006
05/23/2013  01:18:00      -14.571        1.996       19.146       11.886       21.002       11.260      141.284      441.080      126.797        0.065        0.035       14.707       10.603        0.520      336.044        7.079      854.999
05/23/2013  01:19:00       -5.103      -26.691       10.686       10.172       14.046       13.124      103.474      197.276      172.240        0.066        0.024       27.175        4.233        0.024      336.192        7.329      854.999
05/23/2013  01:20:00      -37.810       21.545       -4.877       20.911       17.866        8.323      437.290      319.182       69.278        0.137        0.041       43.517        4.260        0.010      336.119        7.207      855.000
05/23/2013  01:21:00       -2.273       25.253        8.985       11.345       14.230       14.270      128.713      202.489      203.643        0.063        0.027       25.355        7.741        0.093      335.948        6.920      854.999
05/23/2013  01:22:00       10.394       38.131       -9.304        9.250       11.240        7.550       85.561      126.347       56.998        0.096        0.013       39.522        6.045        0.023      335.916        6.868      855.003
05/23/2013  01:23:00       14.347       11.717       -3.769        7.606        7.000        5.986       57.852       49.002       35.834        0.025        0.007       18.523        4.129        0.050      336.103        7.180      854.991
05/23/2013  01:24:00       22.254       12.531       -0.342       11.182        4.634        4.982      125.035       21.471       24.819        0.041        0.009       25.539        5.701        0.050      336.095        7.167      854.972
05/23/2013  01:25:00      -26.538       -6.680       -4.152       31.358       16.799        4.732      983.327      282.205       22.389        0.103        0.064       27.366        3.620        0.018      336.082        7.146      854.964
05/23/2013  01:26:00      -76.956      -10.322        0.674       25.082       24.562       13.731      629.104      603.287      188.532        0.372        0.071       77.646       11.299        0.021      335.993        6.997      854.975
05/23/2013  01:27:00      -18.106      -12.765       -0.545       15.549       18.405       12.590      241.759      338.736      158.513        0.061        0.037       22.153        8.305        0.141      335.844        6.747      854.974
05/23/2013  01:28:00      -11.381       -0.668       -4.397       19.290        8.678        6.326      372.114       75.300       40.019        0.032        0.024       11.400       10.003        0.770      335.924        6.882      854.968
05/23/2013  01:29:00      -50.493      -11.447       -3.820       42.990       18.146       14.876     1848.147      329.262      221.288        0.255        0.120       51.774       19.327        0.139      335.993        6.995      854.981
05/23/2013  01:30:00      -20.031        6.547        1.929       42.766       23.721       12.741     1828.948      562.702      162.341        0.150        0.128       21.074       20.388        0.936      335.891        6.826      854.962
05/23/2013  01:31:00      -89.869       -8.987      -10.546       13.610       18.849        8.741      185.242      355.271       76.412        0.444        0.031       90.317        7.748        0.007      335.990        6.992      854.969
05/23/2013  01:32:00      -35.295      -28.196       -3.630       25.084       13.937       11.159      629.196      194.242      124.525        0.150        0.047       45.175       11.481        0.065      335.932        6.895      854.967
05/23/2013  01:33:00       -7.306      -45.353       -4.382       15.775       27.140       12.653      248.839      736.586      160.104        0.164        0.057       45.937       12.447        0.073      336.083        7.146      854.968
05/23/2013  01:34:00      -38.111      -63.452       -7.078       25.260       21.301       20.180      638.071      453.745      407.219        0.351        0.075       74.017        8.070        0.012      336.098        7.171      854.956
05/23/2013  01:35:00      -45.748      -32.423       -4.912       23.703       26.318       16.021      561.846      692.659      256.659        0.234        0.076       56.073       15.303        0.074      336.101        7.177      854.938
05/23/2013  01:36:00      -34.386      -40.352        4.211       30.729       26.771       12.412      944.244      716.663      154.069        0.232        0.091       53.016       13.885        0.069      336.092        7.160      854.929
05/23/2013  01:37:00      -57.796      -39.417        4.304       44.189       19.698       14.667     1952.704      388.015      215.125        0.373        0.128       69.957       14.682        0.044      335.992        6.996      854.917
05/23/2013  01:38:00      -24.997      -56.645       12.907       24.556       25.935       17.447      603.016      672.609      304.410        0.279        0.079       61.915       13.440        0.047      335.954        6.932      854.912
05/23/2013  01:39:00      -75.769      -30.023        6.581       36.753       34.236       19.044     1350.762     1172.116      362.663        0.478        0.144       81.500       19.243        0.056      335.955        6.933      854.912
05/23/2013  01:40:00      -98.923      -21.118       -4.244       37.429       24.801       18.761     1400.901      615.106      351.979        0.631        0.118      101.152       18.983        0.035      335.705        6.517      854.900
05/23/2013  01:41:00     -102.785      -11.901       -5.864       34.098       24.000       17.607     1162.648      576.002      310.016        0.639        0.102      103.472       15.646        0.023      335.571        6.295      854.885
05/23/2013  01:42:00     -117.621      -25.776       -0.468       26.463       23.880       16.127      700.277      570.242      260.064        0.801        0.077      120.412       12.517        0.011      335.643        6.414      854.872
05/23/2013  01:43:00      -53.102      -13.886       -1.255       27.504       16.299       13.141      756.487      265.671      172.692        0.210        0.060       54.887        9.382        0.029      335.620        6.375      854.866
05/23/2013  01:44:00      -58.346       -8.427       -1.359       21.282       21.350       13.615      452.902      455.831      185.373        0.229        0.055       58.952        8.966        0.023      335.672        6.464      854.855
05/23/2013  01:45:00      -77.098       39.832      -12.961       18.180       28.767       15.237      330.502      827.547      232.153        0.454        0.070       86.779        9.548        0.012      335.459        6.106      854.848
05/23/2013  01:46:00      -97.283       48.699      -11.593       25.162       19.495       15.385      633.142      380.038      236.700        0.661        0.062      108.792       12.062        0.012      335.297        5.836      854.829
05/23/2013  01:47:00     -114.740       96.504      -29.864       25.122       48.956       21.455      631.104     2396.706      460.337        1.343        0.174      149.928       18.980        0.016      335.245        5.750      854.835
05/23/2013  01:48:00      -95.118      109.225      -21.877       30.999       41.807       22.469      960.937     1747.820      504.840        1.233        0.161      144.836       18.001        0.015      335.167        5.621      854.825
05/23/2013  01:49:00     -108.823      119.013      -30.078       25.715       23.861       14.788      661.282      569.344      218.674        1.418        0.072      161.266       11.437        0.005      335.130        5.561      854.810
05/23/2013  01:50:00     -102.612       97.109      -22.049       34.337       40.939       23.529     1179.003     1675.993      553.614        1.193        0.170      141.278       24.185        0.029      335.100        5.510      854.805
05/23/2013  01:51:00      -58.425      100.256       -7.129       38.755       34.976       21.849     1501.966     1223.299      477.376        0.836        0.160      116.037       16.491        0.020      335.004        5.351      854.797
05/23/2013  01:52:00     -121.810      121.400      -29.688       27.704       36.782       20.348      767.502     1352.898      414.031        1.650        0.127      171.976       20.208        0.014      335.074        5.467      854.792
05/23/2013  01:53:00      -94.267       67.589      -22.085       22.515       29.217       16.162      506.904      853.605      261.216        0.778        0.081      115.994       13.715        0.014      335.088        5.491      854.787
05/23/2013  01:54:00     -100.335       18.746      -17.677       25.262       21.854       17.898      638.153      477.576      320.353        0.608        0.072      102.071       17.406        0.029      335.166        5.619      854.780
05/23/2013  01:55:00     -107.053      -30.394      -23.727       23.089       18.114       14.246      533.117      328.123      202.941        0.701        0.053      111.284        8.818        0.006      335.152        5.596      854.784
05/23/2013  01:56:00      -72.465      -14.712       -7.043       32.937       20.798       18.975     1084.852      432.548      360.061        0.370        0.094       73.944       19.290        0.068      335.144        5.582      854.796
05/23/2013  01:57:00      -52.409       21.446       -4.047       21.160       15.790       13.920      447.735      249.309      193.760        0.206        0.045       56.627       10.209        0.033      335.275        5.799      854.800
05/23/2013  01:58:00      -62.672        4.622       -7.471       24.683       21.056       14.820      609.258      443.348      219.647        0.264        0.064       62.842       13.449        0.046      335.308        5.854      854.796
05/23/2013  01:59:00      -84.219      -39.096       -9.425       22.194       17.071       12.050      492.554      291.415      145.211        0.482        0.046       92.851        8.663        0.009      335.120        5.543      854.790
05/23/2013  02:00:00      -72.499        0.893      -16.453       17.421       28.476       11.943      303.487      810.909      142.635        0.339        0.063       72.504       12.937        0.032      335.473        6.131      854.795
05/23/2013  02:01:00     -104.472      -34.336       -8.068       25.693       16.334       14.560      660.149      266.805      212.003        0.665        0.057      109.970       13.609        0.015      335.332        5.894      854.800
05/23/2013  02:02:00      -83.152      -24.297       -9.199       20.955       12.829       10.678      439.094      164.578      114.016        0.415        0.036       86.629        5.719        0.004      335.297        5.837      854.813
05/23/2013  02:03:00      -65.347      -20.070       -6.093       13.960       13.174        8.577      194.883      173.561       73.559        0.258        0.022       68.359        6.294        0.008      335.400        6.008      854.831
05/23/2013  02:04:00      -75.462        1.374      -11.139       24.384       13.053        9.203      594.597      170.389       84.698        0.333        0.042       75.474        4.992        0.004      335.332        5.894      854.832
05/23/2013  02:05:00      -77.791       24.264       -8.243       38.970       29.827       13.628     1518.681      889.623      185.719        0.465        0.130       81.487        9.215        0.013      335.581        6.310      854.829
05/23/2013  02:06:00     -127.121      -36.821      -15.113       29.361       40.295       18.947      862.085     1623.652      358.980        1.029        0.142      132.346       17.205        0.017      335.475        6.133      854.857
05/23/2013  02:07:00     -116.982       31.810       -3.513       39.650       23.592       20.194     1572.107      556.603      407.796        0.862        0.127      121.229       13.905        0.013      335.278        5.805      854.857
05/23/2013  02:08:00      -95.905       77.806      -21.274       37.722       40.159       24.024     1422.936     1612.710      577.154        0.966        0.181      123.497       27.376        0.049      335.534        6.231      854.842
05/23/2013  02:09:00      -94.529       -3.405      -11.720       41.772       55.376       20.710     1744.897     3066.536      428.911        0.716        0.262       94.591       19.925        0.044      335.375        5.966      854.859
05/23/2013  02:10:00      -48.380      -10.596       -9.372       23.029       29.188       18.006      530.319      851.967      324.221        0.212        0.085       49.526       18.964        0.147      335.345        5.915      854.861
05/23/2013  02:11:00      -82.428      -37.780       -5.757       31.024       41.655       19.297      962.465     1735.109      372.378        0.566        0.153       90.674       22.240        0.060      335.411        6.026      854.848
05/23/2013  02:12:00     -134.461      -47.592       -4.676       40.836       34.533       20.796     1667.609     1192.554      432.458        1.183        0.165      142.635       17.094        0.014      335.253        5.764      854.854
05/23/2013  02:13:00      -77.590      -23.739      -15.333       36.847       24.046       11.500     1357.700      578.215      132.259        0.444        0.103       81.140        8.300        0.010      335.134        5.566      854.858
05/23/2013  02:14:00      -32.854      -33.665       -0.795       24.082       17.784       16.413      579.927      316.276      269.374        0.169        0.058       47.040        8.045        0.029      335.261        5.777      854.850
05/23/2013  02:15:00      -89.575      -56.235       11.854       83.457       44.494       38.232     6965.130     1979.700     1461.673        1.086        0.520      105.764       32.069        0.092      335.194        5.667      854.846
05/23/2013  02:16:00     -107.747      -10.590      -13.212       27.483       38.594       14.467      755.303     1489.524      209.286        0.717        0.123      108.266       16.308        0.023      335.218        5.706      854.854
05/23/2013  02:17:00      -71.214      -12.824       -4.214       20.863       22.227       10.613      435.280      494.043      112.627        0.315        0.052       72.360        7.639        0.011      335.283        5.812      854.833
05/23/2013  02:18:00     -139.647       20.674      -15.891       26.120       18.337       16.780      682.265      336.253      281.565        1.074        0.065      141.169       13.626        0.009      335.187        5.655      854.816
05/23/2013  02:19:00      -72.307       14.821       -5.909       33.069       19.435       15.518     1093.568      377.736      240.801        0.360        0.086       73.811       15.537        0.044      335.132        5.563      854.814
05/23/2013  02:20:00      -91.016      -14.258      -10.134       31.997       19.727       14.463     1023.817      389.158      209.172        0.511        0.081       92.126       14.663        0.025      335.069        5.458      854.803
05/23/2013  02:21:00      -55.293      -23.995       -6.615       29.069       25.417       11.791      845.034      646.027      139.019        0.265        0.082       60.275        7.086        0.014      335.081        5.479      854.792
05/23/2013  02:22:00     -121.849      -34.136      -12.920       24.401       21.098       16.188      595.425      445.106      262.062        0.874        0.065      126.540       16.198        0.016      335.085        5.485      854.790
05/23/2013  02:23:00     -116.313      -57.005       -3.117       21.057       18.558       15.545      443.401      344.413      241.656        0.891        0.051      129.531        8.978        0.005      335.074        5.467      854.802
05/23/2013  02:24:00     -130.998      -38.819       -8.013       27.559       28.785       13.109      759.485      828.579      171.847        1.025        0.088      136.629        9.924        0.005      335.056        5.438      854.796
05/23/2013  02:25:00     -100.458      -20.960      -14.266       17.447       28.887       13.058      304.404      834.448      170.503        0.602        0.065      102.621       10.870        0.011      335.130        5.561      854.785
05/23/2013  02:26:00      -69.354       -2.351      -11.772       37.449       18.378       15.470     1402.440      337.756      239.332        0.347        0.099       69.394       17.071        0.061      335.022        5.381      854.784
05/23/2013  02:27:00      -44.509      -15.645       -6.112       32.231       19.507       15.928     1038.816      380.507      253.698        0.197        0.084       47.179       16.356        0.120      334.979        5.310      854.778
05/23/2013  02:28:00     -127.053      -21.631       -6.723       36.546       25.084       18.579     1335.640      629.186      345.175        0.948        0.116      128.881       18.216        0.020      334.961        5.278      854.780
05/23/2013  02:29:00      -90.903      -22.158        0.070       27.642       26.798       19.075      764.076      718.154      363.861        0.530        0.092       93.564       12.312        0.017      334.993        5.333      854.778
05/23/2013  02:30:00     -117.191       -0.141       -9.756       34.760       29.956       18.449     1208.273      897.381      340.369        0.814        0.122      117.191       13.387        0.013      334.910        5.194      854.795
05/23/2013  02:31:00     -104.921        7.496      -13.448       37.628       27.948       18.996     1415.864      781.084      360.851        0.690        0.128      105.188        9.952        0.009      334.864        5.118      854.801
05/23/2013  02:32:00      -87.337        9.670       -5.186       44.509       18.636       18.113     1981.017      347.311      328.073        0.520        0.133       87.870       21.421        0.059      334.826        5.056      854.794
05/23/2013  02:33:00      -66.095       -9.075       -7.141       36.354       19.516       16.639     1321.618      380.884      276.849        0.324        0.099       66.715       13.494        0.041      334.855        5.103      854.771
05/23/2013  02:34:00       -6.736       -1.863        6.441        8.980       12.990        8.816       80.637      168.732       77.728        0.021        0.016        6.988        5.042        0.520      334.850        5.095      854.764
05/23/2013  02:35:00      -65.602      -33.172       -0.733       41.500       26.342       14.429     1722.227      693.887      208.206        0.401        0.131       73.512       10.633        0.021      334.977        5.306      854.752
05/23/2013  02:36:00     -114.036      -24.252      -15.183       16.562       19.932       15.884      274.307      397.286      252.313        0.737        0.046      116.587        8.607        0.005      334.920        5.211      854.740
05/23/2013  02:37:00      -96.585      -14.970       -5.509       53.482       28.888       21.530     2860.293      834.504      463.532        0.687        0.208       97.738       24.948        0.065      334.805        5.019      854.745
05/23/2013  02:38:00      -88.484       15.702       -0.278       39.648       26.011       24.681     1571.958      676.560      609.139        0.547        0.143       89.867       18.909        0.044      334.738        4.908      854.749
05/23/2013  02:39:00     -131.345       -1.297       -5.615       28.012       25.764       15.817      784.674      663.808      250.193        0.949        0.085      131.352       13.866        0.011      334.728        4.892      854.748
05/23/2013  02:40:00     -127.559       -4.078       -5.963       38.621       30.902       20.662     1491.618      954.919      426.900        0.960        0.144      127.624       19.697        0.024      334.665        4.788      854.743
05/23/2013  02:41:00     -136.944       34.523      -12.209       52.769       31.987       22.492     2784.577     1023.169      505.883        1.220        0.216      141.229       18.643        0.017      334.660        4.778      854.733
05/23/2013  02:42:00     -160.067       35.625      -20.404       41.626       36.415       24.934     1732.709     1326.063      621.724        1.549        0.184      163.983       19.348        0.014      334.661        4.780      854.740
05/23/2013  02:43:00     -160.749      -31.471      -12.050       50.308       41.992       30.505     2530.897     1763.311      930.535        1.610        0.261      163.800       29.982        0.034      334.641        4.747      854.733
05/23/2013  02:44:00     -135.722        0.059      -10.093       47.872       37.331       28.882     2291.760     1393.611      834.162        1.152        0.226      135.722       25.971        0.037      334.599        4.676      854.724
05/23/2013  02:45:00     -129.203      -29.446       -6.786       38.727       31.266       25.775     1499.762      977.565      664.359        1.037        0.157      132.516       19.285        0.021      334.540        4.579      854.713
05/23/2013  02:46:00      -98.372      -20.863        1.334       45.280       43.567       23.625     2050.321     1898.061      558.132        0.731        0.225      100.560       20.094        0.040      334.567        4.626      854.711
05/23/2013  02:47:00      -98.693      -30.965        1.919       59.625       40.878       27.012     3555.159     1671.041      729.624        0.833        0.298      103.436       26.835        0.067      334.516        4.540      854.710
05/23/2013  02:48:00     -107.041      -35.975       -9.947       30.652       31.311       17.347      939.537      980.375      300.935        0.754        0.111      112.925       12.258        0.012      334.564        4.620      854.712
05/23/2013  02:49:00     -103.476      -20.449      -10.872       26.926       30.658       18.725      725.000      939.896      350.640        0.663        0.101      105.477       14.774        0.020      334.645        4.753      854.719
05/23/2013  02:50:00      -75.059      -19.547       -1.352       60.018       37.475       24.543     3602.192     1404.407      602.348        0.581        0.280       77.563       32.833        0.179      334.639        4.743      854.714
05/23/2013  02:51:00      -64.307       13.067       -6.107       40.339       27.731       17.811     1627.242      769.017      317.215        0.353        0.136       65.621       13.609        0.043      334.715        4.870      854.686
05/23/2013  02:52:00      -49.897      -12.206       -3.279       22.764       24.932       17.572      518.195      621.592      308.758        0.205        0.072       51.368       16.348        0.101      334.668        4.794      854.685
05/23/2013  02:53:00     -100.170      -10.157       -4.854       49.185       23.273       21.263     2419.143      541.628      452.124        0.679        0.171      100.683       25.791        0.066      334.743        4.916      854.672
05/23/2013  02:54:00      -67.096       -5.888       -1.166       36.548       36.328       22.937     1335.736     1319.743      526.109        0.386        0.159       67.354       15.171        0.051      334.561        4.614      854.675
05/23/2013  02:55:00      -89.117       13.448      -20.900       25.663       22.601       16.124      658.606      510.813      259.980        0.499        0.071       90.126       13.435        0.022      334.583        4.651      854.691
05/23/2013  02:56:00      -80.607       -6.437      -11.159       18.860       16.206       12.774      355.689      262.638      163.164        0.372        0.039       80.864        3.943        0.002      334.632        4.733      854.692
05/23/2013  02:57:00      -48.865        1.325       -4.103       12.847       35.797       14.958      165.040     1281.416      223.735        0.204        0.084       48.883        9.568        0.038      334.709        4.861      854.690
05/23/2013  02:58:00      -30.689       46.258      -14.941       28.623       29.862       13.759      819.265      891.761      189.302        0.260        0.095       55.512        8.922        0.026      335.022        5.380      854.679
05/23/2013  02:59:00      -33.199      -16.286        3.101       27.182       35.893       18.370      738.844     1288.285      337.469        0.187        0.118       36.978       14.188        0.147      334.950        5.261      854.678
05/23/2013  03:00:00      -28.992      -31.092        3.443       40.667       19.971       13.665     1653.831      398.854      186.729        0.203        0.112       42.512        7.078        0.028      334.870        5.127      854.665
05/23/2013  03:01:00      -22.971      -16.591       -6.518       25.190       13.604       10.702      634.546      185.064      114.543        0.089        0.047       28.336        8.398        0.088      334.927        5.224      854.647
05/23/2013  03:02:00      -61.724      -24.891       -2.621       31.444       18.422       14.364      988.754      339.378      206.313        0.299        0.077       66.554       14.200        0.046      334.930        5.229      854.654
05/23/2013  03:03:00      -43.924      -47.952       12.359       54.957       41.317       29.244     3020.308     1707.118      855.185        0.498        0.279       65.029       25.271        0.151      334.838        5.075      854.668
05/23/2013  03:04:00      -99.684      -78.183       -5.172       35.759       38.010       20.155     1278.711     1444.794      406.209        0.960        0.156      126.687       17.451        0.019      334.888        5.158      854.676
05/23/2013  03:05:00      -97.290      -40.948       -2.048       72.204       25.985       22.292     5213.357      675.221      496.928        0.876        0.319      105.556       30.914        0.086      334.845        5.085      854.680
05/23/2013  03:06:00      -84.803      -58.176       -3.992       33.142       24.064       18.741     1098.379      579.094      351.223        0.631        0.101      102.840       10.759        0.011      334.838        5.075      854.689
05/23/2013  03:07:00      -93.128      -46.702        0.687       26.418       21.462       19.069      697.887      460.606      363.617        0.619        0.076      104.182       17.807        0.029      334.730        4.895      854.700
05/23/2013  03:08:00     -117.386      -15.016       -4.548       31.353       22.266       19.895      983.005      495.766      395.799        0.795        0.094      118.343       16.362        0.019      334.699        4.844      854.706
05/23/2013  03:09:00      -92.261      -46.615       -0.800       37.637       29.656       19.440     1416.559      879.500      377.926        0.668        0.134      103.368       18.240        0.031      334.665        4.787      854.702
05/23/2013  03:10:00     -116.101      -40.196       -1.668       38.300       34.841       23.834     1466.873     1213.887      568.038        0.917        0.162      122.862       20.937        0.029      334.724        4.886      854.701
05/23/2013  03:11:00      -77.587      -30.292        7.964       39.909       28.834       17.880     1592.763      831.374      319.697        0.487        0.137       83.290       17.622        0.045      334.666        4.789      854.716
05/23/2013  03:12:00      -91.718      -36.937        2.759       37.054       34.334       22.375     1373.035     1178.857      500.630        0.642        0.153       98.876       19.510        0.039      334.589        4.661      854.723
05/23/2013  03:13:00     -111.321      -49.643        7.603       46.609       39.728       27.285     2172.429     1578.326      744.447        0.970        0.225      121.888       23.240        0.036      334.659        4.777      854.732
05/23/2013  03:14:00     -101.174      -46.047       -0.688       54.332       45.173       28.982     2951.989     2040.640      839.981        0.909        0.292      111.160       26.773        0.058      334.911        5.195      854.734
05/23/2013  03:15:00      -81.302      -35.434       -3.846       44.669       32.743       26.892     1995.293     1072.129      723.203        0.583        0.190       88.688       26.563        0.090      334.957        5.273      854.742
05/23/2013  03:16:00      -46.321      -18.172        3.466       22.430       21.247       14.008      503.087      451.415      196.232        0.182        0.058       49.758       10.234        0.042      334.810        5.029      854.741
05/23/2013  03:17:00      -44.818      -22.992        4.755       31.460       32.420       14.623      989.714     1051.032      213.833        0.241        0.113       50.371       14.435        0.082      334.915        5.202      854.729
05/23/2013  03:18:00     -116.685        3.640       -7.968       18.194       22.488       13.216      331.027      505.688      174.665        0.735        0.051      116.741        9.994        0.007      334.851        5.098      854.728
05/23/2013  03:19:00     -116.861      -20.717       -5.449       23.214       21.660       13.436      538.910      469.169      180.517        0.765        0.059      118.683       12.500        0.011      334.874        5.136      854.729
05/23/2013  03:20:00      -60.910      -21.799        7.618       32.367       25.712       20.493     1047.600      661.121      419.983        0.319        0.106       64.693       19.684        0.093      334.866        5.120      854.735
05/23/2013  03:21:00      -52.174      -13.326       -0.532       25.472       18.561       13.847      648.807      344.526      191.750        0.204        0.059       53.849        9.964        0.034      334.889        5.159      854.748
05/23/2013  03:22:00      -67.074       -0.816       -4.435       22.915       16.054       13.064      525.086      257.746      170.656        0.274        0.048       67.079       12.627        0.035      334.899        5.176      854.747
05/23/2013  03:23:00      -64.573      -10.029       -6.529       17.949       14.448       10.896      322.174      208.742      118.732        0.248        0.032       65.347        9.590        0.022      334.872        5.133      854.739
05/23/2013  03:24:00      -49.022      -27.013       -2.286       25.035       19.625        9.727      626.762      385.137       94.620        0.212        0.055       55.972        9.240        0.027      334.944        5.251      854.735
05/23/2013  03:25:00      -41.201      -19.059       -1.777       20.982       15.971        7.886      440.238      255.086       62.183        0.141        0.038       45.396        6.595        0.021      334.991        5.329      854.728
05/23/2013  03:26:00      -36.988      -26.958       -2.905       23.804       16.888        9.236      566.611      285.200       85.312        0.152        0.047       45.770        8.321        0.033      335.042        5.414      854.732
05/23/2013  03:27:00      -54.626        1.318       -6.528       11.806       13.372        9.577      139.387      178.820       91.726        0.172        0.020       54.642        6.108        0.012      335.079        5.474      854.727
05/23/2013  03:28:00      -68.098       -0.563       -7.400       24.523       20.365       13.370      601.399      414.720      178.748        0.294        0.060       68.101       11.127        0.027      334.893        5.166      854.717
05/23/2013  03:29:00     -105.114      -33.336       -6.612       20.479       19.209       11.008      419.377      368.998      121.168        0.656        0.045      110.274        8.519        0.006      334.873        5.134      854.723
05/23/2013  03:30:00      -84.707      -46.609        0.515       30.690       18.369       12.502      941.862      337.411      156.309        0.539        0.072       96.683       12.491        0.017      334.906        5.186      854.730
05/23/2013  03:31:00      -37.921      -29.222        1.642       38.010       18.998       16.920     1444.785      360.924      286.298        0.219        0.105       47.874       16.562        0.120      334.930        5.229      854.735
05/23/2013  03:32:00      -67.654      -17.629       -2.427       31.591       26.990       17.217      997.978      728.484      296.418        0.346        0.101       69.913       14.389        0.042      334.867        5.123      854.741
05/23/2013  03:33:00      -78.955      -21.908       -4.707       20.245       18.703       10.435      409.867      349.786      108.886        0.380        0.043       81.939        9.312        0.013      334.784        4.985      854.743
05/23/2013  03:34:00      -73.177      -47.854       -8.857       14.655       13.073        8.058      214.774      170.915       64.935        0.409        0.023       87.435        5.147        0.003      334.886        5.155      854.732
05/23/2013  03:35:00      -78.098      -47.958       -5.179       13.743       12.089        8.742      188.871      146.140       76.431        0.442        0.021       91.648        6.393        0.005      334.913        5.199      854.724
05/23/2013  03:36:00      -65.857      -50.256       -0.993       25.569       14.539       12.477      653.763      211.378      155.668        0.394        0.051       82.842        9.018        0.012      334.939        5.241      854.718
05/23/2013  03:37:00      -38.796      -20.988       -3.602       13.828       19.896       10.328      191.214      395.865      106.662        0.133        0.035       44.109        7.079        0.026      334.856        5.104      854.720
05/23/2013  03:38:00      -64.156      -15.482       -1.594       18.277       18.744        7.206      334.037      351.355       51.929        0.255        0.037       65.997        5.708        0.007      334.858        5.108      854.716
05/23/2013  03:39:00      -72.510      -17.958       -4.527       18.321       15.598       11.827      335.663      243.295      139.872        0.316        0.036       74.700       10.407        0.019      334.860        5.112      854.717
05/23/2013  03:40:00      -68.397      -37.786       -4.911       13.085       13.534        7.288      171.212      183.178       53.111        0.327        0.020       78.140        7.589        0.009      334.921        5.214      854.720
05/23/2013  03:41:00      -86.680      -25.364       -5.369       25.433       21.103       15.101      646.828      445.356      228.055        0.475        0.066       90.315       13.619        0.023      334.815        5.036      854.724
05/23/2013  03:42:00      -89.859      -16.444       -5.944       22.648       17.500       13.567      512.949      306.236      184.060        0.469        0.050       91.351       13.867        0.023      334.764        4.952      854.738
05/23/2013  03:43:00      -75.918       -7.568       -3.470       30.232       19.631       15.902      913.964      385.376      252.884        0.369        0.078       76.295       17.293        0.051      334.635        4.737      854.742
05/23/2013  03:44:00      -73.572      -10.384      -10.416       25.465       17.718       12.047      648.460      313.910      145.118        0.337        0.055       74.301       10.618        0.020      334.674        4.803      854.733
05/23/2013  03:45:00      -51.002      -19.123        1.252       17.619       20.455       10.389      310.433      418.415      107.925        0.190        0.042       54.469        8.107        0.022      334.661        4.783      854.717
05/23/2013  03:46:00     -111.553      -40.805       -6.100       21.379       14.284        8.576      457.072      204.035       73.554        0.744        0.037      118.782        8.318        0.005      334.733        4.900      854.712
05/23/2013  03:47:00     -110.660      -41.065       -4.555       29.052       18.161       10.525      844.000      329.822      110.777        0.762        0.064      118.034        8.427        0.005      334.684        4.819      854.715
05/23/2013  03:48:00      -41.189      -27.691        5.788       32.219       21.818       10.881     1038.078      476.043      118.393        0.206        0.082       49.632       15.277        0.095      334.653        4.768      854.702
05/23/2013  03:49:00      -37.074      -47.648        7.246       44.219       33.763       24.133     1955.355     1139.973      582.392        0.369        0.184       60.372       29.036        0.231      334.783        4.985      854.698
05/23/2013  03:50:00      -38.243      -60.935       14.764       45.646       39.061       33.867     2083.561     1525.753     1146.997        0.507        0.238       71.942       30.581        0.181      334.627        4.724      854.706
05/23/2013  03:51:00      -50.922      -57.600        3.338       37.974       25.240       20.837     1442.050      637.049      434.178        0.422        0.126       76.881       20.391        0.070      334.675        4.803      854.707
05/23/2013  03:52:00     -101.529      -63.817       -5.994       38.844       29.916       19.992     1508.890      894.965      399.691        0.861        0.140      119.920       10.026        0.007      334.743        4.916      854.725
05/23/2013  03:53:00     -101.293      -48.019       -6.151       25.971       24.429       13.852      674.489      596.780      191.882        0.703        0.073      112.098       13.780        0.015      334.628        4.725      854.734
05/23/2013  03:54:00      -85.778      -50.637       -7.335       27.015       22.298       16.720      729.815      497.186      279.550        0.574        0.075       99.609        4.538        0.002      334.710        4.862      854.746
05/23/2013  03:55:00      -72.087      -22.826       -3.656       23.479       23.484       15.979      551.281      551.517      255.317        0.354        0.068       75.615       12.602        0.028      334.635        4.738      854.755
05/23/2013  03:56:00      -87.941      -17.508        0.142       34.318       19.659       17.478     1177.719      386.495      305.472        0.495        0.093       89.667       18.502        0.043      334.548        4.593      854.756
05/23/2013  03:57:00     -111.935      -38.942       -6.617       36.037       25.050       13.681     1298.696      627.522      187.173        0.810        0.106      118.515       11.984        0.010      334.639        4.743      854.754
05/23/2013  03:58:00      -88.671      -35.141       -2.798       24.668       34.263       18.818      608.506     1173.977      354.100        0.562        0.107       95.381       15.375        0.026      334.561        4.616      854.752
05/23/2013  03:59:00      -85.540      -25.610        0.525       24.107       21.894       17.108      581.144      479.340      292.685        0.466        0.068       89.291       11.328        0.016      334.641        4.746      854.749
05/23/2013  04:00:00      -76.555      -44.893       -2.776       33.230       29.309       12.192     1104.230      859.037      148.651        0.500        0.106       88.747        9.962        0.013      334.563        4.617      854.735
05/23/2013  04:01:00      -93.936      -25.913       -6.977       17.739       28.678       15.394      314.674      822.444      236.982        0.546        0.069       97.444       11.215        0.013      334.470        4.464      854.723
05/23/2013  04:02:00     -144.563      -41.814       -3.782       40.054       29.227       17.899     1604.300      854.236      320.359        1.272        0.139      150.489       19.104        0.016      334.488        4.492      854.717
05/23/2013  04:03:00     -132.974      -38.677      -16.980       34.697       25.509       14.278     1203.888      650.727      203.848        1.076        0.103      138.485       14.426        0.011      334.518        4.543      854.716
05/23/2013  04:04:00     -102.655      -41.361       -6.332       36.474       35.633       20.515     1330.346     1269.680      420.850        0.765        0.151      110.674       19.131        0.030      334.455        4.438      854.719
05/23/2013  04:05:00     -119.265      -24.999       -4.515       44.287       34.496       22.220     1961.307     1189.991      493.715        0.926        0.182      121.857       20.022        0.027      334.481        4.483      854.717
05/23/2013  04:06:00     -113.087      -35.765       -3.955       34.184       29.937       17.455     1168.526      896.233      304.663        0.823        0.118      118.607       14.807        0.016      334.512        4.535      854.705
05/23/2013  04:07:00     -153.906      -31.602      -21.420       22.909       27.092       14.628      524.819      734.002      213.992        1.331        0.074      157.117       11.491        0.005      334.534        4.569      854.693
05/23/2013  04:08:00      -93.361      -21.179       -5.769       28.431       23.610       14.557      808.347      557.431      211.897        0.539        0.079       95.733       12.105        0.016      334.548        4.593      854.672
05/23/2013  04:09:00      -98.390      -26.488       -7.428       33.611       26.507       18.561     1129.671      702.609      344.509        0.631        0.109      101.893       16.283        0.026      334.579        4.644      854.660
05/23/2013  04:10:00     -113.369       -7.384      -15.364       21.332       24.455       15.410      455.043      598.026      237.455        0.722        0.065      113.609        6.120        0.003      334.555        4.602      854.659
05/23/2013  04:11:00     -128.128       -7.744      -13.854       33.328       28.058       21.276     1110.736      787.258      452.685        0.951        0.118      128.362       19.602        0.023      334.592        4.666      854.662
05/23/2013  04:12:00     -104.899      -22.773      -13.144       23.601       34.501       15.011      556.985     1190.318      225.315        0.683        0.099      107.342        9.264        0.007      334.560        4.613      854.666
05/23/2013  04:13:00     -122.848      -43.866      -11.988       29.862       27.216       16.509      891.721      740.728      272.550        0.953        0.095      130.445       12.196        0.009      334.606        4.689      854.674
05/23/2013  04:14:00      -94.927      -25.058       -3.300       38.669       32.497       18.524     1495.308     1056.065      343.156        0.627        0.145       98.178       13.981        0.020      334.522        4.549      854.681
05/23/2013  04:15:00     -143.573        0.638      -18.330       68.749       35.352       31.527     4726.377     1249.754      993.972        1.396        0.349      143.575       38.745        0.073      334.549        4.595      854.667
05/23/2013  04:16:00     -179.992       22.678      -15.265       40.145       38.750       27.870     1611.591     1501.561      776.716        1.852        0.194      181.415       24.212        0.018      334.587        4.656      854.660
05/23/2013  04:17:00     -118.867      -40.969      -10.309       32.303       36.222       20.567     1043.459     1312.058      422.996        0.935        0.139      125.729       15.492        0.015      334.591        4.665      854.654
05/23/2013  04:18:00     -110.876      -12.619        1.678       43.098       49.751       23.500     1857.414     2475.125      552.261        0.867        0.244      111.592       19.883        0.032      334.574        4.635      854.655
05/23/2013  04:19:00     -153.465        1.162       -5.049       42.509       44.508       28.931     1807.018     1980.951      836.981        1.410        0.231      153.470       23.039        0.023      334.572        4.633      854.650
05/23/2013  04:20:00     -117.807      -26.403       -7.994       53.410       52.862       30.493     2852.583     2794.366      929.825        1.061        0.329      120.729       30.380        0.063      334.584        4.652      854.658
05/23/2013  04:21:00     -163.379      -46.449       -7.716       62.120       62.992       37.936     3858.900     3967.990     1439.132        1.909        0.463      169.854       35.837        0.045      334.580        4.645      854.675
05/23/2013  04:22:00     -116.041       -1.778       -5.411       60.708       53.013       30.544     3685.471     2810.410      932.932        1.046        0.371      116.055       22.785        0.039      334.555        4.604      854.681
05/23/2013  04:23:00     -182.430        3.704       -9.955       59.940       43.594       31.855     3592.775     1900.422     1014.724        1.995        0.325      182.468       32.615        0.032      334.620        4.711      854.688
05/23/2013  04:24:00     -131.925      -26.308      -11.230       92.261       42.351       31.277     8512.021     1793.630      978.238        1.475        0.564      134.522       38.577        0.082      334.626        4.722      854.696
05/23/2013  04:25:00     -198.554      -19.289      -12.052       70.900       54.476       38.957     5026.778     2967.638     1517.644        2.472        0.476      199.489       39.080        0.038      334.579        4.641      854.706
05/23/2013  04:26:00     -162.250      -54.456      -12.725       58.366       49.725       29.073     3406.614     2472.578      845.258        1.809        0.336      171.145       15.219        0.008      334.618        4.708      854.714
05/23/2013  04:27:00     -183.641      -26.649      -17.433       58.837       40.274       30.941     3461.758     1621.963      957.322        2.039        0.302      185.565       22.292        0.014      334.623        4.714      854.707
05/23/2013  04:28:00     -120.267      -23.524       -1.060       53.827       53.405       30.568     2897.343     2852.109      934.372        1.085        0.334      122.546       29.328        0.057      334.581        4.647      854.707
05/23/2013  04:29:00     -131.343       -2.041       -5.866       74.849       52.926       24.206     5602.300     2801.121      585.927        1.314        0.449      131.358       30.163        0.053      334.537        4.572      854.679
05/23/2013  04:30:00     -168.665       18.765      -11.611       29.587       45.278       23.009      875.370     2050.083      529.417        1.619        0.173      169.706       15.299        0.008      334.496        4.506      854.652
05/23/2013  04:31:00     -206.013       29.220      -18.770       43.127       42.377       23.867     1859.914     1795.851      569.621        2.394        0.211      208.075       19.367        0.009      334.519        4.541      854.636
05/23/2013  04:32:00     -139.920       -2.106      -10.430       74.291       60.424       29.337     5519.202     3651.090      860.681        1.486        0.502      139.936       33.406        0.057      334.575        4.636      854.627
05/23/2013  04:33:00     -173.725        2.400      -18.825       62.890       32.379       22.699     3955.129     1048.417      515.239        1.803        0.276      173.741       27.505        0.025      334.667        4.789      854.607
05/23/2013  04:34:00      -97.863       -4.624       -3.447       50.830       47.220       31.714     2583.731     2229.770     1005.809        0.771        0.291       97.972       26.206        0.072      334.511        4.530      854.600
05/23/2013  04:35:00     -107.440      -15.496       -6.067       41.801       38.316       21.919     1747.358     1468.104      480.446        0.776        0.185      108.552       21.515        0.039      334.520        4.546      854.604
05/23/2013  04:36:00      -78.194      -17.699       -7.292       42.397       44.661       22.958     1797.494     1994.580      527.081        0.540        0.216       80.172       17.624        0.048      334.515        4.537      854.618
05/23/2013  04:37:00     -108.134      -56.540      -14.017       59.707       50.947       23.662     3564.906     2595.561      559.873        1.090        0.336      122.024       16.363        0.018      334.583        4.650      854.614
05/23/2013  04:38:00      -87.998      -10.136       -9.602       45.277       40.754       26.374     2049.963     1660.879      695.567        0.617        0.220       88.580       22.766        0.066      334.497        4.509      854.618
05/23/2013  04:39:00      -66.488       -9.469       -3.209       27.805       49.071       22.461      773.137     2407.952      504.492        0.410        0.184       67.159        8.590        0.016      334.511        4.532      854.633
05/23/2013  04:40:00      -60.180      -51.471       -0.749       51.888       29.133       22.797     2692.412      848.724      519.704        0.517        0.203       79.189       27.936        0.124      334.446        4.425      854.625
05/23/2013  04:41:00     -113.686      -50.243       -8.907       48.716       46.677       30.095     2373.247     2178.776      905.693        1.049        0.273      124.294       29.303        0.056      334.481        4.481      854.630
05/23/2013  04:42:00      -69.598       -1.585       -2.211       37.943       50.555       24.118     1439.703     2555.779      581.692        0.471        0.229       69.616       19.295        0.077      334.422        4.386      854.638
05/23/2013  04:43:00     -103.959       -0.209       -8.125       37.997       40.675       23.798     1443.808     1654.438      566.358        0.727        0.183      103.959       17.367        0.028      334.371        4.301      854.638
05/23/2013  04:44:00      -96.497      -25.095      -13.608       29.678       33.036       16.472      880.764     1091.402      271.312        0.618        0.112       99.706        5.775        0.003      334.385        4.322      854.619
05/23/2013  04:45:00      -95.111       27.509      -14.657       28.055       23.165       15.938      787.102      536.613      254.013        0.580        0.079       99.010       12.724        0.017      334.444        4.420      854.623
05/23/2013  04:46:00      -81.853       27.353       -6.669       32.411       25.372       22.145     1050.499      643.755      490.391        0.484        0.109       86.302       16.360        0.036      334.525        4.556      854.642
05/23/2013  04:47:00      -62.973        4.560       -3.047       20.790       22.915       14.524      432.219      525.089      210.953        0.258        0.058       63.138       10.585        0.028      334.597        4.675      854.658
05/23/2013  04:48:00      -50.639       -5.187       -6.590       15.482       15.476       11.361      239.704      239.510      129.072        0.162        0.030       50.904        6.400        0.016      334.524        4.554      854.667
05/23/2013  04:49:00      -56.926       -4.844       -5.110       30.082       11.995       13.299      904.906      143.890      176.859        0.226        0.061       57.131       13.960        0.060      334.597        4.673      854.684
05/23/2013  04:50:00      -55.801       -7.892       -3.332       25.006       16.657        9.921      625.285      277.448       98.425        0.209        0.050       56.356        8.282        0.022      334.546        4.588      854.692
05/23/2013  04:51:00      -16.105      -25.563       -4.527       22.313       11.593       11.186      497.881      134.396      125.128        0.085        0.038       30.213       13.323        0.194      334.610        4.695      854.688
05/23/2013  04:52:00      -61.110       -0.312       -7.652       18.896       28.479       10.952      357.067      811.038      119.943        0.254        0.064       61.110        9.360        0.023      334.641        4.748      854.707
05/23/2013  04:53:00      -27.154      -16.074      -10.826       21.314        9.860        9.294      454.301       97.211       86.378        0.088        0.032       31.555       10.678        0.115      334.639        4.744      854.715
05/23/2013  04:54:00      -17.880      -23.539        0.090       15.963        9.545       10.323      254.825       91.115      106.555        0.066        0.023       29.559        6.578        0.050      334.708        4.857      854.717
05/23/2013  04:55:00      -38.923      -17.067       -2.712       14.149       13.351        6.436      200.185      178.236       41.426        0.112        0.021       42.500        3.792        0.008      334.722        4.881      854.733
05/23/2013  04:56:00      -34.116       -8.268       -7.843       11.810       12.028        8.516      139.486      144.671       72.514        0.083        0.018       35.104        8.406        0.057      334.645        4.754      854.744
05/23/2013  04:57:00      -19.881       -8.415       -3.060        9.150       17.606        9.141       83.728      309.986       83.549        0.048        0.024       21.589       11.499        0.284      334.700        4.845      854.755
05/23/2013  04:58:00      -43.513      -33.956        3.973       31.595       19.773       13.389      998.237      390.953      179.260        0.231        0.078       55.194       13.713        0.062      334.693        4.835      854.772
05/23/2013  04:59:00      -25.211      -35.509        0.195       13.957       12.428       14.662      194.800      154.454      214.973        0.123        0.028       43.548        8.863        0.041      334.653        4.767      854.768
05/23/2013  05:00:00      -16.188      -56.262        2.002       19.947       35.600       25.300      397.899     1267.388      640.073        0.287        0.115       58.544       17.940        0.094      334.455        4.440      854.755
05/23/2013  05:01:00      -14.006      -20.351      -15.244       18.136       19.972       16.725      328.912      398.896      279.730        0.092        0.050       24.704       14.957        0.367      334.491        4.499      854.753
05/23/2013  05:02:00       13.574       27.393        6.084       16.338       15.993       17.225      266.918      255.763      296.712        0.090        0.041       30.571       10.388        0.115      334.478        4.478      854.755
05/23/2013  05:03:00      -31.716      -10.413        6.726       28.975       24.872       13.359      839.544      618.608      178.470        0.140        0.082       33.382       12.165        0.133      334.445        4.422      854.755
05/23/2013  05:04:00      -50.310      -28.551       11.650       45.940       33.539       22.704     2110.486     1124.850      515.464        0.362        0.188       57.847       17.499        0.092      334.455        4.439      854.779
05/23/2013  05:05:00      -32.938       -7.680        7.391       15.058       12.603       13.905      226.745      158.825      193.349        0.089        0.029       33.821        7.697        0.052      334.414        4.372      854.790
05/23/2013  05:06:00       -7.179        3.943       -1.728       26.533       12.755        6.697      704.019      162.684       44.854        0.049        0.046        8.191        6.038        0.543      334.481        4.482      854.788
05/23/2013  05:07:00       27.679       34.756       22.906       20.424       15.833       13.317      417.139      250.690      177.336        0.167        0.042       44.431       11.383        0.066      334.418        4.378      854.789
05/23/2013  05:08:00      -30.041      -23.420       -1.493       29.481       18.921       14.965      869.131      357.996      223.963        0.145        0.073       38.091       13.898        0.133      334.503        4.519      854.801
05/23/2013  05:09:00       -6.955      -33.813       -0.643       34.528       18.439       14.751     1192.182      339.989      217.600        0.147        0.087       34.521        9.060        0.069      334.586        4.655      854.806
05/23/2013  05:10:00      -10.641      -13.292        2.791       25.484       27.473       11.339      649.426      754.791      128.581        0.091        0.077       17.026       15.415        0.820      334.558        4.610      854.799
05/23/2013  05:11:00       -5.204       15.442       15.592        9.207       13.912        5.692       84.773      193.545       32.401        0.041        0.016       16.295        4.422        0.074      334.486        4.491      854.799
05/23/2013  05:12:00      -17.461      -12.679        5.470       11.888       22.537       15.744      141.334      507.925      247.869        0.070        0.045       21.578       16.875        0.612      334.415        4.373      854.801
05/23/2013  05:13:00      -28.001      -20.680        1.421       32.305       24.385       10.576     1043.618      594.619      111.859        0.148        0.088       34.810       10.420        0.090      334.649        4.762      854.808
05/23/2013  05:14:00      -10.571      -54.778        5.022       18.835       29.520       20.675      354.753      871.417      427.449        0.240        0.083       55.788        9.467        0.029      334.773        4.967      854.815
05/23/2013  05:15:00       -8.607      -38.616        7.812       16.790       26.350       20.773      281.908      694.299      431.520        0.152        0.070       39.563       13.761        0.121      334.674        4.802      854.819
05/23/2013  05:16:00       -7.677      -15.441        4.762       11.504       18.777       10.313      132.332      352.583      106.348        0.046        0.030       17.245        6.296        0.133      334.602        4.684      854.812
05/23/2013  05:17:00      -11.343       17.008       16.212        8.943       12.280       18.995       79.983      150.790      360.824        0.064        0.030       20.443       11.711        0.328      334.454        4.438      854.807
05/23/2013  05:18:00       -5.776       -2.916       24.206       21.607       27.028       20.109      466.865      730.525      404.355        0.111        0.080        6.471       12.825        3.929      334.530        4.565      854.801
05/23/2013  05:19:00       20.770      -16.714       20.541       22.223       26.386       24.229      493.876      696.217      587.056        0.145        0.089       26.660       16.622        0.389      334.595        4.671      854.816
05/23/2013  05:20:00       39.291       36.147       31.142       19.894       14.915       19.892      395.780      222.444      395.675        0.242        0.051       53.389        9.765        0.033      334.575        4.638      854.823
05/23/2013  05:21:00       43.577       11.205       26.065       15.867       28.145       24.747      251.775      792.167      612.397        0.218        0.083       44.995       18.804        0.175      334.601        4.681      854.840
05/23/2013  05:22:00        6.830      -34.582       12.512       13.719       20.371       11.844      188.212      414.985      140.290        0.107        0.037       35.250       10.780        0.094      334.672        4.799      854.862
05/23/2013  05:23:00       20.186      -32.533        2.094       12.176       19.548       15.845      148.244      382.118      251.052        0.113        0.039       38.287       12.659        0.109      334.676        4.806      854.861
05/23/2013  05:24:00       61.357      -60.721       -0.885       41.236       64.575       29.873     1700.400     4169.962      892.406        0.711        0.338       86.323       33.975        0.155      334.587        4.658      854.855
05/23/2013  05:25:00       39.788       -5.952       29.515       45.247       45.361       32.029     2047.268     2057.651     1025.826        0.381        0.257       40.230       36.388        0.818      334.478        4.477      854.852
05/23/2013  05:26:00        8.229       37.739       59.023       25.863       28.022       21.008      668.896      785.222      441.341        0.344        0.095       38.625       14.128        0.134      334.420        4.381      854.859
05/23/2013  05:27:00       28.182      -10.691       34.989       30.314       45.756       29.005      918.949     2093.655      841.277        0.299        0.193       30.141       30.994        1.057      334.516        4.540      854.877
05/23/2013  05:28:00       42.553      -31.050        2.485       29.381       23.669       25.944      863.249      560.215      673.093        0.244        0.105       52.677       17.835        0.115      334.606        4.688      854.884
05/23/2013  05:29:00        9.170       14.100       45.815       22.800       41.703       34.125      519.850     1739.140     1164.545        0.290        0.171       16.820       34.487        4.204      334.502        4.517      854.866
05/23/2013  05:30:00        4.227       46.084       79.281       24.045       42.373       21.363      578.141     1795.459      456.399        0.563        0.141       46.278       25.045        0.293      334.590        4.663      854.868
05/23/2013  05:31:00       13.986      -68.968       10.999       32.886       55.995       29.960     1081.490     3135.398      897.613        0.509        0.256       70.371       37.943        0.291      334.612        4.698      854.887
05/23/2013  05:32:00        4.655      -89.990      -12.262       29.171       24.311       19.881      850.971      591.007      395.259        0.505        0.092       90.111       18.257        0.041      334.722        4.882      854.918
05/23/2013  05:33:00        4.646      -21.222       29.922       18.166       37.146       24.693      330.021     1379.816      609.750        0.184        0.116       21.724       20.291        0.872      334.648        4.760      854.933
05/23/2013  05:34:00       13.712       13.636       47.637       26.489       24.196       20.033      701.676      585.462      401.328        0.217        0.084       19.338        9.395        0.236      334.564        4.620      854.945
05/23/2013  05:35:00       -3.841        6.231       47.216       17.733       31.259       22.425      314.475      977.138      502.887        0.204        0.090        7.320       19.236        6.907      334.501        4.516      854.958
05/23/2013  05:36:00       22.626      -38.216       17.504       34.254       53.396       29.058     1173.318     2851.113      844.374        0.357        0.243       44.412       31.717        0.510      334.464        4.454      854.974
05/23/2013  05:37:00       11.788      -59.044        0.618       25.832       36.053       23.979      667.285     1299.831      575.008        0.308        0.127       60.209       17.148        0.081      334.550        4.596      855.007
05/23/2013  05:38:00       33.121      -25.599       15.663       31.671       28.588       22.143     1003.059      817.270      490.295        0.215        0.116       41.861       21.490        0.264      334.521        4.548      855.035
05/23/2013  05:39:00       10.987       17.076       48.751       30.018       29.427       21.095      901.068      865.967      445.006        0.250        0.111       20.305       14.160        0.486      334.418        4.378      855.039
05/23/2013  05:40:00       42.469      -33.460       18.394       28.622       50.107       38.033      819.239     2510.736     1446.504        0.402        0.239       54.067       33.425        0.382      334.454        4.437      855.040
05/23/2013  05:41:00       11.542      -11.832       25.773       30.385       31.218       17.787      923.259      974.570      316.363        0.158        0.111       16.529       22.760        1.896      334.404        4.356      855.030
05/23/2013  05:42:00       -4.713      -26.324       13.024       14.762       30.480       18.975      217.917      929.039      360.034        0.120        0.075       26.743       17.424        0.425      334.481        4.482      855.032
05/23/2013  05:43:00       -0.337      -71.878      -13.350       23.478       25.260       19.696      551.206      638.086      387.951        0.346        0.079       71.879       12.974        0.033      334.569        4.628      855.043
05/23/2013  05:44:00        9.710      -15.398       -0.443       15.742       32.355       16.551      247.809     1046.841      273.929        0.095        0.078       18.204        6.354        0.122      334.510        4.530      855.061
05/23/2013  05:45:00       -2.916       22.643       37.082       16.454       21.000       24.723      270.733      441.018      611.220        0.161        0.066       22.830       20.806        0.831      334.396        4.342      855.053
05/23/2013  05:46:00       -6.215       -0.168       33.918       15.798       29.094       18.440      249.590      846.461      340.036        0.131        0.072        6.217       11.313        3.311      334.443        4.420      855.054
05/23/2013  05:47:00      -12.796      -38.489        9.396       24.215       25.041       15.995      586.373      627.052      255.826        0.160        0.073       40.560       14.776        0.133      334.599        4.677      855.054
05/23/2013  05:48:00       -4.255      -27.732        5.138       21.879       20.712       17.017      478.704      428.976      289.583        0.101        0.060       28.056        5.979        0.045      334.640        4.745      855.056
05/23/2013  05:49:00        3.047      -19.100        8.448       19.451       21.444       15.490      378.338      459.855      239.931        0.076        0.054       19.341       15.378        0.632      334.585        4.655      855.052
05/23/2013  05:50:00      -39.748      -69.389       12.765       57.360       38.870       27.931     3290.127     1510.894      780.125        0.607        0.279       79.967       35.781        0.200      334.589        4.660      855.052
05/23/2013  05:51:00      -30.761      -29.385       15.505       40.237       30.609       23.338     1618.988      936.894      544.674        0.257        0.155       42.541       24.438        0.330      334.548        4.593      855.067
05/23/2013  05:52:00      -42.590      -48.012       12.457       63.393       38.826       30.318     4018.682     1507.461      919.173        0.536        0.322       64.179       30.820        0.231      334.457        4.443      855.095
05/23/2013  05:53:00      -71.038      -92.910       -8.104       49.099       39.579       21.308     2410.707     1566.484      454.045        0.909        0.222      116.956       20.720        0.031      334.448        4.428      855.101
05/23/2013  05:54:00      -36.350      -35.667        0.732       42.463       28.557       15.186     1803.116      815.483      230.624        0.272        0.142       50.925       14.955        0.086      334.460        4.447      855.107
05/23/2013  05:55:00      -27.626       -4.525        1.789       31.044       31.790       19.089      963.757     1010.588      364.389        0.156        0.117       27.994       21.308        0.579      334.521        4.548      855.098
05/23/2013  05:56:00      -13.993        3.024        4.289       21.647       12.198       14.462      468.608      148.802      209.137        0.052        0.041       14.316        8.504        0.353      334.532        4.566      855.095
05/23/2013  05:57:00      -43.607      -35.265       -1.516       43.364       19.546       16.086     1880.406      382.055      258.751        0.283        0.126       56.082       15.588        0.077      334.594        4.670      855.093
05/23/2013  05:58:00      -21.394      -25.077        3.159       33.203       20.547       17.949     1102.410      422.176      322.166        0.147        0.092       32.963       12.173        0.136      334.579        4.643      855.083
05/23/2013  05:59:00      -32.858      -44.541       -0.301       26.997       21.096       15.728      728.818      445.054      247.374        0.224        0.071       55.350        9.804        0.031      334.632        4.733      855.075
05/23/2013  06:00:00      -58.235      -34.588        6.322       31.050       29.905       19.844      964.099      894.290      393.797        0.344        0.113       67.733       15.230        0.051      334.609        4.695      855.068
05/23/2013  06:01:00      -11.169       -2.217        8.928       18.484       18.256       14.309      341.670      333.294      204.751        0.054        0.044       11.387        9.551        0.704      334.618        4.710      855.065
05/23/2013  06:02:00       -1.696      -13.630       15.279       23.280       15.974       15.440      541.975      255.183      238.394        0.073        0.052       13.735       12.201        0.789      334.680        4.812      855.062
05/23/2013  06:03:00       -6.143      -19.485        7.649       18.075       27.516       19.228      326.720      757.147      369.706        0.096        0.073       20.430       10.017        0.240      334.773        4.967      855.057
05/23/2013  06:04:00       -0.782      -76.416       -0.551       36.035       41.854       28.444     1298.501     1751.761      809.043        0.485        0.193       76.420       19.146        0.063      334.911        5.195      855.047
05/23/2013  06:05:00      -35.900      -20.067        6.391       33.930       21.978       17.165     1151.239      483.027      294.643        0.183        0.096       41.128       17.921        0.190      334.735        4.904      855.066
05/23/2013  06:06:00        2.611      -10.259       11.837       22.943       14.405       12.163      526.367      207.491      147.933        0.057        0.044       10.586        8.939        0.713      334.838        5.075      855.091
05/23/2013  06:07:00      -27.039      -22.979        4.831       38.768       17.527       13.175     1502.929      307.185      173.570        0.163        0.099       35.484       16.224        0.209      334.754        4.934      855.089
05/23/2013  06:08:00      -54.369      -23.958        4.264       26.193       16.553       11.597      686.098      274.004      134.481        0.232        0.055       59.414        9.214        0.024      334.688        4.826      855.087
05/23/2013  06:09:00      -22.397      -21.792        7.387       25.036       21.594       14.315      626.799      466.307      204.910        0.116        0.065       31.249       10.826        0.120      334.813        5.033      855.091
05/23/2013  06:10:00      -45.939       -4.678        4.434       28.424       20.877       13.781      807.900      435.848      189.910        0.179        0.072       46.176       14.801        0.103      334.747        4.924      855.094
05/23/2013  06:11:00      -52.398      -21.797       -1.441       24.328       20.569       14.257      591.850      423.072      203.272        0.222        0.061       56.750       12.553        0.049      334.757        4.940      855.094
05/23/2013  06:12:00      -51.513       -4.238       -1.881       28.637       18.431       11.330      820.074      339.690      128.365        0.198        0.064       51.687       11.012        0.045      334.679        4.810      855.101
05/23/2013  06:13:00     -108.947       -9.015       -9.051       31.907       26.349       15.540     1018.070      694.287      241.499        0.699        0.098      109.319       12.822        0.014      334.498        4.511      855.115
05/23/2013  06:14:00      -83.372        2.577       -6.529       30.396       19.078       16.121      923.931      363.972      259.890        0.427        0.077       83.412       13.746        0.027      334.524        4.553      855.132
05/23/2013  06:15:00      -73.181       21.823       -6.891       19.494        7.989        7.562      380.007       63.823       57.191        0.319        0.025       76.366        4.188        0.003      334.559        4.612      855.134
05/23/2013  06:16:00      -40.177       15.758       -3.018       14.016       11.815        8.345      196.446      139.594       69.640        0.114        0.020       43.157        6.585        0.023      334.609        4.696      855.131
05/23/2013  06:17:00      -31.917       -6.584        5.139       13.016       15.660        7.269      169.410      245.232       52.843        0.078        0.023       32.589        3.689        0.013      334.712        4.865      855.118
05/23/2013  06:18:00      -46.837      -12.625        2.671       10.234       12.472        8.394      104.743      155.549       70.466        0.135        0.017       48.509        4.129        0.007      334.748        4.926      855.125
05/23/2013  06:19:00      -71.771      -13.902       -7.023       19.468       17.895       10.394      379.002      320.244      108.041        0.310        0.040       73.105        8.479        0.013      334.714        4.867      855.122
05/23/2013  06:20:00      -99.996      -28.474      -10.011       15.857       17.395       11.417      251.442      302.577      130.359        0.580        0.034      103.971        5.618        0.003      334.597        4.675      855.140
05/23/2013  06:21:00      -70.496      -14.607       -7.180       31.787       22.294       17.233     1010.443      497.029      296.976        0.352        0.090       71.994       15.865        0.049      334.507        4.525      855.166
05/23/2013  06:22:00     -108.490       -1.114       -7.378       41.298       28.281       19.970     1705.503      799.833      398.814        0.736        0.145      108.496       16.984        0.025      334.419        4.380      855.181
05/23/2013  06:23:00     -138.043       30.030       -8.819       49.193       36.362       20.523     2419.966     1322.167      421.189        1.210        0.208      141.272       21.782        0.024      334.313        4.203      855.194
05/23/2013  06:24:00     -131.292       12.652      -13.995       32.960       25.758       18.499     1086.392      663.460      342.227        0.984        0.105      131.900       12.421        0.009      334.289        4.163      855.204
05/23/2013  06:25:00      -74.127      -31.744       -2.664       41.696       33.372       24.710     1738.523     1113.690      610.592        0.499        0.173       80.638       21.163        0.069      334.312        4.201      855.208
05/23/2013  06:26:00     -125.970       -9.589      -10.697       44.489       35.135       25.397     1979.236     1234.467      645.000        0.997        0.193      126.335       19.221        0.023      334.298        4.179      855.222
05/23/2013  06:27:00     -134.389       17.541       -8.455       43.165       32.863       27.336     1863.175     1079.986      747.251        1.106        0.185      135.529       24.768        0.033      334.272        4.137      855.225
05/23/2013  06:28:00     -131.215       14.181      -13.868       30.383       26.885       20.970      923.152      722.818      439.747        0.985        0.104      131.979       14.309        0.012      334.286        4.157      855.223
05/23/2013  06:29:00      -95.826      -27.557       -2.252       31.944       26.964       17.658     1020.436      727.074      311.806        0.600        0.103       99.710       16.853        0.029      334.348        4.260      855.234
05/23/2013  06:30:00      -82.385      -27.088       -0.793       23.348       27.685       12.253      545.133      766.434      150.145        0.449        0.073       86.724        6.829        0.006      334.449        4.430      855.238
05/23/2013  06:31:00      -66.181      -51.050        9.381       38.133       42.036       17.813     1454.118     1767.049      317.292        0.531        0.177       83.582       17.305        0.043      334.612        4.700      855.250
05/23/2013  06:32:00      -91.378      -58.643       -3.555       45.018       33.027       19.047     2026.603     1090.772      362.784        0.764        0.174      108.577       23.671        0.048      334.698        4.841      855.266
05/23/2013  06:33:00      -70.206      -15.480       10.404       41.139       34.104       21.109     1692.389     1163.053      445.596        0.429        0.165       71.892       20.132        0.078      334.704        4.852      855.273
05/23/2013  06:34:00     -102.288      -50.083        0.441       49.584       38.258       21.020     2458.620     1463.651      441.824        0.867        0.218      113.890       21.655        0.036      334.653        4.766      855.298
05/23/2013  06:35:00      -57.375      -28.681        0.306       46.658       37.182       21.620     2176.946     1382.515      467.412        0.407        0.201       64.144       26.649        0.173      334.685        4.821      855.310
05/23/2013  06:36:00      -64.820      -32.443        5.018       35.794       28.532       18.059     1281.225      814.083      326.129        0.385        0.121       72.486       20.097        0.077      334.607        4.691      855.316
05/23/2013  06:37:00      -65.827       -6.403        5.841       37.676       23.838       18.545     1419.512      568.245      343.912        0.337        0.117       66.138       21.167        0.102      334.663        4.785      855.317
05/23/2013  06:38:00      -39.634       -5.281        5.123       18.689       10.851       10.902      349.285      117.749      118.853        0.111        0.029       39.984       10.758        0.072      334.732        4.899      855.299
05/23/2013  06:39:00      -35.996       22.638        7.997       25.064       20.276       18.618      628.180      411.103      346.632        0.163        0.069       42.523       15.468        0.132      334.861        5.112      855.273
05/23/2013  06:40:00      -42.310       20.248        5.973       20.078       15.058       12.553      403.142      226.742      157.583        0.151        0.039       46.905       10.028        0.046      334.804        5.020      855.259
05/23/2013  06:41:00      -49.904       -5.771        1.565       23.014       22.335       12.321      529.653      498.866      151.811        0.185        0.059       50.237       12.420        0.061      334.793        4.999      855.266
05/23/2013  06:42:00      -65.721      -13.359        0.359       20.811       13.181       12.067      433.109      173.744      145.617        0.263        0.038       67.065        9.663        0.021      334.862        5.115      855.286
05/23/2013  06:43:00      -72.208      -19.248       -8.041       17.923       10.983       11.133      321.222      120.633      123.945        0.311        0.028       74.729        9.891        0.018      334.832        5.067      855.303
05/23/2013  06:44:00      -54.831       -1.804       -2.857       19.370       25.898       11.800      375.188      670.685      139.239        0.210        0.059       54.861        4.658        0.007      334.837        5.073      855.301
05/23/2013  06:45:00      -72.554        2.600       -2.564       30.445       15.874       14.639      926.900      251.997      214.287        0.334        0.070       72.601       15.757        0.047      334.811        5.030      855.294
05/23/2013  06:46:00      -67.333       20.537       -6.540       16.626       20.401       14.435      276.431      416.183      208.358        0.295        0.045       70.395        7.470        0.011      334.870        5.128      855.285
05/23/2013  06:47:00      -62.739       35.621       -6.697       13.184       25.116       12.132      173.823      630.829      147.188        0.310        0.048       72.146       12.100        0.028      334.954        5.268      855.276
05/23/2013  06:48:00      -61.545       63.267      -18.234       16.843       19.544       12.862      283.690      381.956      165.426        0.448        0.042       88.264        7.702        0.008      334.951        5.263      855.264
05/23/2013  06:49:00      -42.520       26.569        4.632       24.315       19.952       22.042      591.203      398.078      485.845        0.200        0.074       50.139       15.839        0.100      335.129        5.558      855.258
05/23/2013  06:50:00       -7.960       41.666        6.753       19.303       31.430       16.397      372.597      987.833      268.866        0.174        0.081       42.419       17.246        0.165      335.367        5.953      855.252
05/23/2013  06:51:00      -14.493        4.683       20.612       16.362       10.728        9.706      267.727      115.079       94.201        0.057        0.024       15.231        8.146        0.286      335.694        6.498      855.233
05/23/2013  06:52:00        6.606        9.021        7.751       17.428       20.886       13.494      303.719      436.216      182.082        0.055        0.046       11.181        9.917        0.787      335.396        6.001      855.204
05/23/2013  06:53:00       -4.452       12.525       14.379        8.231       16.507       13.056       67.753      272.472      170.458        0.045        0.026       13.293        9.244        0.484      335.701        6.509      855.202
05/23/2013  06:54:00        4.107       10.410        8.468        9.369       11.950       13.149       87.774      142.809      172.907        0.030        0.020       11.191        6.969        0.388      335.647        6.420      855.218
05/23/2013  06:55:00       -1.373       15.820       13.875       16.143       12.462       10.985      260.607      155.299      120.669        0.049        0.027       15.879        8.293        0.273      335.832        6.728      855.236
05/23/2013  06:56:00        1.096       16.692       17.833       13.334       16.416       15.009      177.787      269.497      225.264        0.064        0.034       16.728       10.406        0.387      335.922        6.879      855.260
05/23/2013  06:57:00      -29.613        5.784        4.546        7.051        7.693        8.080       49.723       59.186       65.281        0.055        0.009       30.173        5.156        0.029      335.380        5.975      855.278
05/23/2013  06:58:00      -33.976        1.462       -2.811       12.654        9.168        7.543      160.119       84.058       56.893        0.073        0.015       34.007        4.766        0.020      335.344        5.915      855.314
05/23/2013  06:59:00      -35.344        8.573       -1.104       18.901       12.056        9.047      357.241      145.338       81.840        0.095        0.029       36.369        8.169        0.050      335.427        6.052      855.337
05/23/2013  07:00:00      -51.518      -19.900        2.757       33.437       26.801       16.865     1118.025      718.277      284.430        0.259        0.106       55.227       19.426        0.124      335.676        6.468      855.347
05/23/2013  07:01:00      -81.068      -39.243       -8.212       35.172       22.614       21.221     1237.059      511.378      450.348        0.519        0.110       90.067       21.663        0.058      335.327        5.885      855.372
05/23/2013  07:02:00      -59.751      -65.109       -2.815       32.183       22.152       21.795     1035.749      490.698      475.014        0.491        0.100       88.371       21.339        0.058      335.320        5.874      855.405
05/23/2013  07:03:00      -50.500      -37.917       -4.013       17.498       27.812       16.035      306.193      773.487      257.113        0.267        0.067       63.150       14.545        0.053      335.305        5.848      855.411
05/23/2013  07:04:00      -65.089      -46.216       -4.009       44.787       33.432       23.481     2005.877     1117.674      551.355        0.503        0.184       79.828       25.722        0.104      335.428        6.055      855.421
05/23/2013  07:05:00      -79.636      -54.317        2.161       39.399       33.185       20.608     1552.262     1101.242      424.688        0.619        0.154       96.396       20.498        0.045      335.269        5.788      855.421
05/23/2013  07:06:00      -81.640        4.334       -0.160       31.575       20.517       17.103      996.962      420.956      292.517        0.420        0.086       81.755       16.171        0.039      335.263        5.780      855.419
05/23/2013  07:07:00      -91.957      -42.004       -7.165       33.973       25.743       20.916     1154.149      662.678      437.488        0.626        0.113      101.096       19.679        0.038      335.270        5.791      855.433
05/23/2013  07:08:00      -71.221      -49.429       -3.665       21.245       23.433       14.202      451.347      549.123      201.698        0.437        0.060       86.693       13.480        0.024      335.285        5.815      855.450
05/23/2013  07:09:00      -86.370      -29.546       -6.266       25.356       23.226       16.598      642.913      539.435      275.487        0.491        0.073       91.284       17.634        0.037      335.343        5.915      855.468
05/23/2013  07:10:00      -83.092      -22.804       -5.416       25.763       19.166       15.051      663.750      367.323      226.542        0.436        0.063       86.164        7.980        0.009      335.335        5.900      855.490
05/23/2013  07:11:00      -50.971       -7.483       -2.691       24.241       23.282       12.672      587.602      542.072      160.571        0.198        0.065       51.517       10.370        0.041      335.359        5.939      855.499
05/23/2013  07:12:00      -99.464      -20.560       -8.670       25.876       17.262       11.778      669.572      297.991      138.721        0.575        0.055      101.567       11.952        0.014      335.348        5.921      855.507
05/23/2013  07:13:00      -56.215      -22.099       -2.280       22.031       16.788       11.797      485.363      281.839      139.172        0.228        0.045       60.403        9.122        0.023      335.414        6.031      855.523
05/23/2013  07:14:00      -40.420       -1.913       -0.270       15.949        9.612       11.560      254.372       92.391      133.643        0.106        0.024       40.465        8.046        0.040      335.438        6.072      855.527
05/23/2013  07:15:00        5.236        2.479       11.281       13.651       16.410       15.336      186.359      269.279      235.190        0.043        0.035        5.793        9.626        2.761      336.006        7.019      855.524
05/23/2013  07:16:00       16.179       52.961        2.115       19.384       21.870       17.317      375.758      478.316      299.883        0.211        0.058       55.378       12.504        0.051      335.654        6.431      855.521
05/23/2013  07:17:00      -28.901       39.218        7.075       26.159       38.072       22.771      684.279     1449.450      518.533        0.254        0.133       48.717       22.263        0.209      335.929        6.890      855.524
05/23/2013  07:18:00      -33.533       51.484       -2.635       19.674       27.235       19.352      387.053      741.754      374.496        0.264        0.075       61.442       10.948        0.032      335.666        6.451      855.542
05/23/2013  07:19:00        3.349       15.631       12.605       18.626       35.650       20.499      346.926     1270.917      420.192        0.123        0.102       15.985       22.538        1.988      335.940        6.908      855.547
05/23/2013  07:20:00       -2.359       50.111        8.832       28.644       30.577       20.382      820.494      934.933      415.427        0.238        0.109       50.167       16.873        0.113      335.775        6.634      855.554
05/23/2013  07:21:00      -56.674       46.397      -13.933       19.241       36.291       19.403      370.217     1317.032      376.462        0.381        0.103       73.243       22.214        0.092      335.532        6.228      855.554
05/23/2013  07:22:00       -5.132       46.637       -0.242       30.092       39.965       21.794      905.540     1597.219      474.965        0.259        0.149       46.919       18.953        0.163      335.846        6.754      855.554
05/23/2013  07:23:00        1.587       80.988        7.177       17.957       45.533       25.854      322.442     2073.266      668.421        0.484        0.153       81.004       27.281        0.113      336.168        7.290      855.549
05/23/2013  07:24:00       -1.493       53.978        6.037       18.287       37.238       25.362      334.415     1386.638      643.211        0.266        0.118       53.999       20.545        0.145      336.095        7.168      855.535
05/23/2013  07:25:00        3.425       77.512       -7.164       24.507       26.040       20.434      600.590      678.094      417.561        0.388        0.085       77.587       14.640        0.036      335.820        6.708      855.515
05/23/2013  07:26:00       28.652       76.453      -12.735       20.710       25.229       16.766      428.883      636.482      281.114        0.409        0.067       81.646       13.749        0.028      335.751        6.593      855.493
05/23/2013  07:27:00        3.116        7.804       21.511       14.795       12.965       11.577      218.882      168.083      134.022        0.053        0.026        8.403        8.100        0.929      336.522        7.882      855.498
05/23/2013  07:28:00       -8.908        6.138       18.373       15.337       36.183       16.962      235.234     1309.179      287.725        0.114        0.092       10.818       17.378        2.581      336.228        7.390      855.517
05/23/2013  07:29:00       29.068       65.926       -5.112       25.336       20.747       19.291      641.910      430.436      372.130        0.333        0.072       72.049       11.060        0.024      335.826        6.719      855.533
05/23/2013  07:30:00       31.201       43.947        0.900       18.240       18.696       22.799      332.715      349.551      519.779        0.205        0.060       53.897        4.894        0.008      335.736        6.570      855.557
05/23/2013  07:31:00        7.625       71.197       -1.800       21.956       28.840       21.020      482.047      831.767      441.859        0.344        0.088       71.604       16.551        0.053      335.964        6.949      855.579
05/23/2013  07:32:00       42.165       67.915       -0.387       20.086       21.785       24.079      403.428      474.600      579.820        0.392        0.073       79.939        8.167        0.010      335.961        6.944      855.598
05/23/2013  07:33:00       65.208       62.787        8.260       26.568       26.372       22.550      705.878      695.471      508.523        0.509        0.095       90.522       17.987        0.039      336.017        7.037      855.604
05/23/2013  07:34:00       94.861       68.277       31.843       36.076       24.501       22.893     1301.452      600.291      524.073        0.855        0.121      116.878       15.873        0.018      336.024        7.048      855.605
05/23/2013  07:35:00       95.768       64.004       30.410       42.105       41.601       42.905     1772.856     1730.603     1840.862        0.977        0.267      115.186       40.601        0.124      335.827        6.721      855.611
05/23/2013  07:36:00       67.452       54.803       23.138       27.355       17.897       24.514      748.270      320.294      600.920        0.488        0.083       86.909        7.321        0.007      335.869        6.789      855.626
05/23/2013  07:37:00       55.340       46.104       15.632       28.434       17.306       26.834      808.488      299.488      720.079        0.363        0.091       72.029        9.681        0.018      336.037        7.069      855.646
05/23/2013  07:38:00       17.939       25.273        6.291       17.873       16.329       13.702      319.437      266.626      187.749        0.089        0.039       30.993        9.871        0.101      336.368        7.624      855.681
05/23/2013  07:39:00        4.136       16.499       13.554       17.273       13.532       13.500      298.353      183.103      182.248        0.057        0.033       17.010        8.498        0.250      336.390        7.659      855.711
05/23/2013  07:40:00      -10.394        7.035       29.752        9.596       11.991       13.470       92.084      143.783      181.439        0.073        0.021       12.551        7.257        0.334      336.895        8.502      855.717
05/23/2013  07:41:00        2.001       25.645       22.845       15.263       17.368       16.369      232.966      301.658      267.929        0.099        0.040       25.723       11.064        0.185      336.749        8.261      855.725
05/23/2013  07:42:00       40.628       31.352       35.176       45.816       26.174       24.491     2099.086      685.090      599.817        0.363        0.169       51.318       24.387        0.226      336.683        8.151      855.723
05/23/2013  07:43:00       92.829       63.663        4.874       29.411       30.984       24.461      865.001      959.986      598.354        0.756        0.121      112.562        8.096        0.005      336.232        7.395      855.707
05/23/2013  07:44:00      100.390       76.225       12.717       33.447       23.700       26.861     1118.712      561.673      721.525        0.923        0.120      126.049       13.962        0.012      336.227        7.387      855.680
05/23/2013  07:45:00       60.359       60.222       37.845       59.676       35.805       30.481     3561.279     1282.031      929.089        0.724        0.289       85.264       32.477        0.145      336.446        7.754      855.651
05/23/2013  07:46:00       -0.938       56.535       87.617       30.273       32.000       23.505      916.438     1024.008      552.480        0.668        0.125       56.543       17.764        0.099      336.630        8.062      855.629
05/23/2013  07:47:00        6.342       37.645       63.147       26.640       35.997       18.317      709.703     1295.796      335.499        0.389        0.117       38.176       19.484        0.260      336.988        8.660      855.599
05/23/2013  07:48:00       46.031       63.359       54.140       76.297       47.642       42.739     5821.265     2269.737     1826.586        0.949        0.496       78.315       46.751        0.356      336.730        8.229      855.591
05/23/2013  07:49:00       78.090       61.760       40.230       60.962       37.635       40.022     3716.412     1416.403     1601.729        0.913        0.337       99.561       30.895        0.096      336.563        7.950      855.589
05/23/2013  07:50:00      110.842       79.319       29.112       45.449       37.349       34.415     2065.646     1394.982     1184.380        1.203        0.232      136.300       18.621        0.019      336.448        7.757      855.584
05/23/2013  07:51:00      121.543       72.978       -1.258       37.315       28.736       32.997     1392.373      825.771     1088.808        1.170        0.165      141.769       22.080        0.024      336.385        7.652      855.578
05/23/2013  07:52:00       81.241       46.464       21.809       48.842       38.160       29.500     2385.575     1456.202      870.269        0.697        0.236       93.590       26.286        0.079      336.662        8.115      855.582
05/23/2013  07:53:00       79.757       63.337       45.200       57.783       34.505       37.394     3338.867     1190.613     1398.343        0.917        0.296      101.847       32.639        0.103      336.755        8.270      855.605
05/23/2013  07:54:00       36.103      -47.969       34.028       46.089      101.771       46.268     2124.150    10357.285     2140.771        0.969        0.731       60.037       57.469        0.916      336.847        8.423      855.607
05/23/2013  07:55:00       21.526       -4.484       55.821       38.131       93.123       57.801     1453.987     8671.884     3340.964        0.853        0.673       21.988       63.342        8.298      336.908        8.525      855.614
05/23/2013  07:56:00       41.247       96.486      110.264       55.821       62.219       43.340     3116.031     3871.251     1878.339        1.602        0.443      104.933       38.859        0.137      336.493        7.832      855.630
05/23/2013  07:57:00       34.697      -32.732       26.443       34.512       58.177       31.994     1191.084     3384.554     1023.589        0.429        0.280       47.700       21.335        0.200      336.783        8.317      855.663
05/23/2013  07:58:00       63.477       36.896       56.164       46.394       81.621       63.394     2152.390     6662.050     4018.789        1.069        0.642       73.422       64.098        0.762      336.794        8.335      855.674
05/23/2013  07:59:00       18.752       42.463       68.246       43.952       61.542       39.045     1931.738     3787.441     1524.486        0.703        0.362       46.419       34.222        0.544      336.833        8.402      855.680
05/23/2013  08:00:00       72.348        4.591       41.117       50.333       39.440       38.891     2533.382     1555.512     1512.541        0.627        0.280       72.494       28.488        0.154      336.952        8.598      855.686
05/23/2013  08:01:00       28.810       44.083       53.354       52.051       46.014       38.275     2709.328     2117.287     1464.952        0.595        0.315       52.663       37.526        0.508      336.871        8.464      855.707
05/23/2013  08:02:00       38.910      -64.915       -2.594       33.507       36.705       36.995     1122.741     1347.286     1368.659        0.479        0.192       75.683       28.514        0.142      336.928        8.560      855.715
05/23/2013  08:03:00       21.223       20.569       38.949       24.737       19.686       16.831      611.927      387.534      283.267        0.184        0.064       29.555       16.481        0.311      336.942        8.582      855.737
05/23/2013  08:04:00       51.712       57.871       -7.685       25.432       22.157       20.370      646.783      490.931      414.941        0.382        0.078       77.609       15.114        0.038      336.522        7.882      855.748
05/23/2013  08:05:00       90.435       52.825      -10.528       25.558       30.964       25.412      653.224      958.762      645.758        0.667        0.113      104.733       12.983        0.015      336.808        8.358      855.734
05/23/2013  08:06:00       67.033       57.415       13.197       39.195       32.894       25.323     1536.263     1082.000      641.262        0.561        0.163       88.261       20.831        0.056      336.749        8.259      855.735
05/23/2013  08:07:00       20.434       25.940       22.137       19.927       21.729       21.415      397.078      472.128      458.583        0.145        0.066       33.022       14.770        0.200      337.085        8.822      855.752
05/23/2013  08:08:00      -46.046        0.890        1.605       45.224       18.640       18.317     2045.205      347.446      335.520        0.243        0.136       46.055       24.921        0.293      336.928        8.560      855.745
05/23/2013  08:09:00      -95.150      -64.347       -9.312       22.727       26.082       15.436      516.504      680.257      238.272        0.736        0.072      114.865       13.425        0.014      336.511        7.862      855.758
05/23/2013  08:10:00      -94.348      -37.248       -2.760       31.052       34.137       22.056      964.222     1165.339      486.471        0.646        0.131      101.434       22.549        0.049      336.564        7.950      855.792
05/23/2013  08:11:00      -39.874      -17.270       23.210       45.345       24.366       22.505     2056.197      593.692      506.459        0.279        0.158       43.453       27.289        0.394      337.068        8.794      855.830
05/23/2013  08:12:00      -36.975      -46.585       -0.704       25.676       55.879       22.367      659.281     3122.515      500.266        0.391        0.214       59.475       17.905        0.091      336.673        8.132      855.811
05/23/2013  08:13:00      -32.404        2.210        4.459       40.099       29.910       21.900     1607.891      894.597      479.628        0.203        0.149       32.479       16.563        0.260      336.968        8.627      855.803
05/23/2013  08:14:00       21.826      -63.438       -0.700       57.602       53.948       31.770     3317.941     2910.418     1009.322        0.587        0.362       67.087       27.914        0.173      337.265        9.122      855.824
05/23/2013  08:15:00       29.439     -114.894       -2.299       62.047       66.848       41.423     3849.777     4468.614     1715.905        1.205        0.502      118.605       39.435        0.111      337.137        8.908      855.841
05/23/2013  08:16:00      -69.139      -52.916       12.445       94.072       59.654       39.815     8849.488     3558.550     1585.224        1.086        0.700       87.065       41.425        0.226      337.261        9.115      855.899
05/23/2013  08:17:00      -68.808      -46.602       -4.207      102.680       79.418       32.629    10543.171     6307.245     1064.669        1.242        0.896       83.104       41.563        0.250      336.764        8.284      855.924
05/23/2013  08:18:00     -139.739      -28.838       -0.011       93.802       65.333       45.451     8798.826     4268.407     2065.786        1.774        0.757      142.684       55.314        0.150      336.891        8.494      855.909
05/23/2013  08:19:00     -235.727     -229.380        5.373      152.132      116.267       81.717    23144.189    13518.107     6677.687        7.577        2.167      328.911       78.443        0.057      337.146        8.920      855.906
05/23/2013  08:20:00     -406.720     -229.307      -23.818      161.334      125.093       68.327    26028.549    15648.235     4668.641       13.245        2.317      466.908       86.537        0.034      337.123        8.881      855.892
05/23/2013  08:21:00     -132.513     -113.061        7.961      145.253       82.665       59.118    21098.304     6833.542     3494.903        3.091        1.571      174.191       64.404        0.137      337.357        9.275      855.907
05/23/2013  08:22:00     -220.672      -58.721       -2.786      119.980      115.750       52.831    14395.273    13398.113     2791.074        4.136        1.529      228.351       55.257        0.059      337.314        9.203      855.898
05/23/2013  08:23:00     -112.403      -68.967       -5.677       72.805       62.653       38.930     5300.602     3925.434     1515.569        1.408        0.537      131.874       37.356        0.080      337.406        9.359      855.908
05/23/2013  08:24:00     -112.609      -98.139       -9.666       83.446       73.318       34.458     6963.282     5375.508     1187.333        1.796        0.676      149.373       25.251        0.029      337.379        9.313      855.898
05/23/2013  08:25:00     -116.583      -60.486       -0.402       70.618       64.248       37.056     4986.970     4127.755     1373.178        1.387        0.524      131.340       23.225        0.031      337.401        9.348      855.917
05/23/2013  08:26:00     -142.748     -112.874        6.652      161.476      137.754       77.884    26074.459    18976.133     6065.895        4.213        2.556      181.983       85.200        0.219      337.624        9.721      855.926
05/23/2013  08:27:00     -331.966     -206.970      -13.579      173.210      147.040       85.560    30001.609    21620.797     7320.510       10.607        2.947      391.201       88.876        0.052      337.350        9.261      855.947
05/23/2013  08:28:00     -378.770      -38.329      -32.326      115.521       97.233       73.325    13345.110     9454.330     5376.485        8.707        1.409      380.704       59.242        0.024      337.089        8.825      855.963
05/23/2013  08:29:00     -242.102      -36.289      -14.730      145.765      104.043       52.325    21247.377    10824.922     2737.949        4.747        1.741      244.807       51.749        0.045      337.246        9.088      855.965
05/23/2013  08:30:00     -311.396     -103.944      -12.359      107.685       99.851       49.269    11596.029     9970.259     2427.473        6.595        1.200      328.286       51.476        0.025      337.213        9.032      855.959
05/23/2013  08:31:00     -106.351      -91.917       -7.658       65.576       79.585       43.423     4300.253     6333.757     1885.538        1.617        0.626      140.568       32.271        0.053      337.379        9.314      855.944
05/23/2013  08:32:00     -180.115      -83.739       -2.071      139.703      114.437       59.788    19516.862    13095.770     3574.664        3.782        1.809      198.629       68.908        0.120      337.586        9.660      855.944
05/23/2013  08:33:00     -223.088     -203.431       11.675      157.397      150.684       78.361    24773.857    22705.577     6140.377        7.244        2.681      301.914       85.236        0.080      337.480        9.480      855.919
05/23/2013  08:34:00     -229.297     -188.074        2.856      144.736       97.472       59.644    20948.521     9500.867     3557.412        6.097        1.700      296.562       64.864        0.048      337.294        9.168      855.957
05/23/2013  08:35:00     -380.019     -271.136      -10.426      237.420      169.478       83.092    56368.292    28722.629     6904.260       15.500        4.600      466.829      107.031        0.053      337.265        9.119      855.947
05/23/2013  08:36:00     -391.542     -250.192      -12.219      205.843      182.244       90.130    42371.532    33213.054     8123.413       14.986        4.185      464.652      101.597        0.048      337.138        8.906      855.949
05/23/2013  08:37:00     -416.828      -31.351      -24.498      150.428      142.050       71.213    22628.690    20178.216     5071.278       11.159        2.394      418.005       76.993        0.034      337.096        8.836      855.959
05/23/2013  08:38:00     -115.945       12.455       15.703      139.573       83.979       65.814    19480.704     7052.538     4331.523        2.235        1.543      116.612       77.836        0.446      337.745        9.926      855.962
05/23/2013  08:39:00     -193.194      -42.976        3.936      132.229      106.930       63.436    17484.562    11433.997     4024.068        3.606        1.647      197.916       66.604        0.113      337.561        9.616      855.975
05/23/2013  08:40:00     -351.069     -146.925        7.647      175.402      158.728       76.370    30765.932    25194.469     5832.328       10.333        3.090      380.574       87.153        0.052      337.374        9.302      855.983
05/23/2013  08:41:00     -277.615      -88.186       -1.026      221.719      183.376       70.861    49159.394    33626.726     5021.334        8.631        4.390      291.285       99.222        0.116      337.409        9.362      855.976
05/23/2013  08:42:00     -188.947      -99.960        0.036      128.228       93.921       56.119    16442.497     8821.078     3149.367        3.705        1.421      213.759       52.537        0.060      337.392        9.333      856.012
05/23/2013  08:43:00     -262.325     -147.547       -1.973      134.664      108.203       68.099    18134.381    11707.790     4637.431        6.253        1.724      300.973       70.825        0.055      337.305        9.187      856.041
05/23/2013  08:44:00     -236.981      -53.819       -6.500      139.864      114.959       67.261    19562.014    13215.671     4523.989        4.819        1.865      243.016       80.542        0.110      337.326        9.221      856.026
05/23/2013  08:45:00     -101.333      -21.799        8.312      102.317       63.311       44.818    10468.820     4008.281     2008.677        1.365        0.824      103.651       32.124        0.096      337.502        9.520      855.999
05/23/2013  08:46:00     -112.586       76.755        3.958       73.189       98.732       55.311     5356.626     9747.965     3059.275        1.837        0.908      136.260       49.740        0.133      337.734        9.907      856.028
05/23/2013  08:47:00     -143.609      -88.762        0.117      108.938      119.125       49.126    11867.479    14190.772     2413.394        2.848        1.424      168.826       53.099        0.099      337.766        9.961      856.038
05/23/2013  08:48:00     -185.335      -16.251        3.853      164.814      100.689       64.170    27163.660    10138.361     4117.760        3.802        2.071      186.046       73.966        0.158      337.763        9.954      856.039
05/23/2013  08:49:00     -340.023      -24.539      -21.522      125.648      113.098       65.155    15787.444    12791.212     4245.228        7.475        1.641      340.907       49.837        0.021      337.359        9.277      856.029
05/23/2013  08:50:00     -311.533      -84.977      -14.844      181.949      100.086       65.666    33105.282    10017.295     4311.978        7.595        2.372      322.915       75.568        0.055      337.501        9.514      856.021
05/23/2013  08:51:00     -326.370     -171.296        0.719      159.778      137.130       69.048    25528.860    18804.501     4767.677        9.247        2.455      368.592       77.428        0.044      337.451        9.430      856.010
05/23/2013  08:52:00     -195.517     -102.783      -19.712      121.236      106.950       74.296    14698.173    11438.340     5519.836        4.041        1.583      220.887       78.344        0.126      337.670        9.798      856.016
05/23/2013  08:53:00     -230.892      -23.195       -7.010      151.289      114.017       63.536    22888.219    12999.942     4036.796        4.690        1.996      232.054       69.435        0.090      337.730        9.899      856.036
05/23/2013  08:54:00     -380.608       -3.749      -39.585      181.620      121.857       66.203    32985.982    14849.156     4382.883        9.932        2.611      380.626       70.662        0.034      337.489        9.493      856.012
05/23/2013  08:55:00     -261.975        1.780      -26.620      139.251      118.082       80.315    19390.922    13943.316     6450.555        5.456        1.989      261.981       67.878        0.067      337.506        9.522      856.013
05/23/2013  08:56:00     -221.772       -4.876       -3.963      155.244      110.857       61.830    24100.853    12289.383     3822.993        4.471        2.011      221.826       79.090        0.127      337.746        9.928      856.019
05/23/2013  08:57:00     -121.309       23.992        2.997       84.311      101.089       55.400     7108.324    10218.913     3069.208        1.784        1.020      123.658       54.501        0.194      337.987       10.331      856.009
05/23/2013  08:58:00      -91.620      -13.483       10.056      100.789       66.730       53.707    10158.340     4452.831     2884.392        1.308        0.875       92.607       56.146        0.368      338.089       10.503      855.973
05/23/2013  08:59:00     -285.643       43.412      -32.814      127.540       81.295       49.339    16266.343     6608.897     2434.330        5.493        1.265      288.923       46.092        0.025      337.689        9.829      855.955
05/23/2013  09:00:00     -481.671        6.098      -47.038      144.878      123.999       55.664    20989.564    15375.733     3098.464       13.685        1.973      481.709       52.707        0.012      337.425        9.389      855.957
05/23/2013  09:01:00     -337.645     -120.000      -12.354      175.879      128.710       79.690    30933.378    16566.217     6350.488        9.119        2.693      358.336       83.703        0.055      337.839       10.083      855.951
05/23/2013  09:02:00     -237.892      -59.668        2.401      136.434       96.785       70.710    18614.167     9367.400     4999.849        4.656        1.649      245.260       67.909        0.077      337.800       10.017      855.967
05/23/2013  09:03:00     -127.021      -24.599        7.740       81.155       97.445       47.060     6586.074     9495.524     2214.621        1.754        0.915      129.381       46.009        0.126      337.992       10.339      855.962
05/23/2013  09:04:00     -256.552       13.474      -13.291      131.779      125.525       56.920    17365.674    15756.496     3239.870        5.126        1.818      256.906       44.988        0.031      337.881       10.151      855.961
05/23/2013  09:05:00     -245.717      -63.368       -3.444      163.356      111.540       60.583    26685.248    12441.163     3670.356        5.359        2.140      253.757       70.742        0.078      338.191       10.672      855.987
05/23/2013  09:06:00     -240.586       37.438      -17.124      173.692      104.346       59.520    30168.792    10888.102     3542.573        5.208        2.230      243.482       52.695        0.047      338.163       10.625      856.006
05/23/2013  09:07:00     -292.254      -67.418       11.630      144.396      153.915       79.063    20850.328    23689.869     6250.982        7.043        2.540      299.929       82.869        0.076      337.810       10.032      856.022
05/23/2013  09:08:00     -281.865     -174.247        3.706      168.139      113.960       77.704    28270.707    12986.867     6037.985        7.855        2.365      331.376       73.017        0.049      337.339        9.243      856.080
05/23/2013  09:09:00     -321.614     -278.217        2.624      160.561      119.214       88.854    25779.838    14212.059     7894.974       11.436        2.394      425.253       88.348        0.043      337.286        9.154      856.044
05/23/2013  09:10:00     -290.182     -121.531      -13.605      105.542      106.536       53.433    11139.178    11350.012     2855.110        6.225        1.267      314.603       48.008        0.023      337.332        9.233      856.033
05/23/2013  09:11:00     -447.164       64.457      -41.353      143.321      103.903       62.341    20541.024    10795.834     3886.408       12.051        1.761      451.785       66.053        0.021      337.526        9.555      856.028
05/23/2013  09:12:00     -311.608       71.369      -31.539      115.643       95.198       50.773    13373.249     9062.651     2577.935        6.410        1.251      319.676       43.214        0.018      337.588        9.658      856.021
05/23/2013  09:13:00     -318.871       47.514      -21.386      149.555      103.196       66.475    22366.762    10649.372     4418.920        7.091        1.872      322.392       69.253        0.046      337.696        9.841      856.001
05/23/2013  09:14:00     -378.610      -53.426      -22.532      137.233      137.124       53.155    18833.005    18802.926     2825.466        9.358        2.023      382.361       34.562        0.008      337.696        9.841      856.020
05/23/2013  09:15:00     -296.994       44.865      -21.304      140.725       95.329       54.720    19803.660     9087.639     2994.323        6.127        1.594      300.364       61.429        0.042      337.669        9.796      856.053
05/23/2013  09:16:00     -446.219       73.278      -42.332      120.299      100.199       50.873    14471.779    10039.820     2588.097       11.668        1.355      452.196       44.182        0.010      337.315        9.202      856.035
05/23/2013  09:17:00     -391.403       27.388      -36.369      147.020      107.588       55.189    21614.779    11575.111     3045.849        9.574        1.812      392.360       57.413        0.021      337.589        9.661      856.052
05/23/2013  09:18:00     -330.664      -44.486      -15.829      162.024      106.054       55.001    26251.673    11247.511     3025.126        7.604        2.026      333.643       68.575        0.042      337.563        9.617      856.037
05/23/2013  09:19:00     -341.740     -113.642       -9.761      113.998       94.228       52.924    12995.465     8878.907     2800.929        7.723        1.234      360.140       51.078        0.020      337.599        9.679      856.058
05/23/2013  09:20:00     -171.873     -125.019       -0.228      112.964       87.760       53.186    12760.838     7701.819     2828.775        3.423        1.165      212.533       45.343        0.046      337.794       10.006      856.051
05/23/2013  09:21:00     -128.497     -166.163        7.666      123.011       90.365       61.422    15131.690     8165.852     3772.676        3.562        1.354      210.051       59.057        0.079      337.880       10.152      856.053
05/23/2013  09:22:00     -187.353     -162.746       11.026      136.255       72.300       48.572    18565.368     5227.262     2359.246        4.393        1.308      248.168       61.226        0.061      337.804       10.022      856.057
05/23/2013  09:23:00     -202.572     -128.839        7.345      121.466       90.215       58.794    14754.081     8138.766     3456.694        4.201        1.317      240.073       56.824        0.056      337.987       10.330      856.081
05/23/2013  09:24:00     -273.459     -205.797      -11.422      155.026      132.775       67.887    24033.193    17629.235     4608.645        8.176        2.314      342.245       57.001        0.028      337.727        9.894      856.097
05/23/2013  09:25:00     -326.248     -214.256       -4.531      179.455      142.386       78.707    32204.164    20273.654     6194.856       10.551        2.934      390.312       95.137        0.059      337.753        9.936      856.081
05/23/2013  09:26:00     -443.810     -305.429       -8.438      187.290      143.958       92.155    35077.589    20723.798     8492.506       17.730        3.215      538.752      105.416        0.038      337.544        9.587      856.127
05/23/2013  09:27:00     -310.915     -196.764       14.476      173.346      137.928       81.871    30048.720    19024.261     6702.786        9.567        2.789      367.945       93.338        0.064      337.683        9.821      856.137
05/23/2013  09:28:00     -348.577     -240.580        3.365      161.809      127.791       78.244    26182.218    16330.447     6122.187       11.401        2.432      423.538       80.700        0.036      337.557        9.607      856.131
05/23/2013  09:29:00     -267.534     -232.497       -8.511      145.234      120.153       74.756    21092.935    14436.667     5588.443        8.340        2.056      354.442       61.942        0.031      337.692        9.835      856.126
05/23/2013  09:30:00     -229.930     -103.959        7.802      170.678      103.108       75.651    29130.830    10631.161     5723.107        5.460        2.274      252.340       93.273        0.137      337.682        9.819      856.096
05/23/2013  09:31:00      -99.667     -112.114        6.850      110.121       77.349       47.550    12126.709     5982.811     2260.966        2.146        1.019      150.011       60.110        0.161      337.947       10.263      856.083
05/23/2013  09:32:00     -222.223     -172.950        5.732      124.027       91.350       65.512    15382.673     8344.894     4291.870        5.367        1.401      281.593       64.531        0.053      337.694        9.836      856.094
05/23/2013  09:33:00     -116.037     -132.503        9.996       94.400       71.485       43.796     8911.415     5110.145     1918.057        2.353        0.797      176.130       39.858        0.051      337.586        9.658      856.099
05/23/2013  09:34:00      -89.612      -66.380        3.152       61.670       49.550       32.388     3803.230     2455.238     1048.985        0.988        0.365      111.520       28.846        0.067      337.715        9.877      856.093
05/23/2013  09:35:00     -230.924      -99.398       -6.631      140.583       98.448       51.646    19763.466     9691.991     2667.291        4.768        1.606      251.408       68.720        0.075      337.877       10.147      856.099
05/23/2013  09:36:00     -243.381      -82.255        0.698      124.950      114.382       59.434    15612.455    13083.249     3532.425        4.911        1.611      256.905       68.939        0.072      337.921       10.219      856.110
05/23/2013  09:37:00     -113.285      -48.529        3.051       96.971       75.905       40.898     9403.421     5761.574     1672.641        1.601        0.842      123.242       43.635        0.125      337.899       10.185      856.141
05/23/2013  09:38:00      -16.734      -56.397       10.268       41.851       66.449       31.738     1751.507     4415.494     1007.301        0.537        0.359       58.827       25.032        0.181      338.144       10.595      856.139
05/23/2013  09:39:00     -112.368      -32.861        2.924      101.699       67.655       38.209    10342.712     4577.219     1459.958        1.504        0.819      117.075       33.033        0.080      338.230       10.740      856.150
05/23/2013  09:40:00     -441.450       10.413      -30.842      155.402      111.761       65.889    24149.776    12490.486     4341.313       11.845        2.049      441.573       69.057        0.024      337.944       10.256      856.145
05/23/2013  09:41:00     -403.066       56.216      -49.124      104.981      123.774       45.189    11021.071    15319.924     2042.009        9.820        1.419      406.967       34.213        0.007      337.727        9.894      856.136
05/23/2013  09:42:00     -280.740       11.260      -24.736      110.826       95.768       52.107    12282.308     9171.476     2715.155        5.186        1.208      280.965       44.087        0.025      337.670        9.798      856.120
05/23/2013  09:43:00     -416.026       20.567      -36.933      124.057      116.133       57.480    15390.209    13486.988     3303.992       10.352        1.609      416.534       64.336        0.024      337.786        9.991      856.100
05/23/2013  09:44:00     -266.619     -120.841       -1.251      163.623       90.598       57.217    26772.490     8207.984     3273.839        6.196        1.913      292.725       62.997        0.046      337.989       10.334      856.095
05/23/2013  09:45:00     -186.547      -12.136      -14.166       65.176      102.705       46.543     4247.885    10548.350     2166.272        2.605        0.848      186.942       43.584        0.054      338.282       10.826      856.071
05/23/2013  09:46:00        1.329       -5.984       16.720       90.041       54.433       49.856     8107.446     2962.919     2485.648        0.693        0.678        6.130       47.891       61.039      338.996       12.027      856.066
05/23/2013  09:47:00     -100.421      -38.152       25.715      221.253      135.703       63.306    48952.759    18415.175     4007.595        4.177        3.569      107.424       80.385        0.560      338.637       11.424      856.022
05/23/2013  09:48:00     -226.022      -99.711       -1.481      163.580      105.539       68.198    26758.436    11138.482     4650.972        5.178        2.127      247.039       78.493        0.101      338.663       11.464      856.042
05/23/2013  09:49:00     -186.622      -75.995        0.374      219.425      110.459       84.211    48147.166    12201.164     7091.453        5.401        3.372      201.502       92.676        0.212      338.669       11.475      856.083
05/23/2013  09:50:00     -320.498     -240.606      -14.496      224.155      198.047       98.092    50245.261    39222.615     9622.062       12.993        4.954      400.762      115.900        0.084      338.218       10.717      856.111
05/23/2013  09:51:00     -391.545     -247.565      -19.384      215.747      159.093       95.967    46546.910    25310.451     9209.697       14.800        4.053      463.245      102.074        0.049      338.024       10.391      856.116
05/23/2013  09:52:00     -374.177     -197.253       -0.670      203.553      181.898       93.932    41433.797    33086.829     8823.128       13.111        4.167      422.986      107.852        0.065      337.922       10.222      856.132
05/23/2013  09:53:00     -281.272     -221.063        7.209      185.587      167.851       92.074    34442.503    28173.824     8477.702        9.955        3.555      357.747      108.781        0.092      337.897       10.180      856.155
05/23/2013  09:54:00     -250.956     -225.146      -12.535       97.202       97.483       66.807     9448.280     9502.969     4463.169        6.862        1.171      337.149       56.476        0.028      337.667        9.793      856.133
05/23/2013  09:55:00     -237.973      -93.496      -11.677       83.270       71.837       52.282     6933.841     5160.486     2733.399        4.017        0.741      255.681       50.179        0.039      337.912       10.203      856.130
05/23/2013  09:56:00     -258.760      -79.862        0.752      143.908      115.560       59.227    20709.520    13354.109     3507.785        5.545        1.879      270.804       65.378        0.058      338.119       10.551      856.146
05/23/2013  09:57:00     -170.527     -154.051       -2.687      118.854       91.764       60.408    14126.327     8420.701     3649.138        3.950        1.310      229.807       45.712        0.040      338.016       10.380      856.134
05/23/2013  09:58:00     -294.450      -74.377      -38.064      174.921      105.780       63.164    30597.436    11189.413     3989.736        6.972        2.289      303.698       82.932        0.075      338.064       10.460      856.128
05/23/2013  09:59:00     -338.120      -96.502      -11.549      195.772      142.712       75.472    38326.627    20366.758     5696.091        9.407        3.219      351.622       84.581        0.058      338.130       10.569      856.098
05/23/2013  10:00:00     -330.149       -6.086      -29.174      125.374      103.068       53.058    15718.610    10623.096     2815.102        6.952        1.458      330.205       47.383        0.021      337.971       10.302      856.054
05/23/2013  10:01:00     -270.452      -23.681       -2.017      212.383      148.446       67.031    45106.686    22036.286     4493.148        7.266        3.582      271.487       67.698        0.062      338.625       11.403      856.074
05/23/2013  10:02:00     -290.347     -162.246      -10.534      175.027      157.497       74.662    30634.506    24805.372     5574.464        8.586        3.051      332.604       61.366        0.034      338.300       10.855      856.104
05/23/2013  10:03:00     -279.526     -159.191      -12.713      146.463       96.975       67.841    21451.416     9404.060     4602.429        6.954        1.773      321.677       65.878        0.042      338.535       11.248      856.120
05/23/2013  10:04:00     -363.591      -42.445      -15.920      147.468       93.731       79.218    21746.926     8785.537     6275.493        8.552        1.840      366.060       81.890        0.050      338.336       10.916      856.146
05/23/2013  10:05:00     -205.252      -36.833       -2.012      111.093      111.439       72.266    12341.585    12418.552     5222.420        3.673        1.499      208.531       63.088        0.092      338.546       11.269      856.164
05/23/2013  10:06:00     -217.430      -68.405       -5.092      160.148      112.061       62.795    25647.527    12557.689     3943.174        4.706        2.107      227.937       64.418        0.080      338.585       11.335      856.172
05/23/2013  10:07:00     -215.355     -131.218        5.626      166.601      125.143       73.444    27755.764    15660.678     5393.973        5.621        2.441      252.182       87.011        0.119      338.439       11.090      856.205
05/23/2013  10:08:00     -318.607     -237.127       -0.863      189.568      138.936       98.580    35935.992    19303.240     9718.037       11.134        3.248      397.165      112.214        0.080      338.079       10.484      856.180
05/23/2013  10:09:00     -245.886      -91.651      -19.587      123.881      104.131       48.325    15346.567    10843.303     2335.298        4.888        1.426      262.412       46.001        0.031      338.026       10.394      856.151
05/23/2013  10:10:00      -64.363      -38.816       11.748       54.102       70.577       37.278     2927.037     4981.151     1389.650        0.754        0.465       75.162       31.722        0.178      338.395       11.019      856.140
05/23/2013  10:11:00     -229.497     -111.633       29.094      176.445      109.510       81.948    31132.977    11992.412     6715.530        5.790        2.492      255.207       79.409        0.097      338.448       11.104      856.168
05/23/2013  10:12:00     -229.293     -107.203        9.647      116.576       94.835       63.890    13590.035     8993.654     4081.892        4.541        1.333      253.116       62.432        0.061      338.337       10.917      856.186
05/23/2013  10:13:00     -246.886      -91.753       -5.093       96.153       98.138       66.121     9245.465     9631.087     4371.938        4.632        1.162      263.385       61.881        0.055      338.051       10.437      856.199
05/23/2013  10:14:00     -170.383      -66.177        4.120      105.935       66.072       45.994    11222.152     4365.518     2115.456        2.556        0.885      182.783       50.834        0.077      338.172       10.640      856.197
05/23/2013  10:15:00     -244.301     -142.014       -9.786      162.083       99.060       67.977    26270.842     9812.797     4620.818        6.032        2.035      282.579       86.092        0.093      338.288       10.834      856.200
05/23/2013  10:16:00     -194.412     -168.100        5.158      179.337      153.146       81.616    32161.847    23453.570     6661.229        6.417        3.114      257.009       79.191        0.095      338.382       10.995      856.194
05/23/2013  10:17:00     -361.842     -284.960       14.143      192.348      171.100      102.418    36997.904    29275.252    10489.440       14.453        3.838      460.578      106.556        0.054      338.177       10.650      856.191
05/23/2013  10:18:00     -280.308     -254.737       11.036      197.214      138.420       96.399    38893.173    19160.194     9292.791       10.545        3.367      378.766      106.870        0.080      338.394       11.013      856.194
05/23/2013  10:19:00     -260.831     -122.455       -0.800      163.966      111.633       63.704    26884.831    12461.989     4058.183        6.321        2.170      288.146       66.983        0.054      338.328       10.903      856.238
05/23/2013  10:20:00     -304.853      -63.085       -8.727      100.404      112.113       61.704    10080.895    12569.430     3807.425        6.172        1.323      311.311       51.565        0.027      338.231       10.739      856.218
05/23/2013  10:21:00     -276.154      -89.399        0.906      195.003      109.672       77.391    38026.142    12027.875     5989.313        7.014        2.802      290.265       95.912        0.109      338.424       11.065      856.193
05/23/2013  10:22:00     -287.814      -59.008       -8.996      142.813      116.506       66.520    20395.472    13573.659     4424.867        6.239        1.920      293.801       55.072        0.035      338.658       11.458      856.169
05/23/2013  10:23:00     -196.300      -59.613        6.456      139.196      125.310       70.094    19375.559    15702.479     4913.229        4.105        2.000      205.153       73.286        0.128      338.642       11.430      856.229
05/23/2013  10:24:00     -177.903     -117.649       -0.813      113.232      103.149       47.710    12821.403    10639.659     2276.251        3.561        1.287      213.286       52.950        0.062      338.496       11.186      856.232
05/23/2013  10:25:00     -308.899     -118.301      -47.047      103.789       84.062       54.231    10772.080     7066.495     2941.023        6.620        1.039      330.778       32.545        0.010      338.200       10.687      856.225
05/23/2013  10:26:00     -248.087     -165.926       -1.473      151.903      103.389       64.873    23074.567    10689.329     4208.547        6.352        1.899      298.461       70.846        0.056      338.453       11.113      856.202
05/23/2013  10:27:00     -350.582     -103.279        0.707      226.486      148.272       73.798    51295.693    21984.707     5446.153       10.613        3.936      365.478      103.051        0.080      338.448       11.103      856.190
05/23/2013  10:28:00     -233.794     -207.329        9.473      157.232      140.402       78.159    24721.840    19712.666     6108.764        7.413        2.527      312.482       86.530        0.077      338.354       10.945      856.196
05/23/2013  10:29:00     -268.434     -182.156        8.625      214.677      159.836       88.718    46086.397    25547.583     7870.954        9.239        3.975      324.404       99.821        0.095      338.542       11.260      856.189
05/23/2013  10:30:00     -283.621     -187.146       -6.374      166.666      121.920       82.005    27777.616    14864.541     6724.877        8.243        2.468      339.801       92.894        0.075      338.389       11.005      856.213
05/23/2013  10:31:00     -125.348     -194.566        3.631      131.782      113.504       69.998    17366.458    12883.145     4899.697        4.436        1.757      231.448       74.659        0.104      338.416       11.051      856.220
05/23/2013  10:32:00      -90.091     -104.059       29.183      108.259       67.633       48.256    11720.093     4574.282     2328.636        1.921        0.931      137.640       54.270        0.155      338.735       11.588      856.211
05/23/2013  10:33:00     -103.161     -150.263      -11.762       65.938       77.851       44.069     4347.826     6060.747     1942.113        2.285        0.618      182.267       32.320        0.031      338.465       11.133      856.156
05/23/2013  10:34:00     -175.126      -65.870        9.486      142.633       82.829       65.574    20344.176     6860.707     4299.956        3.329        1.575      187.104       65.418        0.122      338.763       11.636      856.139
05/23/2013  10:35:00     -349.349     -130.960      -12.039      156.618      121.885       78.970    24529.114    14855.849     6236.288        9.247        2.281      373.089       64.057        0.029      338.502       11.193      856.150
05/23/2013  10:36:00     -435.962     -358.536      -19.610      186.861      150.424       84.002    34917.104    22627.422     7056.385       19.179        3.230      564.456       98.644        0.031      338.117       10.547      856.181
05/23/2013  10:37:00     -285.393     -189.949      -12.541      148.141      124.939       71.491    21945.722    15609.777     5111.019        8.017        2.133      342.827       67.176        0.038      338.291       10.840      856.187
05/23/2013  10:38:00     -245.104     -119.613        8.092      151.866       77.847       54.697    23063.329     6060.109     2991.776        5.328        1.606      272.733       67.308        0.061      338.432       11.077      856.197
05/23/2013  10:39:00     -186.260     -114.266        3.943      130.214      110.161       61.841    16955.739    12135.452     3824.258        4.033        1.646      218.517       68.566        0.098      338.541       11.260      856.196
05/23/2013  10:40:00     -190.749      -59.079      -12.620      139.929       81.086       53.153    19580.171     6574.924     2825.252        3.450        1.449      199.689       59.157        0.088      338.378       10.987      856.203
05/23/2013  10:41:00     -137.618      -29.711       -1.202      153.288       78.067       45.848    23497.167     6094.420     2102.009        2.575        1.585      140.788       41.141        0.085      338.594       11.351      856.171
05/23/2013  10:42:00     -292.961     -178.845       -8.881      144.473      119.280       64.332    20872.559    14227.759     4138.653        7.856        1.962      343.237       57.390        0.028      338.436       11.082      856.150
05/23/2013  10:43:00     -249.607     -193.625       -9.507      137.544       98.574       69.374    18918.430     9716.754     4812.778        6.666        1.672      315.902       76.050        0.058      338.403       11.028      856.168
05/23/2013  10:44:00      -46.220      -66.677        7.196       80.468       43.188       39.330     6475.144     1865.215     1546.831        0.826        0.494       81.130       36.355        0.201      338.342       10.928      856.174
05/23/2013  10:45:00     -125.550      -59.737       -4.912       64.449       70.069       33.535     4153.628     4909.626     1124.580        1.477        0.509      139.037       38.996        0.079      338.235       10.748      856.151
05/23/2013  10:46:00     -126.317      -93.611       -2.080       69.763       56.473       36.671     4866.924     3189.184     1344.739        1.706        0.470      157.223       33.548        0.046      338.360       10.957      856.142
05/23/2013  10:47:00     -144.744      -71.882        5.668       51.011       45.379       32.259     2602.135     2059.219     1040.652        1.592        0.285      161.610       28.245        0.031      338.256       10.783      856.146
05/23/2013  10:48:00      -99.313      -51.191       -9.899       33.617       32.298       18.438     1130.082     1043.172      339.953        0.755        0.126      111.730       12.939        0.013      338.174       10.647      856.173
05/23/2013  10:49:00      -27.843     -154.544        1.021       49.732       83.795       27.827     2473.315     7021.618      774.334        1.746        0.513      157.033       32.009        0.042      338.504       11.200      856.195
05/23/2013  10:50:00     -126.033      -94.007       -6.899       97.298       57.730       37.791     9466.935     3332.775     1428.152        1.950        0.711      157.231       34.409        0.048      338.516       11.220      856.222
05/23/2013  10:51:00     -111.577     -137.311       -9.277       91.064       91.081       41.214     8292.663     8295.775     1698.584        2.483        0.914      176.928       44.450        0.063      338.577       11.322      856.206
05/23/2013  10:52:00     -299.406     -148.707       -8.585      154.299      116.625       64.427    23808.264    13601.279     4150.812        7.669        2.078      334.302       64.381        0.037      338.591       11.343      856.227
05/23/2013  10:53:00     -159.777      -40.901       15.114      136.837       75.493       57.747    18724.292     5699.230     3334.713        2.759        1.388      164.929       66.288        0.162      338.816       11.725      856.266
05/23/2013  10:54:00     -275.577     -186.455       -6.098      121.685      119.661       70.365    14807.245    14318.783     4951.174        7.240        1.704      332.728       72.492        0.047      338.504       11.196      856.257
05/23/2013  10:55:00     -148.429      -62.436       -3.136      125.216       65.688       39.200    15678.935     4314.910     1536.606        2.373        1.077      161.026       48.441        0.090      338.537       11.255      856.251
05/23/2013  10:56:00      -85.136      -33.765       -0.619       64.845       71.624       39.581     4204.864     5130.026     1566.636        0.964        0.545       91.588       34.418        0.141      338.874       11.823      856.231
05/23/2013  10:57:00     -239.182        9.290      -10.603      119.846       80.307       55.365    14363.023     6449.171     3065.298        4.064        1.194      239.362       48.012        0.040      338.911       11.883      856.232
05/23/2013  10:58:00     -453.988      -16.382      -39.828      147.399      118.736       55.479    21726.452    14098.134     3077.886       12.342        1.945      454.283       67.426        0.022      338.473       11.144      856.217
05/23/2013  10:59:00     -123.465      -10.311       11.105      118.810       91.545       47.472    14115.817     8380.417     2253.631        2.011        1.237      123.895       43.609        0.124      339.013       12.055      856.233
05/23/2013  11:00:00     -274.293     -127.400      -10.468      139.053      123.027       64.465    19335.810    15135.572     4155.781        6.509        1.931      302.436       56.346        0.035      338.910       11.879      856.210
05/23/2013  11:01:00     -332.200     -120.733       -9.685      161.110      101.360       65.184    25956.520    10273.893     4248.971        8.274        2.024      353.459       72.852        0.042      338.475       11.150      856.241
05/23/2013  11:02:00     -231.790      -99.434        8.918       83.937       77.523       47.015     7045.463     6009.878     2210.372        3.948        0.763      252.218       46.861        0.035      338.591       11.342      856.243
05/23/2013  11:03:00     -183.589      -99.704       -3.175       94.126       83.547       43.273     8859.646     6980.026     1872.525        3.068        0.886      208.916       52.409        0.063      338.518       11.222      856.262
05/23/2013  11:04:00     -117.309        3.053      -13.193       33.014       33.904       21.410     1089.937     1149.470      458.403        0.832        0.135      117.348       10.893        0.009      338.288       10.838      856.247
05/23/2013  11:05:00      -27.882      -26.841      -20.477       36.190       46.593       19.888     1309.740     2170.933      395.545        0.290        0.194       38.702       23.651        0.373      338.647       11.441      856.225
05/23/2013  11:06:00      -59.331      -55.958       -3.710       37.136       38.295       31.808     1379.107     1466.520     1011.719        0.526        0.193       81.556       24.393        0.089      338.640       11.428      856.205
05/23/2013  11:07:00      -34.748      -10.503       42.100       65.235       93.876       53.516     4255.630     8812.734     2863.915        0.951        0.797       36.301       44.193        1.482      339.484       12.849      856.183
05/23/2013  11:08:00     -134.073     -102.693        7.718       91.516       96.886       49.303     8375.100     9386.912     2430.775        2.438        1.010      168.883       41.275        0.060      339.261       12.470      856.205
05/23/2013  11:09:00      -29.921     -287.369        1.036       83.116      102.151       35.292     6908.303    10434.841     1245.490        5.103        0.929      288.922       31.377        0.012      338.527       11.237      856.228
05/23/2013  11:10:00       54.075       -6.342        0.979       53.651      101.782       47.430     2878.438    10359.605     2249.641        0.922        0.774       54.446       31.953        0.344      338.782       11.668      856.218
05/23/2013  11:11:00      179.307      119.875       48.665       78.765       78.363       47.938     6203.908     6140.781     2298.009        3.176        0.732      215.687       35.935        0.028      338.653       11.449      856.157
05/23/2013  11:12:00       59.259       -8.689       60.865       51.813       94.557       63.909     2684.586     8940.989     4084.414        1.150        0.785       59.892       71.289        1.417      339.128       12.249      856.184
05/23/2013  11:13:00      -22.596      -12.089       52.329       51.964       69.811       43.975     2700.283     4873.537     1933.836        0.645        0.475       25.626       41.096        2.572      339.848       13.461      856.219
05/23/2013  11:14:00      -94.751      -87.369       10.570       82.103       85.929       53.605     6740.838     7383.869     2873.451        1.686        0.850      128.884       38.092        0.087      339.377       12.669      856.235
05/23/2013  11:15:00     -112.850      -50.474        2.325       82.470       94.956       56.001     6801.264     9016.717     3136.096        1.712        0.948      123.623       49.909        0.163      338.936       11.926      856.226
05/23/2013  11:16:00      -75.571     -233.199      -20.818       68.435      101.744       58.502     4683.410    10351.816     3422.484        3.949        0.923      245.138       34.027        0.019      338.883       11.834      856.225
05/23/2013  11:17:00     -136.226      -49.244        5.962       89.848       55.725       52.650     8072.594     3105.264     2772.070        1.748        0.697      144.853       34.982        0.058      339.576       13.003      856.205
05/23/2013  11:18:00     -108.848      -70.989       11.930      106.884       72.877       41.839    11424.180     5311.094     1750.470        1.775        0.924      129.952       41.871        0.104      339.604       13.050      856.205
05/23/2013  11:19:00      -83.389        0.991       23.888       85.844       70.323       46.247     7369.148     4945.337     2138.752        1.099        0.723       83.395       37.208        0.199      339.617       13.073      856.188
05/23/2013  11:20:00     -271.900     -155.158        9.786      139.810       97.847       59.776    19546.895     9573.969     3573.121        6.539        1.635      313.056       52.462        0.028      339.481       12.840      856.221
05/23/2013  11:21:00     -248.259     -178.660        0.346      176.506      121.610       74.788    31154.484    14789.088     5593.200        7.253        2.577      305.863       68.805        0.051      339.036       12.091      856.207
05/23/2013  11:22:00     -223.129     -282.145       -4.011      173.733      148.518       80.575    30183.112    22057.561     6492.318        9.406        2.937      359.711       80.824        0.050      339.274       12.491      856.167
05/23/2013  11:23:00     -279.135     -156.013       12.259      231.978      187.935       92.533    53813.873    35319.451     8562.443       10.003        4.885      319.776       91.691        0.082      339.541       12.943      856.172
05/23/2013  11:24:00      -83.095     -113.100       41.156      183.879      124.164       87.992    33811.368    15416.613     7742.622        3.917        2.849      140.344      101.996        0.528      339.821       13.415      856.238
05/23/2013  11:25:00     -450.725     -114.144      -16.328      147.593      179.787       76.157    21783.834    32323.413     5799.898       13.817        2.995      464.953       64.773        0.019      338.980       11.998      856.275
05/23/2013  11:26:00     -443.040     -108.183      -13.190      218.263      141.470       88.256    47638.944    20013.830     7789.053       14.179        3.772      456.057       97.984        0.046      338.878       11.828      856.296
05/23/2013  11:27:00     -178.647      -78.930       -1.467      195.247      123.361       63.156    38121.256    15217.829     3988.705        4.773        2.866      195.306       61.342        0.099      338.905       11.872      856.323
05/23/2013  11:28:00      -87.911       22.860       20.164       60.657       50.734       44.857     3679.283     2573.954     2012.167        0.846        0.413       90.834       36.632        0.163      339.375       12.666      856.312
05/23/2013  11:29:00      -12.656       97.085        8.818       59.038       93.227       49.563     3485.522     8691.356     2456.444        1.215        0.732       97.906       41.170        0.177      339.307       12.550      856.277
05/23/2013  11:30:00      -55.104      155.318        6.935       72.584       92.894       48.861     5268.491     8629.332     2387.349        2.174        0.814      164.803       48.122        0.085      339.335       12.598      856.247
05/23/2013  11:31:00      -48.997      109.426       18.964       62.948       96.927       51.219     3962.469     9394.938     2623.430        1.535        0.799      119.895       58.360        0.237      339.725       13.255      856.251
05/23/2013  11:32:00      -75.798      -53.367        8.586       83.221       90.620       38.907     6925.742     8212.024     1513.731        1.266        0.833       92.701       36.942        0.159      339.335       12.597      856.252
05/23/2013  11:33:00      -86.965      -72.865       13.412       72.675       68.349       37.973     5281.617     4671.572     1441.918        1.222        0.570      113.456       39.862        0.123      339.195       12.362      856.233
05/23/2013  11:34:00     -164.547     -136.217        2.197      123.119       63.341       54.165    15158.397     4012.093     2933.886        3.387        1.105      213.614       40.282        0.036      338.947       11.942      856.241
05/23/2013  11:35:00     -160.976     -123.073       22.694      210.508      126.833      103.929    44313.441    16086.600    10801.266        5.637        3.560      202.634      119.813        0.350      339.363       12.645      856.211
05/23/2013  11:36:00     -220.007     -100.694        7.555      157.825      134.440       80.560    24908.886    18074.088     6489.844        5.403        2.474      241.955       82.603        0.117      339.720       13.245      856.210
05/23/2013  11:37:00     -438.019      -53.173      -14.477      189.095      142.386       82.212    35756.848    20273.800     6758.837       12.883        3.139      441.235      100.067        0.051      339.296       12.528      856.259
05/23/2013  11:38:00     -293.422     -151.324       -8.045      119.352      114.887       56.653    14244.977    13198.937     3209.569        6.985        1.533      330.145       46.008        0.019      339.165       12.309      856.290
05/23/2013  11:39:00     -188.268      -67.218       -4.729      100.799       73.524       49.130    10160.480     5405.803     2413.711        2.898        0.899      199.908       47.421        0.056      339.183       12.341      856.291
05/23/2013  11:40:00     -234.443     -128.038      -12.067      173.475      132.526       67.944    30093.560    17563.213     4616.416        6.188        2.614      267.127       71.480        0.072      339.202       12.372      856.290
05/23/2013  11:41:00     -400.820      -79.662      -16.650      211.710      110.825       72.839    44820.999    12282.226     5305.541       11.483        3.120      408.659       97.797        0.057      339.103       12.205      856.322
05/23/2013  11:42:00     -395.119      -72.558      -36.892      125.617      100.075       57.389    15779.672    10015.086     3293.467        9.591        1.454      401.726       49.219        0.015      338.992       12.018      856.347
05/23/2013  11:43:00     -214.347      -67.391       -7.534      155.412      116.272       71.090    24152.792    13519.133     5053.794        4.663        2.136      224.691       84.394        0.141      339.309       12.551      856.338
05/23/2013  11:44:00     -331.748      104.681      -35.832      102.315       69.928       52.514    10468.261     4889.940     2757.744        7.020        0.906      347.872       47.534        0.019      338.765       11.636      856.355
05/23/2013  11:45:00     -306.888      -31.286      -26.729      154.576      112.537       56.649    23893.608    12664.527     3209.164        6.781        1.988      308.479       73.422        0.057      338.870       11.812      856.357
05/23/2013  11:46:00     -196.608      -11.888       -7.811      166.603      114.011       62.607    27756.496    12998.536     3919.692        4.176        2.234      196.968       81.686        0.172      339.055       12.126      856.355
05/23/2013  11:47:00     -235.054       77.194      -10.814      114.680      119.198       58.414    13151.470    14208.078     3412.187        4.604        1.539      247.405       50.284        0.041      339.074       12.157      856.347
05/23/2013  11:48:00     -228.654      -72.557        1.353      136.322       71.364       48.949    18583.697     5092.880     2396.053        4.181        1.304      239.890       61.369        0.065      339.094       12.190      856.351
05/23/2013  11:49:00     -419.849      -18.106      -38.420       75.464      147.386       52.024     5694.816    21722.586     2706.542       10.409        1.506      420.239       34.559        0.007      338.670       11.476      856.357
05/23/2013  11:50:00     -302.490     -127.500      -27.481      133.033       95.646       51.152    17697.700     9148.071     2616.561        6.898        1.473      328.263       54.647        0.028      338.793       11.683      856.351
05/23/2013  11:51:00     -364.429      -57.267       -7.185      196.474      136.154       74.615    38601.909    18537.909     5567.402        9.941        3.135      368.901       94.977        0.066      339.046       12.109      856.351
05/23/2013  11:52:00     -217.230     -110.894      -16.164      132.325      107.729       60.585    17510.024    11605.521     3670.518        4.626        1.639      243.898       68.392        0.079      339.184       12.342      856.386
05/23/2013  11:53:00     -366.299      -89.637      -19.076      135.791      104.056       65.984    18439.324    10827.733     4353.842        8.809        1.681      377.107       59.030        0.025      338.861       11.797      856.389
05/23/2013  11:54:00     -355.853     -119.691      -16.353      133.538      151.393       63.557    17832.391    22919.885     4039.519        9.300        2.240      375.443       63.077        0.028      338.889       11.843      856.371
05/23/2013  11:55:00     -292.309     -155.670       -7.989      163.934      131.346       73.294    26874.224    17251.709     5372.020        7.961        2.475      331.176       80.565        0.059      338.929       11.910      856.400
05/23/2013  11:56:00     -277.180     -133.637      -12.851      107.297      114.059       66.752    11512.641    13009.550     4455.806        6.191        1.449      307.713       60.461        0.039      338.747       11.605      856.448
05/23/2013  11:57:00     -276.912      -74.954      -32.773      100.334       76.997       39.520    10066.937     5928.537     1561.837        5.046        0.878      286.877       33.132        0.013      338.573       11.313      856.429
05/23/2013  11:58:00     -138.151     -128.317      -21.960      125.187       52.513       45.458    15671.705     2757.592     2066.472        2.826        1.025      188.550       37.383        0.039      338.682       11.497      856.404
05/23/2013  11:59:00      -46.743      -60.785       -3.782       52.021       79.505       22.849     2706.206     6321.103      522.061        0.772        0.477       76.680       27.261        0.126      339.135       12.261      856.370
05/23/2013  12:00:00     -176.825      -95.988       -7.277      111.616      104.981       40.286    12458.034    11021.035     1622.998        3.281        1.255      201.199       42.319        0.044      339.212       12.388      856.367
05/23/2013  12:01:00      -59.997      -44.931       10.834       81.041       56.672       30.595     6567.587     3211.668      936.069        0.822        0.536       74.956       27.739        0.137      339.272       12.494      856.364
05/23/2013  12:02:00      -64.883     -123.563       -4.995       73.932       64.085       36.947     5466.006     4106.877     1365.072        1.522        0.547      139.562       40.882        0.086      338.831       11.749      856.364
05/23/2013  12:03:00     -167.358     -170.098      -13.558      121.219      112.896       56.495    14693.967    12745.439     3191.632        4.387        1.532      238.625       60.922        0.065      338.805       11.704      856.375
05/23/2013  12:04:00     -314.479     -120.544       -3.873      183.367       89.534       57.534    33623.626     8016.423     3310.147        7.919        2.248      336.791       65.676        0.038      338.902       11.866      856.368
05/23/2013  12:05:00     -205.967      -90.801        0.446      118.741      103.052       60.209    14099.327    10619.754     3625.142        3.950        1.417      225.094       61.976        0.076      339.186       12.344      856.362
05/23/2013  12:06:00     -273.916      -53.356       -5.111      129.897      147.639       59.266    16873.147    21797.263     3512.416        6.003        2.109      279.065       54.743        0.038      339.392       12.693      856.381
05/23/2013  12:07:00     -236.967      -92.609        1.445      158.388      116.542       68.324    25086.630    13581.981     4668.194        5.403        2.167      254.420       80.592        0.100      339.165       12.308      856.408
05/23/2013  12:08:00     -107.611       -5.971        4.479       84.037      112.965       42.719     7062.136    12761.014     1824.901        1.664        1.082      107.777       37.652        0.122      339.352       12.626      856.395
05/23/2013  12:09:00     -220.865       -0.812      -22.316       80.995       90.326       45.550     6560.171     8158.717     2074.759        3.303        0.840      220.866       40.098        0.033      339.155       12.291      856.344
05/23/2013  12:10:00     -113.657      -65.359       13.366      102.201       81.235       50.824    10445.079     6599.135     2583.043        1.849        0.981      131.110       49.445        0.142      339.701       13.213      856.328
05/23/2013  12:11:00     -281.202      -99.667        5.675      130.274      110.662       68.974    16971.338    12246.041     4757.365        6.150        1.699      298.342       61.340        0.042      339.566       12.984      856.328
05/23/2013  12:12:00     -370.474     -164.683      -12.478      159.894      125.549       59.622    25565.976    15762.481     3554.761       10.470        2.244      405.428       52.909        0.017      339.159       12.299      856.356
05/23/2013  12:13:00     -185.004        6.615       -6.929       88.126      113.496       45.792     7766.225    12881.315     2096.893        2.853        1.137      185.123       40.188        0.047      339.179       12.332      856.367
05/23/2013  12:14:00     -183.029     -215.379        1.146      128.016      131.424       75.086    16388.074    17272.208     5637.861        5.959        1.965      282.644       65.587        0.054      339.300       12.536      856.376
05/23/2013  12:15:00      -50.405     -114.511       -3.386      102.538       65.210       33.576    10513.948     4252.351     1127.361        1.578        0.795      125.113       41.429        0.110      339.056       12.127      856.370
05/23/2013  12:16:00     -126.305       18.327       -7.275       96.736       68.104       37.129     9357.925     4638.145     1378.528        1.586        0.769      127.628       27.090        0.045      339.185       12.344      856.344
05/23/2013  12:17:00      -70.265      -40.577       -5.161       69.925       53.962       35.900     4889.464     2911.847     1288.797        0.785        0.455       81.139       29.330        0.131      339.640       13.111      856.328
05/23/2013  12:18:00     -111.133      -41.500        6.834       76.210       47.102       37.699     5807.961     2218.582     1421.184        1.178        0.472      118.628       45.302        0.146      339.562       12.980      856.333
05/23/2013  12:19:00     -114.998     -188.248       11.865      120.850      128.921       50.926    14604.756    16620.639     2593.508        4.130        1.691      220.594       67.191        0.093      339.273       12.493      856.363
05/23/2013  12:20:00      -90.720     -159.997        8.696       95.152      103.964       52.644     9053.859    10808.449     2771.436        2.826        1.132      183.927       54.998        0.089      339.121       12.236      856.378
05/23/2013  12:21:00     -163.039     -173.576       10.878      123.726       75.195       57.171    15308.043     5654.350     3268.481        4.052        1.212      238.139       53.865        0.051      339.199       12.367      856.379
05/23/2013  12:22:00     -271.920     -185.916        8.887      168.880      144.113       87.433    28520.493    20768.509     7644.543        8.275        2.847      329.401       88.544        0.072      339.408       12.717      856.371
05/23/2013  12:23:00     -148.238       20.862      -15.156      132.296      124.500       48.039    17502.323    15500.272     2307.758        2.897        1.766      149.699       49.990        0.112      339.653       13.133      856.378
05/23/2013  12:24:00     -267.289      -20.083      -11.403      146.402       80.361       58.384    21433.672     6457.881     3408.707        5.163        1.565      268.042       67.778        0.064      339.586       13.019      856.396
05/23/2013  12:25:00     -266.243       15.431       -3.055      146.719      117.566       55.301    21526.509    13821.708     3058.208        5.476        1.920      266.690       69.029        0.067      339.585       13.016      856.448
05/23/2013  12:26:00     -309.661      -28.472      -21.986      106.989       90.335       61.737    11446.623     8160.368     3811.421        6.030        1.171      310.967       57.236        0.034      339.197       12.363      856.436
05/23/2013  12:27:00     -202.109      136.245      -36.023      115.418      154.778       54.094    13321.299    23956.261     2926.174        5.045        2.010      243.743       57.313        0.055      339.317       12.565      856.435
05/23/2013  12:28:00     -362.929     -111.369      -12.803      189.612      111.080       90.953    35952.734    12338.715     8272.442       10.041        2.828      379.632       82.193        0.047      339.553       12.963      856.415
05/23/2013  12:29:00     -320.644      -18.138      -16.970      235.768      118.836      102.593    55586.332    14122.091    10525.342        9.182        4.012      321.157      128.912        0.161      339.747       13.289      856.483
05/23/2013  12:30:00     -278.374      -34.690      -17.726      142.753       89.501       47.031    20378.484     8010.426     2211.888        5.480        1.530      280.527       29.207        0.011      339.329       12.585      856.505
05/23/2013  12:31:00     -127.525       22.764      -26.098      161.182      101.008       38.310    25979.614    10202.586     1467.638        2.755        1.882      129.541       42.480        0.108      339.367       12.651      856.468
05/23/2013  12:32:00     -149.404      277.226      -39.762      139.453      138.633       59.943    19447.037    19219.026     3593.193        7.150        2.113      314.922       80.615        0.066      339.514       12.897      856.461
05/23/2013  12:33:00     -234.555      268.029      -49.042      110.369      117.961       64.878    12181.231    13914.852     4209.125        7.978        1.515      356.168       68.076        0.037      339.316       12.563      856.470
05/23/2013  12:34:00     -108.330      197.597        7.532       72.621      161.614       62.315     5273.803    26119.049     3883.112        4.305        1.764      225.344       62.083        0.076      339.883       13.521      856.449
05/23/2013  12:35:00     -136.278       48.970      -15.605       88.389      102.372       56.648     7812.567    10479.925     3209.000        2.135        1.075      144.809       47.622        0.108      339.882       13.518      856.447
05/23/2013  12:36:00     -377.513        3.473      -46.531      146.263       94.063       66.092    21392.756     8847.791     4368.164        8.964        1.730      377.529       68.922        0.033      339.680       13.177      856.455
05/23/2013  12:37:00     -303.638     -132.767       -5.708       97.387      107.614       55.799     9484.310    11580.667     3113.510        6.701        1.209      331.396       46.167        0.019      339.203       12.373      856.453
05/23/2013  12:38:00     -252.000      -71.902      -15.863       96.517       69.072       53.951     9315.445     4770.989     2910.684        4.296        0.850      262.057       34.408        0.017      339.302       12.540      856.459
05/23/2013  12:39:00     -234.327      -28.353      -22.196       99.738       55.329       42.311     9947.582     3061.260     1790.199        3.550        0.740      236.037       54.132        0.053      339.285       12.511      856.417
05/23/2013  12:40:00     -250.278      -73.991      -17.573       96.081       67.925       43.569     9231.614     4613.855     1898.282        4.208        0.787      260.986       39.740        0.023      339.635       13.100      856.444
05/23/2013  12:41:00     -425.627      -24.413      -35.989      217.423      154.970       72.852    47272.977    24015.677     5307.439       12.981        3.830      426.327       90.446        0.045      339.697       13.205      856.482
05/23/2013  12:42:00     -277.371     -126.131        4.394      181.352      142.960       87.989    32888.531    20437.637     7742.048        7.695        3.053      304.703       90.823        0.089      339.906       13.556      856.519
05/23/2013  12:43:00     -236.562      -38.624        5.949      181.455      133.534       68.846    32926.093    17831.218     4739.826        5.648        2.775      239.694       84.460        0.124      340.046       13.794      856.577
05/23/2013  12:44:00     -286.190       83.998      -17.699      154.880      122.602       83.019    23987.857    15031.184     6892.100        6.758        2.296      298.262       83.794        0.079      339.861       13.481      856.569
05/23/2013  12:45:00     -196.861        0.166       -7.731      173.019      131.970       71.549    29935.722    17416.003     5119.305        4.563        2.624      196.861       99.760        0.257      340.086       13.863      856.586
05/23/2013  12:46:00     -326.685       -3.024      -19.109      167.989      217.525       90.403    28220.194    47317.208     8172.622        9.539        4.186      326.699       83.352        0.065      339.823       13.418      856.587
05/23/2013  12:47:00     -313.945      -51.552      -17.769      124.997      119.456       57.936    15624.373    14269.779     3356.558        6.739        1.663      318.150       49.555        0.024      339.573       12.996      856.590
05/23/2013  12:48:00     -180.108     -135.141       13.812      199.781      110.536       68.456    39912.607    12218.273     4686.287        5.384        2.841      225.171       81.995        0.133      340.240       14.122      856.639
05/23/2013  12:49:00     -303.856     -198.493        2.822      207.737      150.157       85.260    43154.711    22547.070     7269.205       10.234        3.649      362.943      101.226        0.078      339.702       13.214      856.674
05/23/2013  12:50:00     -235.934     -134.237        4.173      146.330      113.687       83.870    21412.367    12924.750     7034.126        5.753        2.069      271.449       68.486        0.064      339.895       13.537      856.662
05/23/2013  12:51:00     -171.803        1.366       15.209      140.334      124.575       67.544    19693.535    15519.007     4562.247        3.475        1.989      171.808       68.930        0.161      340.184       14.027      856.685
05/23/2013  12:52:00     -251.147      -93.990      -10.653      187.847      135.271       72.831    35286.427    18298.144     5304.419        6.544        2.944      268.159       75.788        0.080      339.750       13.296      856.695
05/23/2013  12:53:00     -237.807     -116.992       -8.479      113.464       89.148       62.187    12874.110     7947.318     3867.254        4.749        1.234      265.027       46.385        0.031      339.667       13.156      856.734
05/23/2013  12:54:00     -185.694       47.050       -5.032       84.518       86.414       53.515     7143.228     7467.458     2863.887        2.709        0.874      191.562       48.977        0.065      339.538       12.938      856.676
05/23/2013  12:55:00     -282.207     -102.656      -21.589       88.909      129.356       56.436     7904.828    16733.098     3184.998        5.923        1.391      300.299       49.506        0.027      339.568       12.986      856.673
05/23/2013  12:56:00     -338.440     -122.311      -13.138      164.503      143.428       65.426    27061.356    20571.528     4280.592        9.078        2.596      359.863       72.170        0.040      339.487       12.851      856.675
05/23/2013  12:57:00     -187.686       -2.026      -15.072       76.974       37.572       36.814     5924.988     1411.687     1355.295        2.207        0.435      187.697       31.122        0.027      339.233       12.424      856.662
05/23/2013  12:58:00     -160.436     -255.521        1.983      130.602      143.480       62.909    17056.955    20586.553     3957.496        6.631        2.080      301.713       61.591        0.042      339.508       12.886      856.658
05/23/2013  12:59:00     -260.632     -150.204       -8.540      207.096      129.571       78.871    42888.950    16788.545     6220.574        7.822        3.295      300.816      104.042        0.120      339.741       13.279      856.671
05/23/2013  13:00:00     -213.830     -211.893      -10.468      145.834      106.725       84.831    21267.512    11390.310     7196.215        6.528        1.993      301.035       76.995        0.065      339.345       12.612      856.734
05/23/2013  13:01:00     -140.470     -114.097       10.841      148.833      102.653       81.298    22151.252    10537.543     6609.415        3.607        1.965      180.969       94.473        0.273      339.520       12.906      856.675
05/23/2013  13:02:00     -254.659     -115.387       -1.352      126.325       88.515       52.344    15958.094     7834.869     2739.939        5.234        1.327      279.580       57.442        0.042      339.633       13.097      856.701
05/23/2013  13:03:00     -425.498      -85.659       -5.593      175.518      197.651      100.293    30806.631    39066.034    10058.609       13.416        3.997      434.035      104.420        0.058      339.614       13.065      856.750
05/23/2013  13:04:00     -390.867      -35.736      -18.583      191.681      151.947       74.576    36741.493    23087.921     5561.535       10.988        3.270      392.498       77.135        0.039      339.632       13.095      856.735
05/23/2013  13:05:00     -574.276     -165.528       -1.707      226.747      157.596       90.702    51414.206    24836.611     8226.845       22.082        4.224      597.656       92.386        0.024      339.536       12.932      856.759
05/23/2013  13:06:00     -217.863      -75.113       -3.538      185.057      107.855       88.900    34245.962    11632.708     7903.259        5.344        2.689      230.448       93.884        0.166      339.962       13.653      856.792
05/23/2013  13:07:00     -418.187      -36.227      -16.765      211.910      172.553       91.888    44905.652    29774.679     8443.486       12.978        4.156      419.753       92.948        0.049      339.749       13.293      856.807
05/23/2013  13:08:00     -439.381     -101.562      -48.467      161.848      146.410       82.679    26194.613    21435.880     6835.835       13.008        2.723      450.966       75.989        0.028      339.395       12.696      856.878
05/23/2013  13:09:00     -310.214      -60.664      -19.418      147.297      127.504       84.519    21696.521    16257.202     7143.382        7.268        2.255      316.090       69.454        0.048      339.496       12.866      856.875
05/23/2013  13:10:00     -242.222        3.300      -28.579      118.556       90.209       50.495    14055.596     8137.609     2549.744        4.212        1.237      242.245       47.645        0.039      339.401       12.706      856.884
05/23/2013  13:11:00     -292.256      -27.064      -24.120      114.981      110.053       59.511    13220.549    12111.697     3541.607        5.779        1.444      293.506       44.251        0.023      339.392       12.689      856.899
05/23/2013  13:12:00     -179.093       10.450      -23.103       67.434       45.903       31.608     4547.344     2107.059      999.069        2.018        0.383      179.398       30.727        0.029      339.362       12.641      856.888
05/23/2013  13:13:00      -93.191      -16.535       -7.821       48.496       45.160       27.232     2351.832     2039.410      741.576        0.707        0.257       94.646       24.942        0.069      339.411       12.726      856.864
05/23/2013  13:14:00      -58.303      -44.438       10.907       60.026       42.160       40.011     3603.166     1777.448     1600.841        0.624        0.349       73.307       32.979        0.202      339.710       13.230      856.842
05/23/2013  13:15:00      -44.587       10.269        8.400       47.293       50.094       24.509     2236.618     2509.453      600.709        0.375        0.267       45.754       21.737        0.226      339.726       13.257      856.842
05/23/2013  13:16:00      -77.439        3.166      -14.372       47.702       25.248       22.132     2275.444      637.439      489.821        0.481        0.170       77.504       13.899        0.032      339.273       12.493      856.830
05/23/2013  13:17:00      -25.766      -24.856        5.527       33.608       31.357       28.069     1129.483      983.270      787.872        0.211        0.145       35.801       25.727        0.516      339.563       12.983      856.811
05/23/2013  13:18:00      -28.886     -130.020        9.088       41.010       75.060       24.074     1681.785     5633.944      579.547        1.286        0.395      133.190       22.799        0.029      339.438       12.772      856.806
05/23/2013  13:19:00      -79.633      -43.644       14.895       98.973       45.132       36.267     9795.599     2036.936     1315.294        1.081        0.657       90.809       40.842        0.202      339.822       13.419      856.828
05/23/2013  13:20:00     -100.696      -47.108        1.299       88.955       40.698       23.992     7912.996     1656.346      575.637        1.125        0.507      111.170       29.862        0.072      339.715       13.237      856.841
05/23/2013  13:21:00      -94.148       -6.326       -6.791       46.686       44.013       32.642     2179.612     1937.171     1065.530        0.707        0.259       94.360       26.300        0.078      339.575       13.003      856.842
05/23/2013  13:22:00      -79.970      -20.121        5.692       45.753       61.262       35.693     2093.353     3753.086     1273.985        0.697        0.356       82.462       23.429        0.081      339.919       13.583      856.835
05/23/2013  13:23:00      -53.089      -47.431        5.873       70.735       34.192       31.975     5003.406     1169.093     1022.407        0.615        0.360       71.191       30.367        0.182      340.104       13.894      856.832
05/23/2013  13:24:00      -10.785      -71.377        2.480       43.784       58.880       32.777     1917.014     3466.893     1074.315        0.584        0.323       72.187        7.763        0.012      339.964       13.658      856.831
05/23/2013  13:25:00     -161.009      -66.489      -12.993       73.705       88.043       43.171     5432.459     7751.589     1863.701        2.278        0.752      174.197       35.206        0.041      339.889       13.529      856.856
05/23/2013  13:26:00     -189.614      -98.748      -12.658      112.625       85.036       47.521    12684.389     7231.192     2258.238        3.401        1.109      213.787       54.680        0.065      339.850       13.463      856.851
05/23/2013  13:27:00     -181.104     -123.217       -3.940      171.665      125.069       77.324    29468.959    15642.231     5979.037        4.953        2.555      219.046       94.218        0.185      340.100       13.886      856.871
05/23/2013  13:28:00     -295.056      -54.738      -33.658      148.331       85.729       56.189    22002.088     7349.547     3157.208        6.184        1.625      300.090       44.187        0.022      339.930       13.599      856.906
05/23/2013  13:29:00     -249.308      -45.279      -14.255      174.115      111.274       53.698    30316.106    12381.798     2883.525        5.499        2.279      253.386       62.246        0.060      339.917       13.578      856.926
05/23/2013  13:30:00     -288.837      105.427      -32.292      101.960       63.661       43.374    10395.863     4052.776     1881.327        5.595        0.816      307.476       30.870        0.010      339.409       12.718      856.916
05/23/2013  13:31:00     -224.034       15.993      -29.194       80.944       67.018       35.878     6551.925     4491.350     1287.237        3.181        0.617      224.604       38.598        0.030      339.531       12.926      856.868
05/23/2013  13:32:00     -313.769      -69.844      -29.802      125.798       84.540       52.672    15825.225     7147.094     2774.290        6.498        1.287      321.448       61.743        0.037      339.878       13.511      856.880
05/23/2013  13:33:00     -190.906       44.455      -19.623       95.632      126.806       60.111     9145.410    16079.750     3613.367        3.382        1.442      196.013       50.421        0.066      340.027       13.762      856.904
05/23/2013  13:34:00     -162.726       96.670      -10.837      123.974      104.823       72.237    15369.478    10987.794     5218.249        3.375        1.579      189.275       46.693        0.061      339.989       13.699      856.894
05/23/2013  13:35:00      -98.688      122.310      -22.777       86.934      158.185       60.243     7557.516    25022.437     3629.235        3.071        1.810      157.159       52.514        0.112      339.781       13.349      856.875
05/23/2013  13:36:00     -163.318      216.499      -17.235      149.079      129.002       83.099    22224.491    16641.594     6905.437        5.980        2.289      271.191       77.248        0.081      339.866       13.491      856.841
05/23/2013  13:37:00     -195.146      152.922      -35.485      132.648      153.360       59.707    17595.421    23519.177     3564.956        5.369        2.234      247.925       51.517        0.043      340.096       13.878      856.854
05/23/2013  13:38:00     -195.214       60.050      -11.413      101.360       68.002       62.313    10273.870     4624.205     3882.868        3.031        0.939      204.242       63.273        0.096      339.832       13.433      856.911
05/23/2013  13:39:00     -112.739       57.760        6.030       59.518       37.739       49.342     3542.414     1424.203     2434.660        1.174        0.370      126.674       44.728        0.125      340.299       14.224      856.865
05/23/2013  13:40:00      -86.352      -25.882       -3.809       71.005       75.327       43.518     5041.758     5674.177     1893.836        1.037        0.630       90.148       38.422        0.182      339.922       13.588      856.867
05/23/2013  13:41:00      -86.644       15.208       -2.353       47.592       62.982       33.888     2265.007     3966.739     1148.394        0.756        0.369       87.968       20.882        0.056      339.976       13.679      856.873
05/23/2013  13:42:00     -104.532     -100.883        6.727       97.438       82.804       46.048     9494.238     6856.420     2120.374        1.981        0.924      145.274       52.599        0.131      339.972       13.670      856.898
05/23/2013  13:43:00      -79.972     -119.742        4.030       88.919      144.013       39.406     7906.625    20739.805     1552.866        2.547        1.510      143.992       43.376        0.091      339.722       13.249      856.892
05/23/2013  13:44:00      -92.660     -147.228       18.248      120.149      127.981       50.408    14435.845    16379.162     2540.954        3.197        1.668      173.960       47.758        0.075      340.022       13.755      856.857
05/23/2013  13:45:00     -206.991      -73.542        6.337      180.035      125.780       80.344    32412.534    15820.687     6455.129        5.148        2.734      219.668       96.981        0.195      340.249       14.137      856.902
05/23/2013  13:46:00     -130.427     -133.431        4.059      108.552       78.392       49.933    11783.447     6145.343     2493.338        2.762        1.021      186.588       50.555        0.073      339.770       13.328      856.945
05/23/2013  13:47:00     -109.072      -19.725        9.054       89.553       73.499       43.914     8019.715     5402.135     1928.440        1.386        0.768      110.841       51.432        0.215      339.994       13.708      856.945
05/23/2013  13:48:00     -235.893       55.993      -17.188      124.790       75.062       40.650    15572.659     5634.372     1652.394        4.096        1.143      242.447       41.628        0.029      339.567       12.987      856.950
05/23/2013  13:49:00     -161.412        8.899      -18.088       60.472       72.608       34.442     3656.906     5271.904     1186.244        1.829        0.506      161.657       30.349        0.035      339.527       12.922      856.914
05/23/2013  13:50:00     -151.338      -25.981       -4.856       79.976       82.382       38.006     6396.179     6786.722     1444.481        1.911        0.731      153.552       36.005        0.055      339.519       12.906      856.909
05/23/2013  13:51:00     -139.254      -50.524      -11.411       80.265       87.574       38.575     6442.422     7669.281     1488.059        1.883        0.780      148.137       25.775        0.030      339.620       13.077      856.918
05/23/2013  13:52:00     -104.709      -57.153       15.305      135.482       80.518       41.536    18355.400     6483.170     1725.233        2.051        1.328      119.292       54.970        0.212      340.071       13.838      856.917
05/23/2013  13:53:00     -134.050       32.121       17.507      139.201       98.609       66.050    19377.011     9723.733     4362.637        2.638        1.673      137.845       71.461        0.269      339.887       13.529      856.929
05/23/2013  13:54:00     -217.097        1.562       -7.281       80.577       90.004       42.804     6492.641     8100.732     1832.196        3.180        0.821      217.102       39.304        0.033      339.551       12.959      856.927
05/23/2013  13:55:00     -160.543      -41.190       -8.646       49.094       33.441       26.783     2410.263     1118.293      717.311        1.589        0.212      165.743       16.009        0.009      339.430       12.757      856.923
05/23/2013  13:56:00     -137.328      -56.602      -12.173       26.668       23.965       15.400      711.200      574.299      237.175        1.187        0.076      148.536       11.849        0.006      339.327       12.583      856.918
05/23/2013  13:57:00      -50.710       -0.836        6.999       46.468       36.285       23.452     2159.273     1316.591      550.018        0.332        0.201       50.717       26.606        0.275      339.813       13.404      856.900
05/23/2013  13:58:00     -110.506     -106.677        6.840       84.238       53.430       49.329     7095.991     2854.716     2433.374        1.801        0.619      153.595       52.711        0.118      339.747       13.290      856.911
05/23/2013  13:59:00      -69.594       18.891       12.495      112.184       48.790       49.543    12585.186     2380.506     2454.483        1.138        0.871       72.112       61.162        0.719      339.835       13.441      856.921
05/23/2013  14:00:00     -121.263        2.462       -9.336       45.619       53.294       25.938     2081.060     2840.285      672.804        1.019        0.280      121.288       16.055        0.018      339.552       12.965      856.929
05/23/2013  14:01:00        3.128        3.428       21.392       44.352       40.947       34.019     1967.070     1676.640     1157.314        0.264        0.240        4.640       21.403       21.276      339.905       13.561      856.893
05/23/2013  14:02:00      -13.462       37.647       -0.368       47.792       36.987       31.054     2284.043     1368.005      964.341        0.311        0.231       39.982       26.751        0.448      339.932       13.605      856.870
05/23/2013  14:03:00      -49.003       18.339        9.082       29.071       19.838       22.306      845.143      393.563      497.547        0.228        0.087       52.322       21.606        0.171      340.034       13.776      856.886
05/23/2013  14:04:00      -93.157       33.784       -1.040       79.743       23.332       26.977     6358.962      544.367      727.747        0.872        0.382       99.094       35.677        0.130      339.953       13.641      856.899
05/23/2013  14:05:00      -74.400       43.480       12.249       84.234       88.593       46.478     7095.433     7848.797     2160.177        1.234        0.855       86.174       43.263        0.252      340.177       14.017      856.930
05/23/2013  14:06:00     -105.332       -2.910        0.625       84.128       70.239       35.527     7077.469     4933.469     1262.140        1.219        0.664      105.372       37.307        0.125      340.129       13.936      856.946
05/23/2013  14:07:00     -158.820      -25.408        8.006      133.013       63.025       57.047    17692.575     3972.133     3254.404        2.542        1.246      160.839       65.678        0.167      340.028       13.765      856.958
05/23/2013  14:08:00      -50.456      -87.953        8.793       56.207       72.422       37.898     3159.218     5244.991     1436.286        1.010        0.492      101.398       25.228        0.062      339.968       13.665      856.971
05/23/2013  14:09:00     -116.031     -111.883      -11.040       89.842       81.457       38.311     8071.636     6635.274     1467.709        2.114        0.809      161.186       25.129        0.024      339.972       13.671      856.984
05/23/2013  14:10:00     -145.356     -121.074        0.718       86.998       74.217       46.102     7568.643     5508.212     2125.406        2.549        0.760      189.176       30.670        0.026      339.918       13.579      856.959
05/23/2013  14:11:00      -98.901      -57.915       15.502       83.713       64.512       43.565     7007.885     4161.779     1897.927        1.322        0.653      114.611       39.184        0.117      340.062       13.822      856.934
05/23/2013  14:12:00       -8.937      -57.246      -18.363       59.651      139.234       36.187     3558.286    19386.141     1309.507        1.397        1.213       57.939       16.214        0.078      339.954       13.642      856.920
05/23/2013  14:13:00      -24.657      -24.838       -6.881       54.894       53.059       26.646     3013.360     2815.299      710.006        0.390        0.327       34.999       26.158        0.559      340.061       13.823      856.878
05/23/2013  14:14:00       66.041      -69.166       16.191       71.307      123.071       63.091     5084.688    15146.436     3980.447        1.680        1.211       95.631       68.443        0.512      340.052       13.805      856.855
05/23/2013  14:15:00      -17.987      -55.456       13.007       37.696       57.119       31.160     1421.007     3262.537      970.940        0.461        0.283       58.300       11.347        0.038      340.089       13.869      856.859
05/23/2013  14:16:00       36.387      -76.374        5.816       72.601       94.226       39.116     5270.894     8878.624     1530.042        1.143        0.784       84.599       43.092        0.259      340.196       14.050      856.842
05/23/2013  14:17:00      -23.393     -109.368        5.117      128.882      119.679       60.213    16610.645    14323.102     3625.629        2.354        1.728      111.841       56.789        0.258      340.291       14.209      856.800
05/23/2013  14:18:00     -188.298      -94.405       10.816      108.502      121.502       47.750    11772.790    14762.782     2280.033        3.664        1.441      210.638       53.799        0.065      340.192       14.040      856.805
05/23/2013  14:19:00     -258.947     -210.474        9.875      183.107      125.430       73.325    33528.031    15732.694     5376.488        8.303        2.732      333.695       64.263        0.037      340.114       13.907      856.807
05/23/2013  14:20:00     -286.207     -153.040       -4.229      111.330      109.050       54.175    12394.316    11891.871     2934.913        6.628        1.361      324.554       59.346        0.033      340.283       14.192      856.808
05/23/2013  14:21:00     -319.192     -122.756      -20.518      122.270      171.278       61.292    14949.878    29336.017     3756.721        8.270        2.402      341.983       52.413        0.023      340.470       14.510      856.810
05/23/2013  14:22:00     -134.647       84.000       -4.275      121.488       86.110       70.216    14759.244     7414.956     4930.232        2.615        1.355      158.701       68.584        0.187      340.683       14.872      856.887
05/23/2013  14:23:00      -33.369       46.041       33.297       86.184      148.288       69.465     7427.722    21989.356     4825.383        1.929        1.712       56.862       58.671        1.065      340.767       15.013      856.867
05/23/2013  14:24:00     -318.914     -124.522      -12.343      200.390      142.165       73.696    40156.323    20210.975     5431.124        9.157        3.290      342.362       77.284        0.051      340.460       14.492      856.875
05/23/2013  14:25:00     -310.520      -75.652      -25.090      136.081       98.349       54.946    18518.116     9672.497     3019.066        6.699        1.560      319.602       54.393        0.029      340.054       13.807      856.914
05/23/2013  14:26:00     -156.726      -40.426      -10.173      144.308      103.997       80.028    20824.674    10815.347     6404.464        3.216        1.902      161.856       78.260        0.234      340.567       14.675      856.921
05/23/2013  14:27:00     -245.428      -76.909      -13.002      174.153      106.577       64.789    30329.317    11358.698     4197.616        5.609        2.294      257.196       75.317        0.086      340.577       14.690      856.920
05/23/2013  14:28:00     -178.931     -106.275       -2.635       94.556      107.693       47.191     8940.753    11597.780     2226.954        3.304        1.138      208.113       43.124        0.043      340.076       13.844      856.910
05/23/2013  14:29:00     -117.519     -128.676        8.321      100.752       83.584       54.752    10151.041     6986.364     2997.819        2.528        1.007      174.265       52.883        0.092      340.438       14.455      856.896
05/23/2013  14:30:00     -160.396     -122.988        1.332       84.098       60.369       43.093     7072.497     3644.390     1857.002        2.671        0.629      202.122       43.871        0.047      340.237       14.116      856.902
05/23/2013  14:31:00     -267.718      -77.545      -24.735       86.925      108.387       47.782     7555.938    11747.668     2283.088        4.994        1.079      278.722       43.270        0.024      340.048       13.796      856.914
05/23/2013  14:32:00     -362.220       57.532      -36.265      154.956      106.895       53.997    24011.225    11426.503     2915.636        8.708        1.918      366.760       61.166        0.028      340.199       14.052      856.905
05/23/2013  14:33:00     -508.739     -101.460      -36.478      164.957      179.178       62.760    27210.922    32104.607     3938.879       16.683        3.163      518.758       61.497        0.014      340.445       14.467      856.870
05/23/2013  14:34:00     -541.380     -187.851      -12.009      246.731      175.811       97.757    60876.074    30909.381     9556.508       21.491        5.067      573.045      113.960        0.040      340.545       14.637      856.881
05/23/2013  14:35:00     -465.853     -158.283      -20.890      209.317      148.821       72.679    43813.496    22147.740     5282.276       15.686        3.562      492.009       88.182        0.032      340.409       14.407      856.992
05/23/2013  14:36:00     -402.056     -164.640      -17.217      232.175      155.993       63.747    53905.074    24333.702     4063.650       13.566        4.115      434.460       73.095        0.028      340.025       13.757      857.024
05/23/2013  14:37:00     -156.487       44.745      -17.337      110.854      105.165       50.334    12288.644    11059.598     2533.470        2.633        1.294      162.759       48.591        0.089      340.553       14.650      857.011
05/23/2013  14:38:00     -421.821       48.352      -61.264      180.157       99.743       54.052    32456.401     9948.629     2921.567       11.467        2.266      424.583       59.248        0.019      340.317       14.250      856.966
05/23/2013  14:39:00     -213.933       87.022      -20.643      100.285      117.374       58.574    10057.085    13776.673     3430.938        4.051        1.363      230.955       47.349        0.042      340.455       14.484      856.961
05/23/2013  14:40:00     -106.589       19.030       -9.939       90.560       85.104       55.644     8201.160     7242.747     3096.201        1.518        0.927      108.275       44.818        0.171      340.840       15.136      856.954
05/23/2013  14:41:00     -144.448      -42.099       12.361      157.889      108.859       56.229    24928.812    11850.323     3161.737        3.136        1.997      150.458       50.492        0.113      341.090       15.562      857.017
05/23/2013  14:42:00     -392.975     -200.339      -17.747      183.466      125.536       72.669    33659.631    15759.315     5280.731       12.478        2.735      441.095       83.533        0.036      340.166       13.996      857.063
05/23/2013  14:43:00     -232.671      -66.441       -1.052      150.737       88.712       61.523    22721.659     7869.833     3785.098        4.646        1.719      241.972       71.542        0.087      340.323       14.261      857.030
05/23/2013  14:44:00     -309.306       35.142      -19.240       97.654      101.103       49.553     9536.239    10221.780     2455.525        5.974        1.111      311.296       51.208        0.027      340.285       14.197      857.009
05/23/2013  14:45:00     -149.125      -39.471        3.785      108.731       62.824       46.296    11822.416     3946.798     2143.289        2.086        0.896      154.260       49.878        0.105      340.920       15.272      857.036
05/23/2013  14:46:00     -187.869        9.628      -30.529      101.564      101.699       48.372    10315.284    10342.778     2339.880        2.965        1.150      188.116       32.352        0.030      340.313       14.246      857.040
05/23/2013  14:47:00      -96.923      -15.181       13.776       72.281       67.653       41.136     5224.588     4576.873     1692.152        1.065        0.575       98.104       41.072        0.175      340.679       14.865      857.025
05/23/2013  14:48:00       46.616      -31.328        3.008       43.314       74.408       36.672     1876.127     5536.623     1344.851        0.596        0.438       56.165       18.917        0.113      340.963       15.346      857.003
05/23/2013  14:49:00     -227.256      -39.473      -16.667      132.453       90.039       43.312    17543.892     8106.956     1875.948        4.050        1.376      230.659       43.999        0.036      340.907       15.250      856.982
05/23/2013  14:50:00     -398.878     -175.139      -15.736      201.427      102.686       66.934    40572.864    10544.357     4480.210       12.280        2.780      435.634       83.695        0.037      340.546       14.639      856.964
05/23/2013  14:51:00     -364.803     -140.940      -11.170      120.901       89.764       50.258    14617.064     8057.504     2525.901        8.913        1.260      391.082       40.037        0.010      340.309       14.237      857.001
05/23/2013  14:52:00     -111.740     -201.521        9.297       98.364      135.731       47.027     9675.402    18422.843     2211.536        4.174        1.515      230.427       48.290        0.044      340.378       14.354      857.020
05/23/2013  14:53:00     -150.731     -409.788      -21.084       66.729       79.803       53.533     4452.751     6368.473     2865.834       10.239        0.684      436.631       46.470        0.011      339.924       13.587      857.001
05/23/2013  14:54:00       -1.663     -215.638       -9.503       70.948      110.747       39.151     5033.612    12264.834     1532.775        3.271        0.942      215.644       24.248        0.013      340.104       13.892      856.969
05/23/2013  14:55:00      -94.450      -95.284        3.047      112.787       98.746       42.767    12720.922     9750.677     1828.988        2.115        1.215      134.164       44.039        0.108      340.685       14.873      856.961
05/23/2013  14:56:00     -109.514      -54.841        8.251       78.870       72.443       45.288     6220.463     5248.022     2050.994        1.429        0.676      122.478       41.907        0.117      341.177       15.708      857.015
05/23/2013  14:57:00     -262.565       -8.646      -19.678       85.071       99.851       40.066     7237.154     9970.296     1605.303        4.410        0.941      262.708       42.034        0.026      340.512       14.582      857.058
05/23/2013  14:58:00     -129.165       -0.269       -6.101       72.571       59.192       40.131     5266.501     3503.747     1610.494        1.355        0.519      129.165       27.824        0.046      341.104       15.585      857.066
05/23/2013  14:59:00     -188.244     -154.811       -1.393      142.595       81.163       58.062    20333.204     6587.356     3371.205        4.484        1.515      243.726       58.128        0.057      340.490       14.544      857.041
05/23/2013  15:00:00     -236.189      -19.528       -6.915      148.087       91.958       43.029    21929.798     8456.276     1851.487        4.422        1.612      236.995       59.889        0.064      340.703       14.904      857.036
05/23/2013  15:01:00      -92.897       13.606       18.409      108.206       92.799       53.496    11708.450     8611.641     2861.846        1.616        1.159       93.888       52.090        0.308      341.110       15.595      857.027
05/23/2013  15:02:00      -77.300     -146.547        4.277       95.574      101.776       48.988     9134.480    10358.384     2399.778        2.468        1.095      165.684       46.574        0.079      340.735       14.958      857.033
05/23/2013  15:03:00     -248.552     -149.105      -15.182      116.442       90.987       45.418    13558.742     8278.553     2062.757        5.407        1.195      289.846       44.352        0.023      340.632       14.782      857.001
05/23/2013  15:04:00     -212.434      -72.491        7.652      126.389       90.699       50.212    15974.251     8226.273     2521.217        3.858        1.336      224.462       51.480        0.053      340.900       15.239      857.018
05/23/2013  15:05:00     -187.646      -70.764        3.776      166.398      146.896       66.698    27688.287    21578.347     4448.686        4.696        2.686      200.546       77.999        0.151      341.226       15.789      857.035
05/23/2013  15:06:00     -490.823     -103.978      -19.845      241.162      182.467      100.074    58159.086    33294.338    10014.862       17.677        5.073      501.715      115.328        0.053      340.602       14.732      857.078
05/23/2013  15:07:00     -170.754     -106.851       30.323      163.847      165.543       79.391    26845.985    27404.577     6302.855        5.101        3.028      201.430       91.811        0.208      340.927       15.284      857.075
05/23/2013  15:08:00     -463.937     -103.400      -27.163      249.665      138.296       89.184    62332.625    19125.876     7953.866       15.802        4.471      475.320      114.055        0.058      340.747       14.979      857.136
05/23/2013  15:09:00     -189.990      -27.126       13.537      175.908       97.009       81.613    30943.619     9410.667     6660.604        4.201        2.351      191.917       93.585        0.238      340.966       15.350      857.177
05/23/2013  15:10:00     -210.749       -6.664       -5.180      187.989      126.851       62.456    35339.972    16091.116     3900.770        4.990        2.767      210.854       78.945        0.140      340.767       15.014      857.182
05/23/2013  15:11:00     -361.589      -14.770      -18.136      135.520      113.853       64.503    18365.611    12962.529     4160.577        8.338        1.774      361.890       69.489        0.037      340.600       14.730      857.172
05/23/2013  15:12:00     -372.815      -23.054      -16.684      211.020      139.713       81.199    44529.645    19519.656     6593.326       10.521        3.532      373.527      102.019        0.075      340.472       14.515      857.168
05/23/2013  15:13:00     -203.314     -176.567        8.391      148.131      108.490       57.249    21942.786    11770.134     3277.425        5.478        1.850      269.281       66.364        0.061      340.358       14.321      857.172
05/23/2013  15:14:00     -236.878     -229.944       -3.744      165.146      118.767       76.534    27273.315    14105.576     5857.484        7.811        2.362      330.129       80.311        0.059      340.274       14.177      857.129
05/23/2013  15:15:00     -151.735      -84.565      -14.725      116.328       93.589       51.493    13532.136     8758.925     2651.567        2.766        1.247      173.709       40.149        0.053      340.513       14.583      857.126
05/23/2013  15:16:00      -74.443      -51.396       19.530      101.869       54.471       38.669    10377.296     2967.089     1495.265        1.170        0.742       90.462       48.954        0.293      340.629       14.780      857.140
05/23/2013  15:17:00      -46.207       -3.385       25.324       52.052       57.423       36.802     2709.376     3297.379     1354.358        0.507        0.368       46.331       29.784        0.413      340.804       15.078      857.120
05/23/2013  15:18:00      -59.493      111.080       -7.394       49.090       87.086       28.121     2409.849     7583.913      790.763        1.336        0.539      126.009       24.951        0.039      340.718       14.930      857.107
05/23/2013  15:19:00      -73.497      167.928      -10.818       53.786       59.442       40.126     2892.971     3533.303     1610.104        2.088        0.402      183.307       38.247        0.044      340.522       14.601      857.096
05/23/2013  15:20:00      -15.457      159.186      -15.500       37.091       51.171       25.782     1375.724     2618.482      664.724        1.524        0.233      159.934       24.852        0.024      340.382       14.364      857.109
05/23/2013  15:21:00       16.482       67.834       10.339       54.842       54.001       31.712     3007.637     2916.129     1005.626        0.595        0.346       69.808       24.711        0.125      340.702       14.904      857.110
05/23/2013  15:22:00      -28.120       34.463      -19.654       45.677       53.614       23.372     2086.400     2874.481      546.233        0.393        0.275       44.479       17.627        0.157      340.453       14.484      857.108
05/23/2013  15:23:00     -106.461       -1.265       -2.795       35.342       35.049       18.340     1249.052     1228.464      336.346        0.708        0.141      106.468       11.446        0.012      340.932       15.296      857.129
05/23/2013  15:24:00      -74.810      -32.509       -3.246       76.774       48.718       34.597     5894.224     2373.480     1196.940        0.806        0.473       81.568       32.665        0.160      341.001       15.411      857.108
05/23/2013  15:25:00     -160.701      -57.286      -10.149       67.967       64.518       36.402     4619.496     4162.578     1325.088        1.966        0.505      170.606       27.557        0.026      340.782       15.038      857.077
05/23/2013  15:26:00     -190.256      -41.726        1.213      138.343      104.559       53.626    19138.721    10932.583     2875.793        3.544        1.647      194.778       49.677        0.065      340.897       15.234      857.079
05/23/2013  15:27:00     -374.293      -57.644        5.867      166.746      175.021       71.663    27804.314    30632.408     5135.529       10.350        3.179      378.706       77.683        0.042      340.613       14.751      857.078
05/23/2013  15:28:00     -258.788      -79.247        1.001      115.947       79.876       43.368    13443.613     6380.212     1880.807        4.747        1.085      270.650       55.006        0.041      340.351       14.309      857.102
05/23/2013  15:29:00     -148.479     -103.271       -5.459      127.459       56.830       62.974    16245.821     3229.618     3965.760        2.809        1.172      180.861       73.298        0.164      340.456       14.487      857.069
05/23/2013  15:30:00     -169.596      -91.107      -10.175       74.528       88.863       45.619     5554.429     7896.591     2081.091        2.635        0.777      192.518       35.901        0.035      340.673       14.853      857.060
05/23/2013  15:31:00     -159.685      -62.401       -7.202       93.374       68.522       41.965     8718.662     4695.261     1761.076        2.231        0.759      171.444       22.949        0.018      340.896       15.233      857.089
05/23/2013  15:32:00     -259.395       72.268      -31.891      111.701      114.128       63.866    12477.077    13025.091     4078.874        5.155        1.479      269.274       58.153        0.047      340.605       14.736      857.127
05/23/2013  15:33:00     -338.800       -2.028      -24.486      150.486      148.094       73.397    22646.044    21931.814     5387.065        8.267        2.498      338.806       72.048        0.045      340.744       14.974      857.154
05/23/2013  15:34:00      -93.786      234.050        3.893      112.870      190.947       87.681    12739.656    36460.854     7687.907        6.023        2.844      252.141       99.252        0.155      341.074       15.531      857.125
05/23/2013  15:35:00     -240.682      144.098      -40.610      119.973      117.973       67.514    14393.482    13917.616     4558.178        5.660        1.643      280.521       59.921        0.046      340.973       15.360      857.149
05/23/2013  15:36:00     -206.831       53.563      -32.566      153.726      134.275       62.730    23631.557    18029.768     3935.083        4.614        2.280      213.654       54.280        0.065      340.999       15.404      857.134
05/23/2013  15:37:00     -181.713      210.433      -38.545      152.144      197.668       79.521    23147.939    39072.559     6323.565        7.365        3.427      278.032       86.454        0.097      340.971       15.358      857.108
05/23/2013  15:38:00     -140.652      242.786      -30.853      103.784      152.983       66.539    10771.050    23403.733     4427.472        5.913        1.930      280.585       53.202        0.036      341.032       15.459      857.125
05/23/2013  15:39:00     -234.891       67.077      -36.359      146.516      136.247       73.760    21466.839    18563.264     5440.515        5.322        2.274      244.281       52.473        0.046      341.268       15.859      857.146
05/23/2013  15:40:00     -237.476       -8.061      -27.761      162.169      132.551       84.838    26298.653    17569.883     7197.490        5.414        2.553      237.613       86.628        0.133      341.027       15.450      857.200
05/23/2013  15:41:00     -227.078       31.504      -17.459      110.140      111.151       53.111    12130.743    12354.434     2820.791        4.008        1.365      229.253       50.120        0.048      340.862       15.171      857.202
05/23/2013  15:42:00     -357.878       78.385      -52.408      120.445      157.031       65.963    14506.967    24658.781     4351.089        9.023        2.176      366.361       66.505        0.033      340.767       15.011      857.163
05/23/2013  15:43:00     -293.581      -60.130      -28.174      135.212      138.296       61.820    18282.346    19125.871     3821.740        6.591        2.061      299.676       38.704        0.017      341.148       15.656      857.184
05/23/2013  15:44:00     -145.459       38.334       -0.883      162.822       86.497       80.008    26510.873     7481.699     6401.270        3.150        2.020      150.426       86.811        0.333      341.189       15.729      857.193
05/23/2013  15:45:00      -98.572      119.517      -14.306       92.368      120.572       53.451     8531.871    14537.542     2857.022        2.506        1.296      154.922       49.609        0.103      341.006       15.417      857.183
05/23/2013  15:46:00     -123.437       47.841      -16.614       97.051      174.977       52.091     9418.860    30616.877     2713.515        3.027        2.137      132.384       47.652        0.130      340.723       14.938      857.200
05/23/2013  15:47:00     -220.164       73.500      -27.358      106.754      165.108       74.338    11396.381    27260.498     5526.158        4.939        2.209      232.108       77.721        0.112      340.545       14.636      857.211
05/23/2013  15:48:00     -181.385      239.948      -31.660       92.624      120.808       64.185     8579.218    14594.565     4119.726        5.938        1.365      300.792       50.824        0.029      340.392       14.379      857.211
05/23/2013  15:49:00     -195.775      100.535      -20.054      121.123      135.563       75.724    14670.678    18377.235     5734.062        4.380        1.939      220.080       91.366        0.172      340.612       14.749      857.215
05/23/2013  15:50:00     -193.164       21.583      -26.941      110.465       91.075       48.628    12202.546     8294.669     2364.638        3.068        1.143      194.366       43.301        0.050      340.441       14.462      857.215
05/23/2013  15:51:00     -127.098       29.024      -11.990       76.086      103.639       55.059     5789.102    10741.037     3031.452        1.835        0.978      130.370       49.242        0.143      340.588       14.709      857.231
05/23/2013  15:52:00       27.449       -4.824        6.178       80.225       66.828       35.712     6435.987     4465.957     1275.358        0.649        0.609       27.869       13.468        0.234      340.728       14.948      857.220
05/23/2013  15:53:00     -193.661      -39.380      -25.424      114.718       85.663       56.742    13160.170     7338.209     3219.666        3.170        1.186      197.624       48.250        0.060      340.843       15.142      857.249
05/23/2013  15:54:00     -259.156      121.560      -30.325       99.479       68.548       57.925     9896.133     4698.823     3355.327        5.040        0.898      286.250       51.799        0.033      340.432       14.444      857.281
05/23/2013  15:55:00     -399.956      -36.728      -32.592      109.460       97.541       67.376    11981.487     9514.332     4539.483        9.420        1.302      401.639       56.816        0.020      340.389       14.371      857.276
05/23/2013  15:56:00     -197.164      -31.494       -7.687      113.430       90.317       46.734    12866.284     8157.204     2184.084        3.156        1.160      199.663       44.867        0.050      340.545       14.638      857.300
05/23/2013  15:57:00     -125.325       -9.030       -2.282       83.638       96.005       46.152     6995.289     9217.052     2130.029        1.706        0.917      125.650       40.945        0.106      340.685       14.874      857.317
05/23/2013  15:58:00     -176.421      -38.552      -10.039      136.393       75.726       50.083    18603.079     5734.379     2508.332        2.977        1.342      180.584       52.723        0.085      340.642       14.800      857.305
05/23/2013  15:59:00        9.769       26.674       36.616       43.515       27.828       25.901     1893.575      774.384      670.872        0.274        0.167       28.407       17.088        0.362      340.877       15.202      857.292
05/23/2013  16:00:00      -30.460        8.127       10.642       54.939       31.707       26.576     3018.309     1005.319      706.277        0.292        0.236       31.525       22.208        0.496      340.879       15.203      857.304
05/23/2013  16:01:00      -70.379       41.389       -0.746      110.623       74.518       45.559    12237.360     5552.976     2075.659        1.326        0.993       81.647       60.956        0.557      340.895       15.232      857.313
05/23/2013  16:02:00     -140.231       91.435      -21.998      119.644      114.773       48.546    14314.578    13172.802     2356.688        2.917        1.492      167.407       46.538        0.077      340.803       15.074      857.279
05/23/2013  16:03:00     -409.989     -102.962      -14.155      208.511      144.490       74.650    43476.741    20877.456     5572.622       12.440        3.496      422.720       84.827        0.040      340.666       14.841      857.287
05/23/2013  16:04:00     -150.981      -43.639        1.399      108.660       99.272       40.084    11806.976     9855.019     1606.731        2.398        1.163      157.161       41.941        0.071      340.863       15.174      857.324
05/23/2013  16:05:00     -343.065      -90.462      -24.314      109.397       98.452       62.030    11967.769     9692.757     3847.702        7.598        1.275      354.791       64.666        0.033      340.611       14.749      857.319
05/23/2013  16:06:00     -104.646       61.876       -5.914      120.347       87.737       49.605    14483.411     7697.848     2460.641        1.972        1.232      121.571       49.671        0.167      340.668       14.846      857.335
05/23/2013  16:07:00      -33.621       69.883       16.144       64.188       84.031       45.466     4120.096     7061.166     2067.120        0.976        0.662       77.550       50.405        0.422      340.743       14.974      857.320
05/23/2013  16:08:00      -15.751      -32.868        0.560       31.457       52.903       19.352      989.552     2798.739      374.504        0.274        0.208       36.447       16.180        0.197      340.767       15.015      857.305
05/23/2013  16:09:00      -73.505     -130.696       -2.800       91.594       88.701       31.187     8389.507     7867.900      972.615        1.986        0.862      149.949       26.946        0.032      340.627       14.776      857.269
05/23/2013  16:10:00     -204.719      -35.689       -4.303       84.937       97.011       45.610     7214.363     9411.100     2080.251        3.095        0.935      207.807       36.835        0.031      340.662       14.835      857.239
05/23/2013  16:11:00     -106.583      -64.499        7.667       82.185       61.735       35.138     6754.453     3811.248     1234.666        1.369        0.590      124.580       33.140        0.071      340.695       14.891      857.223
05/23/2013  16:12:00      -75.516      -47.416       10.416       60.982       48.175       34.538     3718.772     2320.823     1192.845        0.764        0.362       89.168       35.419        0.158      340.693       14.889      857.218
05/23/2013  16:13:00      -85.368       29.101       -3.693       55.255       64.295       30.620     3053.152     4133.898      937.584        0.813        0.406       90.192       30.313        0.113      340.678       14.865      857.230
05/23/2013  16:14:00      -38.705       78.761        5.283       61.277      130.857       46.108     3754.862    17123.617     2125.927        1.536        1.150       87.758       47.237        0.290      340.699       14.900      857.214
05/23/2013  16:15:00      -88.772       94.066       -9.016      106.735      107.665       42.600    11392.378    11591.787     1814.739        2.080        1.240      129.340       30.860        0.057      340.821       15.105      857.199
05/23/2013  16:16:00     -257.009      -60.460      -23.326       62.767       74.105       38.084     3939.694     5491.509     1450.390        4.057        0.544      264.024       34.462        0.017      340.669       14.846      857.206
05/23/2013  16:17:00     -204.585      -44.092      -22.739       49.142       35.488       23.529     2414.956     1259.385      553.611        2.427        0.211      209.282       20.945        0.010      340.500       14.560      857.229
05/23/2013  16:18:00     -204.451      -83.477       -6.998      118.411       96.656       47.057    14021.056     9342.410     2214.332        3.719        1.279      220.837       41.626        0.036      340.911       15.256      857.241
05/23/2013  16:19:00     -163.435     -185.663       30.357      153.451      142.461       85.010    23547.359    20295.055     7226.669        5.658        2.553      247.349       94.977        0.147      340.631       14.783      857.257
05/23/2013  16:20:00     -167.585      -18.281       12.462      149.628      102.184       55.854    22388.594    10441.609     3119.717        3.225        1.797      168.579       70.844        0.177      340.733       14.955      857.236
05/23/2013  16:21:00     -143.579      -56.502        8.354      114.059       80.769       47.962    13009.417     6523.617     2300.390        2.285        1.092      154.297       51.813        0.113      340.804       15.075      857.244
05/23/2013  16:22:00     -184.284     -135.331       -3.391       96.082       98.923       47.771     9231.706     9785.722     2282.062        3.679        1.065      228.637       40.669        0.032      340.812       15.088      857.241
05/23/2013  16:23:00     -239.124     -192.483       -3.022      148.600      125.255       62.458    22082.081    15688.800     3901.024        6.795        2.084      306.969       55.864        0.033      340.898       15.234      857.232
05/23/2013  16:24:00     -105.927      -99.631        6.415       64.230       73.767       38.314     4125.438     5441.613     1467.941        1.611        0.552      145.419       32.989        0.051      340.941       15.309      857.245
05/23/2013  16:25:00     -234.530       43.701        0.699      231.106      105.858       67.920    53409.791    11206.005     4613.172        6.306        3.461      238.566       88.894        0.139      341.230       15.797      857.271
05/23/2013  16:26:00     -399.913      -32.846      -31.929      188.144      101.261       69.621    35398.179    10253.719     4847.127       10.625        2.525      401.259       79.446        0.039      341.055       15.499      857.278
05/23/2013  16:27:00     -197.147       19.441       -4.947      145.748      108.642       65.601    21242.570    11803.137     4303.459        3.830        1.867      198.104       66.826        0.114      341.200       15.744      857.278
05/23/2013  16:28:00     -342.299     -144.114        1.064      240.409      148.197       77.084    57796.560    21962.444     5941.940       11.180        4.285      371.400       82.623        0.049      341.157       15.672      857.285
05/23/2013  16:29:00     -459.516      -69.489      -29.842      142.025      135.832       64.881    20170.989    18450.282     4209.490       12.984        2.142      464.740       63.814        0.019      340.881       15.203      857.312
05/23/2013  16:30:00     -342.055     -105.649       -6.007      205.993      139.804       75.696    42433.007    19545.173     5729.923        9.794        3.385      357.999       94.676        0.070      341.075       15.533      857.309
05/23/2013  16:31:00     -382.829      -79.028       -6.981      187.914      122.844       76.609    35311.637    15090.640     5868.882       10.455        2.814      390.901       74.195        0.036      341.007       15.418      857.326
05/23/2013  16:32:00     -298.461       26.141      -12.089      149.109      134.559       64.187    22233.564    18106.020     4119.954        6.717        2.223      299.603       53.455        0.032      341.237       15.806      857.352
05/23/2013  16:33:00     -285.355      -20.793       16.068      182.859      135.662       74.668    33437.547    18404.213     5575.256        6.976        2.871      286.112       85.880        0.090      341.236       15.805      857.350
05/23/2013  16:34:00     -153.533      -39.647       -1.373      115.717      124.044       59.619    13390.321    15386.925     3554.423        2.873        1.617      158.570       52.432        0.109      341.366       16.027      857.359
05/23/2013  16:35:00     -299.697       38.588      -17.611       94.003       90.995       46.105     8836.609     8280.149     2125.652        5.543        0.962      302.171       42.013        0.019      340.950       15.321      857.359
05/23/2013  16:36:00     -177.659      -36.657       -6.661       74.662       69.246       41.115     5574.451     4795.024     1690.435        2.250        0.603      181.401       36.636        0.041      341.179       15.711      857.344
05/23/2013  16:37:00     -151.613       10.591      -12.428       90.413       87.278       56.332     8174.511     7617.392     3173.326        2.111        0.948      151.982       52.021        0.117      341.540       16.321      857.364
05/23/2013  16:38:00     -123.655     -129.731       11.063      148.577      147.307       67.742    22075.237    21699.445     4588.962        4.029        2.418      179.223       78.618        0.192      341.350       15.999      857.384
05/23/2013  16:39:00     -264.771      -45.959       -6.832      178.582      195.643       72.731    31891.641    38276.092     5289.788        7.384        3.773      268.730       71.843        0.071      341.306       15.924      857.392
05/23/2013  16:40:00     -445.949     -211.676       -0.264      214.537      166.620       95.245    46026.135    27762.061     9071.566       16.325        4.143      493.637      104.943        0.045      340.947       15.317      857.428
05/23/2013  16:41:00     -243.947     -203.459       -3.125      130.387      104.510       65.493    17000.888    10922.366     4289.343        6.656        1.611      317.657       65.744        0.043      340.782       15.036      857.459
05/23/2013  16:42:00      -69.259     -106.799       15.229       88.830       85.681       56.359     7890.804     7341.195     3176.286        1.742        0.920      127.290       47.754        0.141      340.643       14.805      857.407
05/23/2013  16:43:00     -370.374     -195.186       -1.413      203.132      177.213       94.699    41262.734    31404.460     8967.995       12.844        4.082      418.658      102.778        0.060      340.773       15.020      857.416
05/23/2013  16:44:00     -433.787     -286.640      -20.751      214.527      123.870       79.503    46021.996    15343.876     6320.769       16.921        3.384      519.937       92.307        0.032      340.650       14.812      857.449
05/23/2013  16:45:00     -351.400     -158.729       -4.804      187.104      126.366       65.577    35008.060    15968.304     4300.382       10.198        2.764      385.586       74.043        0.037      340.639       14.795      857.469
05/23/2013  16:46:00     -267.251     -167.673       -4.258       93.843       78.341       51.944     8806.573     6137.340     2698.192        5.860        0.882      315.496       43.828        0.019      340.719       14.930      857.474
05/23/2013  16:47:00     -311.867      -75.480       -7.729       82.774      113.347       55.257     6851.582    12847.593     3053.306        6.288        1.138      320.871       52.107        0.026      340.801       15.071      857.462
05/23/2013  16:48:00     -213.773      -36.746       -5.503      101.277       85.749       40.632    10257.034     7352.943     1650.978        3.317        0.963      216.909       38.936        0.032      341.065       15.516      857.466
05/23/2013  16:49:00     -198.725      -80.565       -3.276      106.831      104.183       48.905    11412.857    10854.124     2391.741        3.532        1.233      214.434       43.397        0.041      341.281       15.882      857.486
05/23/2013  16:50:00      -61.300      -20.298       39.698      112.757       81.610       71.722    12714.130     6660.117     5144.097        1.513        1.226       64.573       69.290        1.151      341.479       16.220      857.497
05/23/2013  16:51:00     -389.881       13.344      -33.196      160.139      114.786       69.002    25644.619    13175.731     4761.238        9.843        2.179      390.109       74.835        0.037      341.247       15.823      857.490
05/23/2013  16:52:00     -481.257      -94.004      -18.790      150.180       83.760       53.708    22554.152     7015.663     2884.602       13.662        1.623      490.352       63.984        0.017      340.779       15.031      857.503
05/23/2013  16:53:00     -255.866        7.727      -13.127      149.114      131.675       61.642    22235.102    17338.398     3799.798        5.453        2.169      255.983       69.086        0.073      341.042       15.477      857.510
05/23/2013  16:54:00     -351.403       57.996      -19.128      153.890       86.081       55.311    23682.044     7409.853     3059.289        8.068        1.708      356.157       68.599        0.037      340.927       15.282      857.502
05/23/2013  16:55:00     -280.009      -31.400      -19.113       74.950       82.823       42.469     5617.554     6859.667     1803.586        4.702        0.714      281.764       39.796        0.020      341.186       15.720      857.512
05/23/2013  16:56:00     -202.140      -51.642      -21.852      105.614       76.112       41.945    11154.317     5793.043     1759.373        3.135        0.935      208.632       48.303        0.054      341.127       15.622      857.536
05/23/2013  16:57:00     -276.262     -102.974        6.424      145.174      100.532       67.160    21075.537    10106.745     4510.482        6.132        1.785      294.829       61.335        0.043      341.056       15.501      857.563
05/23/2013  16:58:00     -328.087     -190.532        0.970      156.582      110.938       61.946    24517.993    12307.165     3837.333        9.230        2.033      379.399       68.667        0.033      340.963       15.343      857.557
05/23/2013  16:59:00     -300.678     -174.923      -14.289      175.855      122.678       70.481    30925.112    15049.992     4967.613        8.607        2.547      347.858       85.660        0.061      340.965       15.347      857.561
05/23/2013  17:00:00     -208.408     -118.810       -3.185      138.000       97.244       47.189    19044.001     9456.376     2226.818        4.414        1.536      239.896       56.975        0.056      340.852       15.157      857.568
05/23/2013  17:01:00     -163.484     -138.400        0.876      115.079       73.554       61.154    13243.269     5410.173     3739.766        3.413        1.120      214.200       52.054        0.059      340.948       15.318      857.558
05/23/2013  17:02:00      -66.668     -101.933       25.693      119.514       78.164       52.973    14283.491     6109.631     2806.162        1.934        1.160      121.799       54.836        0.203      341.190       15.729      857.561
05/23/2013  17:03:00     -271.827      -71.389      -26.265      116.284      113.101       49.771    13521.962    12791.883     2477.142        5.423        1.440      281.045       42.780        0.023      341.016       15.433      857.555
05/23/2013  17:04:00     -293.081        5.645      -25.544      174.190      160.520       69.174    30342.326    25766.560     4785.052        7.372        3.045      293.135       50.418        0.030      341.358       16.012      857.534
05/23/2013  17:05:00     -552.089      -34.582      -49.792      164.702      151.633       84.193    27126.705    22992.556     7088.425       18.283        2.860      553.171       59.904        0.012      341.247       15.825      857.503
05/23/2013  17:06:00     -382.586       -9.958       -8.846      174.309      143.091       72.357    30383.736    20474.924     5235.588       10.131        2.805      382.715       73.161        0.037      341.248       15.824      857.562
05/23/2013  17:07:00     -466.250      -13.116      -25.103      155.696      156.036       67.384    24241.112    24347.284     4540.629       13.565        2.656      466.435       71.016        0.023      340.933       15.293      857.580
05/23/2013  17:08:00     -271.135     -116.041       -4.087      157.192      135.086       73.441    24709.258    18248.303     5393.602        6.766        2.418      294.923       77.397        0.069      341.262       15.849      857.597
05/23/2013  17:09:00      -67.171      -60.362       22.423       98.875       96.696       55.180     9776.330     9350.211     3044.794        1.541        1.109       90.308       53.207        0.347      341.409       16.100      857.618
05/23/2013  17:10:00     -159.150      -90.016       -1.248      131.073      106.986       55.743    17180.185    11445.972     3107.264        3.258        1.587      182.843       53.124        0.084      341.307       15.926      857.624
05/23/2013  17:11:00     -335.503     -188.031       -6.054      143.234      125.899       85.030    20515.878    15850.653     7230.132        9.577        2.180      384.601       78.808        0.042      340.957       15.333      857.661
05/23/2013  17:12:00     -232.888      -72.524        4.584      175.268      100.452       62.503    30718.957    10090.625     3906.622        5.211        2.236      243.919       79.944        0.107      341.139       15.641      857.653
05/23/2013  17:13:00     -384.342     -142.997      -24.701      146.695      166.509       75.634    21519.279    27725.201     5720.499       11.186        2.748      410.082       78.590        0.037      341.043       15.479      857.654
05/23/2013  17:14:00     -321.603      -76.049      -19.234      162.867      147.469       66.139    26525.756    21747.210     4374.318        8.110        2.632      330.472       70.422        0.045      340.950       15.321      857.693
05/23/2013  17:15:00     -238.636      -96.727      -12.978      137.284       95.267       56.825    18846.856     9075.803     3229.027        4.881        1.558      257.494       63.794        0.061      341.021       15.441      857.690
05/23/2013  17:16:00     -168.767      -74.798       -6.570       90.987       82.901       47.205     8278.554     6872.543     2228.300        2.575        0.869      184.599       45.730        0.061      341.071       15.527      857.703
05/23/2013  17:17:00     -119.904     -131.911       17.679      153.984      107.629       73.038    23711.037    11584.106     5334.522        3.635        2.031      178.262       83.021        0.217      341.113       15.599      857.709
05/23/2013  17:18:00     -259.241     -113.239       -9.225       66.445       62.184       37.109     4414.975     3866.908     1377.102        4.488        0.483      282.894       27.314        0.009      340.948       15.317      857.715
05/23/2013  17:19:00     -155.323      -91.905       -1.830      165.026       81.507       47.626    27233.648     6643.428     2268.261        3.435        1.807      180.476       60.369        0.112      340.987       15.386      857.735
05/23/2013  17:20:00     -219.629     -212.131      -22.054      165.217      110.741       56.181    27296.519    12263.559     3156.322        6.821        2.136      305.346       71.124        0.054      340.824       15.109      857.748
05/23/2013  17:21:00     -283.694     -178.146       -2.627      215.637      197.089       97.469    46499.128    38843.952     9500.123       10.351        4.742      334.990      115.666        0.119      340.914       15.260      857.795
05/23/2013  17:22:00     -262.096     -190.128       18.312      165.445      122.837       82.517    27371.988    15088.943     6809.119        7.721        2.464      323.795       92.397        0.081      340.763       15.005      857.798
05/23/2013  17:23:00     -269.867       35.133      -13.129      151.958       85.801       74.569    23091.247     7361.811     5560.532        5.512        1.801      272.144       82.195        0.091      341.155       15.669      857.826
05/23/2013  17:24:00     -312.194     -156.295       13.906      169.121      135.520       80.506    28601.988    18365.633     6481.188        8.776        2.672      349.132       86.808        0.062      340.976       15.365      857.826
05/23/2013  17:25:00     -317.994     -131.327        1.920      181.116      125.176       65.633    32802.894    15669.081     4307.745        8.556        2.639      344.045       76.294        0.049      341.122       15.615      857.833
05/23/2013  17:26:00     -315.511     -123.444      -13.170      118.132       80.758       52.862    13955.184     6521.886     2794.412        6.911        1.164      338.801       53.696        0.025      340.724       14.937      857.851
05/23/2013  17:27:00     -252.111      -86.413      -19.826       81.852       92.743       45.845     6699.831     8601.331     2101.736        4.441        0.870      266.509       40.128        0.023      340.817       15.095      857.827
05/23/2013  17:28:00     -140.039      -68.891        3.359      115.497       78.430       54.041    13339.460     6151.332     2920.414        2.339        1.121      156.067       57.708        0.137      341.117       15.606      857.808
05/23/2013  17:29:00        1.675       54.698       -1.434       81.405       85.384       53.843     6626.718     7290.394     2899.074        0.990        0.841       54.724       45.181        0.682      341.216       15.775      857.786
05/23/2013  17:30:00     -165.394       98.349      -26.032       88.854       67.778       47.506     7895.055     4593.887     2256.810        2.622        0.737      192.426       45.332        0.055      341.070       15.524      857.771
05/23/2013  17:31:00      -64.824       64.414       24.314       86.738      136.675       56.981     7523.489    18680.137     3246.840        1.919        1.473       91.385       41.078        0.202      341.191       15.732      857.765
05/23/2013  17:32:00     -264.615       35.329      -16.668      141.797      121.449       54.278    20106.434    14749.781     2946.129        5.467        1.890      266.962       54.963        0.042      341.328       15.963      857.771
05/23/2013  17:33:00     -246.582     -242.400       15.890      204.798      149.279       76.502    41942.119    22284.262     5852.579        9.493        3.504      345.775       77.154        0.050      341.085       15.549      857.770
05/23/2013  17:34:00     -322.178     -185.998      -15.944      194.615      146.956       97.714    37875.115    21596.188     9548.003       10.382        3.451      372.013      118.791        0.102      341.235       15.804      857.772
05/23/2013  17:35:00     -266.390      -54.900        9.525      157.977       95.143       66.453    24956.583     9052.280     4416.039        5.624        1.921      271.989       81.495        0.090      341.214       15.769      857.819
05/23/2013  17:36:00     -246.173      -90.344       -0.391      151.158      128.522       63.549    22848.889    16517.962     4038.534        5.608        2.170      262.227       62.747        0.057      341.203       15.750      857.805
05/23/2013  17:37:00     -352.898      -96.877      -24.913      156.096      193.132       83.749    24366.050    37300.061     7013.969       10.160        3.434      365.954       64.892        0.031      340.980       15.372      857.800
05/23/2013  17:38:00     -279.783     -108.512      -11.017      183.380       99.267       58.198    33628.052     9853.980     3387.041        6.851        2.343      300.089       76.321        0.065      341.044       15.481      857.785
05/23/2013  17:39:00     -308.706     -233.597       17.225      244.757      140.542       89.292    59906.006    19752.157     7973.120       11.888        4.382      387.127      109.346        0.080      341.094       15.565      857.759
05/23/2013  17:40:00     -434.626     -178.227      -12.628      217.362      152.089       95.706    47246.201    23131.033     9159.544       15.016        3.977      469.749      108.607        0.053      341.093       15.563      857.760
05/23/2013  17:41:00     -431.676     -196.867      -22.244      179.375      136.527       82.165    32175.560    18639.535     6751.092       14.157        2.878      474.448       83.132        0.031      341.110       15.593      857.818
05/23/2013  17:42:00     -171.720      -25.895       -3.931      103.043      114.874       55.433    10617.914    13195.980     3072.845        2.852        1.344      173.662       57.718        0.110      341.444       16.157      857.822
05/23/2013  17:43:00      -74.349      -65.214        4.396      117.078       65.588       57.099    13707.368     4301.841     3260.347        1.553        1.063       98.897       60.643        0.376      341.653       16.513      857.841
05/23/2013  17:44:00     -258.804      -90.924       12.602      181.056      117.925       76.704    32781.255    13906.255     5883.519        6.398        2.629      274.311       86.838        0.100      341.594       16.412      857.838
05/23/2013  17:45:00     -395.695     -115.390      -17.467      168.581      158.805       76.415    28419.605    25219.134     5839.249       11.482        2.974      412.177       71.336        0.030      341.004       15.413      857.848
05/23/2013  17:46:00     -328.143      -57.083        3.133      133.852      108.280       65.203    17916.296    11724.470     4251.492        7.241        1.695      333.071       64.273        0.037      341.162       15.679      857.844
05/23/2013  17:47:00     -316.889     -139.887       -7.694      180.568      130.141       88.416    32604.762    16936.585     7817.443        8.869        2.868      346.392       90.278        0.068      341.089       15.556      857.852
05/23/2013  17:48:00     -204.203     -187.692       -1.628      147.638      111.159       68.038    21796.895    12356.432     4629.174        5.785        1.939      277.358       57.141        0.042      341.060       15.507      857.840
05/23/2013  17:49:00     -257.921     -156.655       -0.525      153.010      104.017       56.630    23411.952    10819.448     3206.959        6.424        1.872      301.768       65.389        0.047      340.959       15.337      857.841
05/23/2013  17:50:00     -129.621      -86.574       12.289      113.222       88.411       59.041    12819.256     7816.434     3485.894        2.428        1.206      155.874       61.627        0.156      341.276       15.873      857.846
05/23/2013  17:51:00     -150.259     -110.882       16.226      141.213       80.298       59.053    19941.099     6447.724     3487.203        3.250        1.494      186.742       69.528        0.139      341.235       15.806      857.855
05/23/2013  17:52:00     -158.526      -90.494        1.507      125.493      121.782       54.535    15748.512    14830.847     2974.077        3.343        1.678      182.537       58.388        0.102      341.264       15.855      857.870
05/23/2013  17:53:00     -308.090      -28.654      -19.919      173.016      112.686       58.881    29934.383    12698.174     3467.000        7.111        2.305      309.420       63.905        0.043      341.026       15.450      857.893
05/23/2013  17:54:00     -311.892      -62.932      -21.485      101.535      104.328       43.703    10309.347    10884.247     1909.948        6.240        1.155      318.178       36.672        0.013      340.950       15.324      857.873
05/23/2013  17:55:00     -360.791     -143.644      -12.568      172.644      115.752       61.610    29805.958    13398.425     3795.742        9.897        2.350      388.335       51.433        0.018      340.887       15.215      857.881
05/23/2013  17:56:00     -169.748      -74.690        1.861      159.428      101.907       44.578    25417.380    10385.027     1987.208        3.609        1.889      185.453       57.605        0.096      340.889       15.221      857.895
05/23/2013  17:57:00     -251.441      -51.595      -18.112      131.170      132.293       53.269    17205.675    17501.486     2837.565        5.187        1.877      256.680       32.891        0.016      340.849       15.151      857.896
05/23/2013  17:58:00     -266.374     -104.908       -7.085      128.242      194.416       64.511    16445.947    37797.576     4161.610        7.020        2.920      286.288       37.953        0.018      340.844       15.143      857.878
05/23/2013  17:59:00     -181.116      -27.742        1.609      150.585      115.372       64.738    22675.913    13310.713     4191.005        3.687        2.009      183.229       52.862        0.083      340.881       15.205      857.890
05/23/2013  18:00:00     -212.811       11.334       -5.592      166.716       89.840       74.709    27794.079     8071.196     5581.401        4.344        2.072      213.113       94.733        0.198      340.857       15.163      857.899
05/23/2013  18:01:00     -527.967      -73.040      -40.567      113.299      148.975       60.587    12836.739    22193.557     3670.803       16.221        1.935      532.995       43.820        0.007      340.731       14.951      857.887
05/23/2013  18:02:00     -355.370      -84.033       -9.035      153.127      109.979       71.668    23447.910    12095.487     5136.259        8.705        2.034      365.170       79.607        0.048      340.824       15.107      857.900
05/23/2013  18:03:00     -413.684      -44.556      -11.256      188.182      132.050       76.867    35412.650    17437.272     5908.477       11.599        2.938      416.077       89.471        0.046      340.760       14.999      857.927
05/23/2013  18:04:00     -219.065      -50.834       -5.546      151.843      118.923       67.180    23056.179    14142.603     4513.147        4.615        2.086      224.886       70.453        0.098      340.876       15.196      857.936
05/23/2013  18:05:00     -268.526      -67.651       -6.347      150.173      126.548       58.151    22551.978    16014.517     3381.563        5.933        2.097      276.916       62.118        0.050      340.770       15.019      857.947
05/23/2013  18:06:00     -335.767      -72.842      -11.382      156.580      101.702       53.681    24517.407    10343.202     2881.627        7.795        1.887      343.577       39.236        0.013      340.656       14.824      857.947
05/23/2013  18:07:00     -289.636     -151.410       -0.826      210.043      142.134       66.296    44118.266    20202.117     4395.120        8.775        3.436      326.824       71.545        0.048      340.744       14.973      857.940
05/23/2013  18:08:00     -335.993      -60.653       -1.435      176.528      127.845       69.336    31162.221    16344.385     4807.501        8.443        2.616      341.424       80.949        0.056      340.695       14.891      857.943
05/23/2013  18:09:00     -273.934      -50.634        6.848      153.469      102.863       62.885    23552.848    10580.721     3954.503        5.786        1.904      278.574       71.771        0.066      340.767       15.012      857.936
05/23/2013  18:10:00     -341.391       15.466      -17.399       74.853       88.592       42.035     5602.932     7848.597     1766.942        6.615        0.761      341.741       42.485        0.015      340.672       14.850      857.920
05/23/2013  18:11:00     -251.486     -168.998       -7.349      147.322      102.914       50.931    21703.633    10591.364     2593.942        6.337        1.744      302.994       54.999        0.033      340.829       15.117      857.928
05/23/2013  18:12:00     -297.495     -188.858       -1.430      163.935      118.256       72.894    26874.748    13984.434     5313.605        8.516        2.309      352.378       81.042        0.053      340.932       15.291      857.913
05/23/2013  18:13:00     -281.384     -142.552        0.349      158.138      129.146       70.954    25007.747    16678.675     5034.401        7.310        2.336      315.433       82.184        0.068      341.029       15.457      857.923
05/23/2013  18:14:00     -460.476     -108.654      -18.014      255.303      167.432       98.583    65179.687    28033.487     9718.565       16.353        5.147      473.121      122.859        0.067      340.892       15.224      857.898
05/23/2013  18:15:00     -503.421     -120.891      -13.763      160.526      181.710       96.020    25768.578    33018.642     9219.882       16.811        3.400      517.732       94.762        0.034      340.798       15.063      857.912
05/23/2013  18:16:00     -249.097      -91.138       -2.300      167.552      201.879       66.669    28073.752    40755.262     4444.765        7.180        3.664      265.246       60.134        0.051      340.896       15.229      857.909
05/23/2013  18:17:00     -300.668      -77.036       -6.722      183.205      107.633       73.874    33564.231    11584.820     5457.355        7.348        2.530      310.381       80.314        0.067      340.987       15.385      857.905
05/23/2013  18:18:00     -478.481      -34.941      -32.073      145.126      130.819       73.378    21061.530    17113.696     5384.370       13.737        2.178      479.755       67.840        0.020      340.790       15.051      857.900
05/23/2013  18:19:00     -334.872      -25.906      -21.713      129.673      140.554       56.022    16815.044    19755.479     3138.439        7.649        1.985      335.872       55.166        0.027      340.923       15.276      857.902
05/23/2013  18:20:00     -225.120      -42.854        5.554      151.421      102.973       66.079    22928.241    10603.405     4366.382        4.521        1.895      229.162       71.119        0.096      341.111       15.595      857.925
05/23/2013  18:21:00     -519.279     -132.840      -23.605      135.604      106.000       65.537    18388.546    11235.935     4295.082       16.088        1.696      536.001       67.022        0.016      340.590       14.712      857.920
05/23/2013  18:22:00     -341.277     -149.698       -2.647      161.345      137.189       63.820    26032.141    18820.780     4073.032        9.390        2.446      372.665       73.632        0.039      340.776       15.028      857.905
05/23/2013  18:23:00     -246.703      -36.850       -6.152      116.176      119.032       56.658    13496.917    14168.556     3210.147        4.656        1.544      249.440       64.266        0.066      340.965       15.346      857.900
05/23/2013  18:24:00     -240.553     -173.024        0.491      126.232       89.856       63.651    15934.449     8074.157     4051.490        5.793        1.403      296.316       62.709        0.045      341.056       15.500      857.913
05/23/2013  18:25:00     -379.156     -233.175      -12.129      173.142      148.659       84.957    29978.025    22099.356     7217.736       12.877        2.965      445.118       88.478        0.040      340.764       15.006      857.918
05/23/2013  18:26:00     -336.410     -271.279      -14.148      137.424      145.315       88.320    18885.455    21116.530     7800.368       11.737        2.390      432.162       78.727        0.033      340.803       15.070      857.921
05/23/2013  18:27:00     -354.224     -233.675      -15.857      151.159      143.918       74.131    22848.909    20712.466     5495.475       11.468        2.453      424.357       69.907        0.027      340.838       15.132      857.934
05/23/2013  18:28:00     -307.923     -260.531        8.306      185.776      140.318       70.745    34512.712    19689.277     5004.880       11.097        2.960      403.352       74.915        0.034      340.797       15.063      857.941
05/23/2013  18:29:00     -309.946     -240.769       -8.424      121.208      131.226       69.341    14691.284    17220.356     4808.107        9.541        1.836      392.474       60.741        0.024      340.756       14.993      857.942
05/23/2013  18:30:00     -275.758     -220.865        7.665      151.257      118.731       72.275    22878.796    14097.136     5223.663        8.353        2.110      353.304       73.830        0.044      340.836       15.129      857.941
05/23/2013  18:31:00     -168.200     -113.645        5.439      113.636       98.226       59.720    12913.231     9648.419     3566.496        3.368        1.306      202.994       62.883        0.096      340.922       15.274      857.967
05/23/2013  18:32:00     -169.106        0.373        9.897      113.413      102.431       64.621    12862.407    10492.049     4175.937        2.811        1.377      169.106       57.303        0.115      341.065       15.517      857.988
05/23/2013  18:33:00     -281.277      -98.950      -31.126      161.294      120.228       55.976    26015.700    14454.846     3133.274        6.673        2.180      298.174       70.604        0.056      340.846       15.147      857.998
05/23/2013  18:34:00     -260.381      -29.278      -28.241       96.039       63.532       40.176     9223.500     4036.276     1614.101        4.216        0.744      262.022       43.812        0.028      340.652       14.816      857.975
05/23/2013  18:35:00     -215.734      -94.862        3.801      121.155       81.158       47.069    14678.427     6586.695     2215.490        3.951        1.174      235.669       50.687        0.046      340.796       15.060      857.949
05/23/2013  18:36:00     -114.593      -50.453       14.215      128.482       80.664       50.715    16507.585     6506.750     2572.012        2.073        1.279      125.209       57.512        0.211      340.962       15.342      857.978
05/23/2013  18:37:00     -222.463      -93.479        1.915      168.280      129.930       75.744    28318.253    16881.891     5737.086        5.457        2.547      241.305       77.261        0.103      340.974       15.363      858.004
05/23/2013  18:38:00     -329.506     -170.086       -9.078      176.985      115.211       86.823    31323.607    13273.592     7538.300        9.485        2.607      370.815      101.104        0.074      340.708       14.913      857.998
05/23/2013  18:39:00     -194.171     -151.858        3.062      150.423      111.371       66.716    22627.199    12403.429     4450.975        5.012        1.974      246.503       78.572        0.102      340.716       14.927      857.994
05/23/2013  18:40:00     -161.415      -98.406       12.859      171.519      118.268       53.118    29418.711    13987.322     2821.501        4.106        2.311      189.046       63.145        0.112      340.914       15.261      857.986
05/23/2013  18:41:00     -409.633     -147.819      -16.652      168.268      128.693       73.238    28314.212    16561.804     5363.867       12.007        2.512      435.488       91.129        0.044      340.715       14.923      857.979
05/23/2013  18:42:00     -222.958     -145.510        4.264      132.341      114.293       61.860    17514.060    13062.996     3826.714        5.265        1.720      266.239       73.414        0.076      340.804       15.075      857.985
05/23/2013  18:43:00     -116.711      -62.417       24.393      131.926       79.761       51.077    17404.528     6361.766     2608.819        2.224        1.319      132.353       62.298        0.222      340.905       15.247      857.991
05/23/2013  18:44:00     -368.361     -158.666       -6.934      113.946       99.540       58.741    12983.689     9908.149     3450.558        9.362        1.317      401.079       57.357        0.020      340.640       14.795      857.996
05/23/2013  18:45:00     -227.283     -169.616        3.505      110.813       89.798       54.954    12279.620     8063.691     3019.907        5.190        1.168      283.597       60.936        0.046      340.694       14.888      857.995
05/23/2013  18:46:00     -127.682      -93.438       -0.335       86.990       78.045       34.413     7567.280     6091.088     1184.287        1.994        0.742      158.220       35.665        0.051      340.825       15.111      857.988
05/23/2013  18:47:00      -98.817     -148.054       -0.002       83.482      127.988       41.924     6969.235    16380.886     1757.603        2.839        1.255      178.002       40.388        0.051      340.903       15.242      857.981
05/23/2013  18:48:00     -297.810     -102.244      -10.153      126.793      118.778       57.756    16076.420    14108.271     3335.792        6.638        1.676      314.872       53.634        0.029      340.726       14.943      857.967
05/23/2013  18:49:00     -248.145      -77.825       -6.142      118.173      103.691       57.903    13964.909    10751.740     3352.752        4.786        1.403      260.063       51.135        0.039      340.847       15.147      857.983
05/23/2013  18:50:00     -233.825     -111.264        6.698      140.100      104.851       64.075    19627.980    10993.825     4105.624        5.091        1.736      258.947       68.829        0.071      340.875       15.195      858.005
05/23/2013  18:51:00     -140.294     -100.007       13.545      147.320       91.879       75.485    21703.157     8441.720     5697.924        3.285        1.792      172.289       79.029        0.210      340.941       15.307      858.030
05/23/2013  18:52:00     -239.615     -103.673       -4.777      135.313      102.392       63.238    18309.561    10484.215     3999.040        5.048        1.640      261.081       56.378        0.047      340.907       15.248      858.057
05/23/2013  18:53:00     -223.299      -42.977       -2.587      144.376       80.640       58.578    20844.422     6502.779     3431.336        4.124        1.539      227.397       56.568        0.062      340.825       15.109      858.081
05/23/2013  18:54:00     -153.194     -119.109        1.439      117.525       84.878       49.151    13812.062     7204.218     2415.862        3.054        1.172      194.050       50.248        0.067      340.799       15.065      858.082
05/23/2013  18:55:00     -341.241     -106.335       -4.814      126.655      130.512       62.108    16041.606    17033.254     3857.414        8.235        1.847      357.425       60.841        0.029      340.705       14.907      858.093
05/23/2013  18:56:00     -158.544      -88.959       12.316      129.663       87.615       65.613    16812.591     7676.356     4305.125        3.099        1.440      181.797       78.321        0.186      340.760       15.000      858.088
05/23/2013  18:57:00     -331.421      -77.865       -8.743      152.862       89.087       59.953    23366.797     7936.428     3594.328        7.543        1.745      340.445       62.474        0.034      340.745       14.974      858.102
05/23/2013  18:58:00     -232.833     -115.567        3.354      199.633      109.271       61.155    39853.473    11940.185     3739.933        6.154        2.777      259.937       59.614        0.053      340.782       15.037      858.096
05/23/2013  18:59:00     -155.235      -26.567      -33.384      128.881       72.913       53.163    16610.320     5316.245     2826.280        2.533        1.238      157.492       42.220        0.072      340.877       15.199      858.131
05/23/2013  19:00:00     -184.691      -46.120       -3.506       91.634       93.958       51.780     8396.846     8828.192     2681.132        2.807        0.995      190.362       49.730        0.068      340.824       15.109      858.128
05/23/2013  19:01:00     -167.669       45.916      -33.778      114.187      103.578       49.886    13038.565    10728.421     2488.601        2.880        1.313      173.843       45.194        0.068      340.766       15.009      858.132
05/23/2013  19:02:00     -226.041      -33.166      -26.730      118.787       91.468       50.312    14110.445     8366.356     2531.346        3.895        1.250      228.461       39.432        0.030      340.921       15.271      858.118
05/23/2013  19:03:00     -281.918      -61.286      -13.318       80.876      100.592       51.494     6540.950    10118.728     2651.669        5.136        0.966      288.503       47.803        0.027      340.771       15.017      858.137
05/23/2013  19:04:00     -305.764      -92.060      -17.191       91.452       80.971       53.324     8363.516     6556.224     2843.423        6.001        0.888      319.322       35.886        0.013      340.722       14.935      858.162
05/23/2013  19:05:00     -242.522      -84.554       -8.956       87.544       81.013       66.227     7663.873     6563.136     4385.977        4.233        0.931      256.839       54.318        0.045      340.745       14.975      858.170
05/23/2013  19:06:00     -210.695      -61.961      -14.713      104.169       80.253       47.010    10851.107     6440.551     2209.986        3.397        0.975      219.617       45.326        0.043      340.771       15.021      858.194
05/23/2013  19:07:00     -241.801      -81.650      -14.269       70.902       90.622       46.239     5027.129     8212.315     2138.083        4.035        0.769      255.214       28.649        0.013      340.772       15.020      858.194
05/23/2013  19:08:00     -365.519     -149.130      -18.167      188.055      115.749       55.951    35364.803    13397.844     3130.556       10.402        2.595      394.771       62.639        0.025      340.659       14.829      858.207
05/23/2013  19:09:00     -261.805      -54.280      -19.520      121.236      113.210       60.228    14698.275    12816.576     3627.439        5.150        1.557      267.373       60.075        0.050      340.623       14.769      858.213
05/23/2013  19:10:00     -280.377      -87.273      -15.428      115.353       82.627       54.706    13306.253     6827.167     2992.755        5.479        1.156      293.646       58.943        0.040      340.613       14.750      858.216
05/23/2013  19:11:00     -217.158      -36.209      -19.119       92.595       51.857       36.897     8573.826     2689.098     1361.384        3.073        0.631      220.156       40.119        0.033      340.694       14.886      858.225
05/23/2013  19:12:00     -207.376      -95.060       -6.306      128.223       77.825       56.179    16441.208     6056.739     3156.043        3.886        1.283      228.126       63.968        0.079      340.735       14.956      858.240
05/23/2013  19:13:00     -381.440     -130.530      -13.034      116.529       86.428       51.635    13578.924     7469.873     2666.214        9.320        1.186      403.156       43.924        0.012      340.650       14.813      858.255
05/23/2013  19:14:00     -313.126     -119.532       -9.527      133.099       76.158       52.988    17715.342     5799.977     2807.753        6.937        1.316      335.165       68.264        0.041      340.619       14.762      858.283
05/23/2013  19:15:00     -353.189      -14.904      -36.313       80.940       64.311       40.603     6551.248     4135.939     1648.589        6.931        0.617      353.504       37.574        0.011      340.560       14.662      858.292
05/23/2013  19:16:00     -250.538      -83.863       -6.263      106.212       60.633       46.290    11281.069     3676.403     2142.791        4.347        0.855      264.201       52.062        0.039      340.633       14.783      858.298
05/23/2013  19:17:00     -199.210     -152.785       -5.746      131.671      103.469       55.606    17337.152    10705.852     3092.014        4.709        1.557      251.053       65.932        0.069      340.544       14.634      858.301
05/23/2013  19:18:00     -161.895      -36.555        8.089       85.731       81.107       48.523     7349.877     6578.338     2354.468        2.194        0.814      165.971       44.278        0.071      340.607       14.742      858.315
05/23/2013  19:19:00     -158.383      -56.481       -1.357       88.924       47.164       37.950     7907.438     2224.410     1440.212        1.992        0.579      168.152       37.652        0.050      340.714       14.924      858.333
05/23/2013  19:20:00     -173.223      -50.720        2.763       81.951       72.422       46.723     6716.011     5244.961     2183.071        2.336        0.707      180.496       35.890        0.040      340.712       14.920      858.358
05/23/2013  19:21:00     -345.722      -69.218       -1.013      135.101      114.245       58.242    18252.199    13052.025     3392.173        7.950        1.735      352.583       62.145        0.031      340.580       14.695      858.362
05/23/2013  19:22:00     -209.456       -3.453        7.633       85.156       67.518       45.467     7251.498     4558.700     2067.213        2.891        0.694      209.485       31.688        0.023      340.643       14.804      858.370
05/23/2013  19:23:00     -206.329        2.075       -8.655       99.241       60.741       47.527     9848.820     3689.513     2258.771        2.922        0.790      206.339       48.201        0.055      340.663       14.836      858.392
05/23/2013  19:24:00     -322.988       45.378      -24.945      103.396       76.174       45.420    10690.638     5802.519     2063.012        6.278        0.928      326.161       38.168        0.014      340.632       14.782      858.388
05/23/2013  19:25:00     -188.411      -39.796      -10.914       97.731       70.621       34.423     9551.338     4987.256     1184.933        2.646        0.786      192.568       29.301        0.023      340.659       14.830      858.388
05/23/2013  19:26:00     -259.131      -97.813      -15.855       87.676       74.448       39.313     7687.033     5542.491     1545.538        4.587        0.739      276.976       28.831        0.011      340.673       14.852      858.401
05/23/2013  19:27:00     -318.871      -76.246      -25.170      177.225       90.044       56.494    31408.753     8107.927     3191.625        7.541        2.135      327.860       64.584        0.039      340.547       14.641      858.393
05/23/2013  19:28:00     -198.013       -8.110       -4.121      101.636       79.974       52.179    10329.863     6395.797     2722.682        2.937        0.972      198.179       52.810        0.071      340.631       14.782      858.402
05/23/2013  19:29:00     -325.620        8.413      -32.545      105.559       97.994       58.479    11142.675     9602.802     3419.845        6.566        1.208      325.728       49.922        0.023      340.514       14.585      858.409
05/23/2013  19:30:00     -334.788     -163.909      -17.712      135.849       99.842       53.539    18455.067     9968.397     2866.398        8.527        1.564      372.759       58.678        0.025      340.445       14.467      858.411
05/23/2013  19:31:00     -283.946       -5.695      -26.174      128.480       88.543       45.734    16507.033     7839.951     2091.624        5.389        1.322      284.003       52.103        0.034      340.507       14.571      858.423
05/23/2013  19:32:00     -388.717      -55.798      -33.026       92.454       85.975       53.823     8547.809     7391.782     2896.932        8.707        0.942      392.702       46.446        0.014      340.477       14.521      858.446
05/23/2013  19:33:00     -315.861       -8.106      -18.477      112.136       93.889       49.937    12574.549     8815.183     2493.656        6.202        1.194      315.965       47.730        0.023      340.484       14.532      858.452
05/23/2013  19:34:00     -275.035      -65.864      -13.472      115.888       98.752       47.537    13429.915     9751.960     2259.807        5.280        1.272      282.812       38.780        0.019      340.468       14.506      858.469
05/23/2013  19:35:00     -302.631      -65.372       -9.273      171.703      103.667       69.433    29481.898    10746.786     4820.897        7.049        2.252      309.611       66.274        0.046      340.456       14.487      858.480
05/23/2013  19:36:00     -238.888      -60.821       -5.557      131.631       96.076       54.341    17326.683     9230.663     2952.898        4.515        1.476      246.509       65.672        0.071      340.430       14.442      858.494
05/23/2013  19:37:00     -259.539      -63.925      -13.698      132.581       84.476       53.402    17577.689     7136.140     2851.790        4.959        1.378      267.295       56.928        0.045      340.417       14.421      858.506
05/23/2013  19:38:00     -294.687      -41.056      -21.893      142.254      112.504       55.431    20236.147    12657.082     3072.641        6.248        1.798      297.534       57.010        0.037      340.402       14.395      858.529
05/23/2013  19:39:00     -333.747      -69.488      -28.373      112.359       83.596       49.839    12624.456     6988.288     2483.936        6.955        1.105      340.904       42.133        0.015      340.379       14.357      858.556
05/23/2013  19:40:00     -185.330      -61.921       -1.959      125.493       91.882       51.283    15748.596     8442.298     2629.929        3.250        1.341      195.401       56.592        0.084      340.411       14.409      858.578
05/23/2013  19:41:00     -196.132      -96.634       -8.234      110.317       69.025       51.932    12169.733     4764.444     2696.946        3.375        0.982      218.646       48.842        0.050      340.416       14.420      858.589
05/23/2013  19:42:00     -217.556      -98.309      -10.548       84.163       59.940       38.376     7083.419     3592.809     1472.697        3.463        0.607      238.737       38.647        0.026      340.324       14.261      858.619
05/23/2013  19:43:00     -335.679     -121.410       -7.976       80.217       84.120       51.950     6434.737     7076.245     2698.841        7.184        0.810      356.961       44.840        0.016      340.303       14.227      858.612
05/23/2013  19:44:00     -246.853      -82.071       -8.062       85.223       56.917       36.202     7262.896     3239.489     1310.586        3.977        0.591      260.139       34.497        0.018      340.318       14.253      858.627
05/23/2013  19:45:00     -272.908     -118.476       -0.476       77.066       61.874       45.300     5939.139     3828.433     2052.122        5.017        0.591      297.515       36.799        0.015      340.273       14.177      858.637
05/23/2013  19:46:00     -205.527      -54.339        8.655       97.920       73.241       58.642     9588.259     5364.242     3438.828        3.183        0.920      212.589       60.394        0.081      340.261       14.156      858.652
05/23/2013  19:47:00     -204.043      -39.155       -2.178       96.265       57.817       41.486     9267.009     3342.828     1721.074        2.875        0.717      207.765       46.598        0.050      340.227       14.097      858.664
05/23/2013  19:48:00     -126.371      -28.005        3.625       67.211       57.867       31.429     4517.309     3348.611      987.792        1.281        0.443      129.437       34.418        0.071      340.226       14.098      858.672
05/23/2013  19:49:00     -206.144      -44.398       -4.000       84.331       54.619       39.971     7111.740     2983.187     1597.714        2.809        0.585      210.871       36.594        0.030      340.272       14.176      858.666
05/23/2013  19:50:00     -275.539      -68.839       -2.045       74.262       68.223       38.170     5514.843     4654.315     1456.984        4.614        0.581      284.008       35.158        0.015      340.212       14.073      858.673
05/23/2013  19:51:00     -255.370      -77.751       -3.390       67.276       76.033       41.531     4526.085     5781.037     1724.836        4.165        0.602      266.944       32.799        0.015      340.207       14.064      858.685
05/23/2013  19:52:00     -259.928      -23.237      -13.877       79.769       81.469       48.136     6363.023     6637.277     2317.093        4.180        0.766      260.965       28.360        0.012      340.186       14.029      858.689
05/23/2013  19:53:00     -224.633      -24.236      -26.194       81.185       74.873       45.104     6591.022     5605.898     2034.362        3.298        0.712      225.937       30.253        0.018      340.195       14.045      858.674
05/23/2013  19:54:00     -264.926      -92.081      -12.431       90.938       80.530       45.969     8269.708     6485.037     2113.186        4.784        0.843      280.472       39.792        0.020      340.163       13.989      858.669
05/23/2013  19:55:00     -236.271      -67.354      -22.964       65.496       59.094       30.038     4289.726     3492.153      902.283        3.478        0.434      245.684       19.325        0.006      340.180       14.021      858.660
05/23/2013  19:56:00     -281.348      -65.392      -17.081       90.772       82.899       41.716     8239.612     6872.310     1740.254        5.028        0.843      288.847       37.877        0.017      340.141       13.953      858.653
05/23/2013  19:57:00     -258.278      -82.860      -10.528       85.156       75.103       45.092     7251.577     5640.533     2033.258        4.430        0.746      271.244       49.879        0.034      340.110       13.901      858.642
05/23/2013  19:58:00     -182.344      -28.072      -11.807       71.978       73.366       39.000     5180.887     5382.507     1521.014        2.313        0.604      184.493       27.855        0.023      340.140       13.953      858.638
05/23/2013  19:59:00     -185.670      -41.954       -9.670       77.451       61.161       34.565     5998.703     3740.662     1194.735        2.363        0.547      190.351       37.580        0.039      340.088       13.864      858.636
05/23/2013  20:00:00     -164.879      -67.130       -2.046       68.063       67.146       34.536     4632.549     4508.543     1192.762        2.101        0.517      178.021       30.515        0.029      340.090       13.870      858.636
05/23/2013  20:01:00     -256.404      -22.812      -17.483       74.564       65.361       38.074     5559.765     4272.007     1449.631        3.892        0.564      257.417       39.226        0.023      340.082       13.855      858.628
05/23/2013  20:02:00     -257.339      -38.373      -26.227       65.243       68.525       33.390     4256.681     4695.710     1114.909        3.922        0.503      260.184       29.856        0.013      340.061       13.818      858.620
05/23/2013  20:03:00     -181.741      -76.815      -12.072       70.546       45.675       36.723     4976.692     2086.229     1348.549        2.374        0.421      197.308       25.973        0.017      340.044       13.792      858.640
05/23/2013  20:04:00     -207.019      -28.641      -16.663       72.098       69.225       30.123     5198.100     4792.035      907.368        2.742        0.545      208.991       30.629        0.021      340.045       13.790      858.655
05/23/2013  20:05:00     -190.621      -41.142      -13.083       31.318       51.453       24.911      980.816     2647.450      620.568        2.122        0.212      195.010       13.372        0.005      340.098       13.881      858.671
05/23/2013  20:06:00     -182.880      -39.190      -12.220       46.083       55.845       28.003     2123.653     3118.684      784.165        2.058        0.301      187.031       20.971        0.013      340.013       13.739      858.688
05/23/2013  20:07:00     -179.249      -54.522       -5.884       44.376       62.982       32.759     1969.226     3966.677     1073.144        2.107        0.350      187.358       24.087        0.017      339.969       13.666      858.708
05/23/2013  20:08:00     -180.138      -60.660      -11.664       57.262       61.017       29.437     3278.983     3723.025      866.526        2.207        0.393      190.077       22.839        0.014      339.993       13.704      858.743
05/23/2013  20:09:00     -165.299      -39.271       -9.475       73.334       69.751       31.492     5377.943     4865.169      991.744        2.009        0.562      169.900       30.653        0.033      339.968       13.664      858.778
05/23/2013  20:10:00     -174.276      -70.294      -10.232       66.578       46.786       30.425     4432.613     2188.963      925.697        2.148        0.377      187.919       23.914        0.016      339.946       13.627      858.789
05/23/2013  20:11:00     -162.781      -58.895       -9.020       59.972       52.060       33.264     3596.623     2710.277     1106.483        1.873        0.371      173.107       34.698        0.040      339.921       13.585      858.796
05/23/2013  20:12:00     -164.617      -34.552      -13.122       42.542       55.981       26.703     1809.846     3133.863      713.043        1.706        0.283      168.204       21.819        0.017      339.903       13.554      858.803
05/23/2013  20:13:00     -250.352      -23.122      -31.709       43.493       46.334       30.545     1891.622     2146.837      932.993        3.459        0.249      251.417       24.239        0.009      339.864       13.484      858.817
05/23/2013  20:14:00     -206.086      -21.908      -22.219       44.026       33.433       27.932     1938.290     1117.788      780.211        2.364        0.192      207.248       28.537        0.019      339.819       13.412      858.821
05/23/2013  20:15:00     -194.613      -26.033      -17.810       75.501       53.193       31.381     5700.333     2829.451      984.781        2.419        0.476      196.347       34.727        0.031      339.796       13.373      858.820
05/23/2013  20:16:00     -223.451      -36.000      -17.716       87.281       55.018       42.811     7618.004     3027.007     1832.802        3.201        0.624      226.333       48.080        0.045      339.729       13.259      858.822
05/23/2013  20:17:00     -219.702      -29.224      -17.085       64.787       45.585       34.772     4197.414     2078.022     1209.060        2.845        0.374      221.637       34.130        0.024      339.700       13.209      858.816
05/23/2013  20:18:00     -245.905      -28.675      -24.955       51.458       32.714       33.042     2647.875     1070.227     1091.805        3.336        0.240      247.571       25.982        0.011      339.636       13.100      858.813
05/23/2013  20:19:00     -147.609      -51.738       -7.151       54.524       63.362       28.813     2972.864     4014.704      830.205        1.617        0.391      156.414       31.625        0.041      339.648       13.125      858.826
05/23/2013  20:20:00     -158.019      -50.882      -12.747       48.273       42.821       30.291     2330.326     1833.660      917.565        1.640        0.254      166.009       22.448        0.018      339.603       13.050      858.838
05/23/2013  20:21:00     -207.478      -15.147      -11.687       54.849       62.076       26.086     3008.421     3853.468      680.457        2.548        0.377      208.030       21.552        0.011      339.569       12.989      858.834
05/23/2013  20:22:00     -177.441      -11.519      -11.616       46.079       43.883       23.356     2123.271     1925.748      545.481        1.817        0.230      177.814       21.382        0.014      339.543       12.948      858.845
05/23/2013  20:23:00     -156.138      -62.863      -16.423       42.853       56.499       23.881     1836.395     3192.088      570.322        1.710        0.280      168.318       19.539        0.013      339.557       12.971      858.847
05/23/2013  20:24:00     -154.617      -10.820       -8.381       57.918       48.248       35.367     3354.456     2327.825     1250.855        1.551        0.347      154.995       32.889        0.045      339.557       12.970      858.860
05/23/2013  20:25:00     -125.363      -52.826      -13.946       77.712       43.529       30.293     6039.126     1894.775      917.693        1.377        0.443      136.038       32.607        0.057      339.561       12.978      858.870
05/23/2013  20:26:00     -155.433      -18.752      -11.018       51.477       52.746       28.219     2649.875     2782.095      796.320        1.543        0.311      156.560       29.478        0.035      339.469       12.822      858.878
05/23/2013  20:27:00     -195.190      -52.153      -19.589       37.875       46.670       32.930     1434.519     2178.132     1084.365        2.295        0.235      202.038       21.416        0.011      339.440       12.771      858.879
05/23/2013  20:28:00     -199.893      -13.113      -19.684       66.006       47.946       33.006     4356.839     2298.829     1089.419        2.413        0.387      200.323       29.874        0.022      339.447       12.785      858.866
05/23/2013  20:29:00     -222.091      -38.434      -15.441       53.302       69.847       31.086     2841.072     4878.541      966.337        2.986        0.434      225.392       22.298        0.010      339.451       12.789      858.865
05/23/2013  20:30:00     -191.378      -15.360      -18.436       58.091       43.022       28.750     3374.546     1850.905      826.577        2.163        0.303      191.994       30.025        0.024      339.444       12.779      858.862
05/23/2013  20:31:00     -217.544      -63.142      -19.399       55.677       40.871       26.367     3099.892     1670.447      695.227        2.858        0.273      226.522       24.929        0.012      339.427       12.750      858.879
05/23/2013  20:32:00     -177.142      -56.988       -9.358       55.492       40.845       31.795     3079.375     1668.311     1010.901        2.024        0.288      186.083       28.441        0.023      339.380       12.671      858.899
05/23/2013  20:33:00     -194.552      -61.826      -15.996       42.226       42.598       28.634     1783.013     1814.604      819.920        2.317        0.221      204.139       19.328        0.009      339.341       12.605      858.914
05/23/2013  20:34:00     -190.248      -68.179      -19.466       57.759       44.565       29.834     3336.142     1986.057      890.090        2.372        0.311      202.096       20.517        0.010      339.343       12.608      858.927
05/23/2013  20:35:00     -182.695      -66.492      -13.925       50.648       41.154       36.020     2565.183     1693.687     1297.406        2.177        0.278      194.419       22.364        0.013      339.269       12.483      858.941
05/23/2013  20:36:00     -182.010      -23.755      -11.579       69.160       49.799       38.335     4783.151     2479.915     1469.535        2.128        0.437      183.554       36.961        0.041      339.348       12.617      858.950
05/23/2013  20:37:00     -198.668      -50.297      -19.592       83.760       42.331       28.078     7015.727     1791.951      788.378        2.599        0.480      204.936       26.400        0.017      339.299       12.532      858.956
05/23/2013  20:38:00     -190.166      -58.108      -10.736       54.695       61.440       35.396     2991.550     3774.881     1252.859        2.384        0.401      198.846       20.108        0.010      339.303       12.541      858.958
05/23/2013  20:39:00     -199.612      -25.050      -10.412      100.401       66.194       41.571    10080.318     4381.693     1728.115        2.838        0.810      201.177       48.698        0.059      339.282       12.505      858.958
05/23/2013  20:40:00     -174.044      -41.811       -9.584       89.697       71.815       45.717     8045.508     5157.452     2090.034        2.371        0.765      178.996       48.593        0.074      339.291       12.523      858.954
05/23/2013  20:41:00     -121.620      -68.652       -4.724       62.816       61.085       31.225     3945.840     3731.329      974.995        1.409        0.433      139.659       20.959        0.023      339.259       12.468      858.948
05/23/2013  20:42:00     -157.000      -69.862      -10.051       71.856       44.513       32.126     5163.285     1981.367     1032.073        1.890        0.409      171.842       27.665        0.026      339.258       12.466      858.942
05/23/2013  20:43:00     -145.112      -31.523      -27.897       78.226       40.718       35.400     6119.234     1657.934     1253.188        1.593        0.452      148.497       25.585        0.030      339.268       12.484      858.941
05/23/2013  20:44:00     -122.034      -32.381      -20.298       56.243       46.189       42.621     3163.306     2133.407     1816.535        1.173        0.356      126.257       28.637        0.051      339.269       12.487      858.936
05/23/2013  20:45:00     -128.895      -27.577      -16.210       46.484       41.218       26.820     2160.768     1698.937      719.335        1.111        0.229      131.812       13.668        0.011      339.243       12.442      858.935
05/23/2013  20:46:00     -118.581      -29.775       -9.635       50.229       42.852       24.515     2522.917     1836.280      600.974        1.000        0.248      122.262        9.660        0.006      339.164       12.310      858.947
05/23/2013  20:47:00      -99.893      -18.032       -9.350       61.961       47.659       33.586     3839.172     2271.361     1128.049        0.881        0.362      101.507       22.697        0.050      339.221       12.405      858.948
05/23/2013  20:48:00     -100.080      -27.932      -11.538       44.451       43.006       33.890     1975.875     1849.496     1148.519        0.795        0.249      103.905       24.480        0.056      339.181       12.338      858.960
05/23/2013  20:49:00     -105.343      -27.829      -14.111       66.535       33.096       25.905     4426.842     1095.337      671.089        0.913        0.310      108.957       25.658        0.055      339.160       12.304      858.970
05/23/2013  20:50:00     -185.459       -7.087      -21.906       38.360       44.119       25.002     1471.501     1946.511      625.123        1.948        0.202      185.595       14.041        0.006      339.043       12.105      858.973
05/23/2013  20:51:00     -124.408      -12.159      -15.450       56.958       51.296       32.909     3244.164     2631.245     1082.987        1.141        0.348      125.001       28.056        0.050      338.985       12.009      858.970
05/23/2013  20:52:00     -104.841      -32.755       -6.425       77.941       43.530       32.054     6074.830     1894.831     1027.459        1.055        0.450      109.839       34.311        0.098      338.986       12.010      858.966
05/23/2013  20:53:00     -148.562      -37.121      -14.932       60.608       63.268       38.272     3673.300     4002.858     1464.746        1.640        0.457      153.130       32.353        0.045      338.984       12.006      858.964
05/23/2013  20:54:00     -123.724      -39.339      -15.226       53.676       53.189       37.701     2881.074     2829.049     1421.368        1.211        0.357      129.828       25.656        0.039      338.981       12.003      858.971
05/23/2013  20:55:00     -131.700      -50.071      -16.584       81.414       61.790       38.953     6628.320     3817.950     1517.322        1.604        0.598      140.897       31.934        0.051      338.990       12.016      858.961
05/23/2013  20:56:00     -107.317      -33.683       -7.816       84.426       55.298       43.855     7127.740     3057.923     1923.220        1.241        0.605      112.478       48.340        0.185      338.929       11.914      858.971
05/23/2013  20:57:00     -149.461      -20.336      -16.517       42.389       44.127       27.463     1796.855     1947.178      754.217        1.376        0.225      150.838       22.062        0.021      339.023       12.072      858.974
05/23/2013  20:58:00     -123.216      -40.022      -15.126       56.291       48.528       31.570     3168.656     2354.972      996.664        1.177        0.326      129.552       30.434        0.055      338.979       11.997      858.988
05/23/2013  20:59:00     -146.799      -48.060      -11.402       68.828       40.227       28.368     4737.230     1618.215      804.752        1.557        0.358      154.466       20.683        0.018      338.932       11.919      858.985
05/23/2013  21:00:00     -100.250      -51.177      -15.976       72.836       42.742       34.028     5305.122     1826.873     1157.935        1.061        0.414      112.557       36.699        0.106      338.916       11.892      859.003
05/23/2013  21:01:00     -122.565      -66.035      -10.953       68.882       51.827       35.542     4744.758     2685.996     1263.231        1.410        0.435      139.222       24.480        0.031      338.913       11.887      858.999
05/23/2013  21:02:00     -158.546      -58.398      -17.232      107.335       50.018       38.112    11520.860     2501.837     1452.513        2.216        0.774      168.960       31.924        0.036      338.874       11.819      859.008
05/23/2013  21:03:00     -213.065      -37.680      -13.568       64.212       73.581       36.113     4123.147     5414.142     1304.144        2.892        0.542      216.371       31.698        0.021      338.950       11.947      859.004
05/23/2013  21:04:00     -267.686      -51.059      -19.219       72.664       71.152       47.907     5280.079     5062.584     2295.048        4.363        0.632      272.512       44.084        0.026      339.003       12.037      859.001
05/23/2013  21:05:00     -243.312      -35.466      -25.293       57.665       74.941       40.603     3325.307     5616.219     1648.601        3.584        0.530      245.883       25.293        0.011      339.001       12.032      858.994
05/23/2013  21:06:00     -202.562       -1.463      -25.670       65.003       65.342       30.454     4225.408     4269.609      927.449        2.556        0.471      202.567       27.588        0.019      339.083       12.171      859.000
05/23/2013  21:07:00     -130.134      -73.735       -6.298       77.512       55.492       39.046     6008.148     3079.404     1524.617        1.651        0.531      149.571       38.213        0.065      339.053       12.123      858.999
05/23/2013  21:08:00     -134.174      -43.882      -14.428       43.665       32.881       27.475     1906.664     1081.181      754.895        1.194        0.187      141.168       22.718        0.026      339.027       12.080      859.002
05/23/2013  21:09:00     -163.438      -68.709      -12.579       91.234       49.212       34.565     8323.593     2421.810     1194.759        2.176        0.597      177.294       33.443        0.036      339.001       12.034      859.015
05/23/2013  21:10:00     -166.865      -47.293       -0.778       51.909       45.229       28.775     2694.535     2045.650      828.014        1.782        0.278      173.438       24.819        0.020      338.973       11.989      859.020
05/23/2013  21:11:00     -132.360      -52.097       -6.130       55.802       38.713       28.208     3113.822     1498.704      795.664        1.284        0.270      142.243       20.440        0.021      338.956       11.960      859.035
05/23/2013  21:12:00     -139.024      -55.725       -4.656       45.152       32.691       21.852     2038.725     1068.681      477.504        1.302        0.179      149.777       18.660        0.016      338.923       11.904      859.044
05/23/2013  21:13:00     -113.719      -57.771       -6.410       72.530       56.462       38.836     5260.607     3187.963     1508.261        1.313        0.498      127.553       39.736        0.097      339.009       12.047      859.061
05/23/2013  21:14:00     -129.710      -21.268       -5.747       71.998       51.743       33.395     5183.703     2677.357     1115.234        1.314        0.449      131.443       18.586        0.020      338.933       11.920      859.074
05/23/2013  21:15:00     -182.340      -31.189      -15.664       36.522       47.760       22.950     1333.826     2281.040      526.690        1.930        0.207      184.988       17.623        0.009      338.850       11.782      859.081
05/23/2013  21:16:00     -183.750       21.063      -20.709       67.025       33.487       28.467     4492.299     1121.396      810.378        2.053        0.321      184.953       34.122        0.034      338.835       11.753      859.083
05/23/2013  21:17:00     -207.352        6.898      -23.711       47.117       41.966       27.389     2220.043     1761.149      750.171        2.417        0.237      207.467       22.527        0.012      338.806       11.706      859.089
05/23/2013  21:18:00     -195.411      -18.981      -20.598       40.966       43.928       22.974     1678.226     1929.642      527.800        2.155        0.207      196.331       17.192        0.008      338.781       11.666      859.083
05/23/2013  21:19:00     -123.651        5.213      -13.169       18.825       35.837       17.488      354.383     1284.264      305.838        0.872        0.097      123.761        7.195        0.003      338.738       11.591      859.084
05/23/2013  21:20:00     -109.684        5.986      -15.253       43.063       24.461       21.739     1854.385      598.353      472.579        0.761        0.146      109.848       20.357        0.034      338.773       11.653      859.084
05/23/2013  21:21:00     -130.452       17.247      -17.907       24.141       33.279       22.190      582.773     1107.473      492.418        0.991        0.109      131.588       12.464        0.009      338.802       11.701      859.097
05/23/2013  21:22:00     -114.365      -45.853      -19.031       41.206       55.023       24.185     1697.961     3027.546      584.902        1.043        0.266      123.215       17.454        0.020      338.835       11.756      859.099
05/23/2013  21:23:00     -114.159      -23.267      -15.860       34.978       37.456       21.574     1223.461     1402.945      465.430        0.846        0.155      116.505        9.532        0.007      338.812       11.717      859.115
05/23/2013  21:24:00      -66.144      -37.687        2.978       54.979       43.845       19.068     3022.700     1922.427      363.608        0.556        0.265       76.127       19.841        0.068      338.777       11.659      859.133
05/23/2013  21:25:00      -29.990      -32.412       12.854       43.305       31.196       23.307     1875.358      973.162      543.194        0.275        0.170       44.158       22.922        0.269      338.656       11.455      859.150
05/23/2013  21:26:00     -102.787      -60.630        0.892       61.478       48.706       22.350     3779.517     2372.320      499.544        1.045        0.333      119.336       22.634        0.036      338.673       11.485      859.171
05/23/2013  21:27:00     -161.281      -51.267      -10.333       32.675       28.463       20.122     1067.654      810.146      404.879        1.551        0.114      169.233       14.641        0.007      338.620       11.395      859.192
05/23/2013  21:28:00     -112.570      -14.450       -1.873       50.991       28.129       20.923     2600.040      791.251      437.773        0.836        0.191      113.494       23.618        0.043      338.587       11.339      859.219
05/23/2013  21:29:00      -45.307      -24.767        6.579       24.636       19.935       14.403      606.955      397.385      207.456        0.196        0.061       51.635       11.414        0.049      338.589       11.343      859.252
05/23/2013  21:30:00      -57.809      -22.301        3.349       30.690       27.542       13.617      941.869      758.581      185.409        0.287        0.094       61.961       13.210        0.045      338.619       11.393      859.278
05/23/2013  21:31:00     -119.698      -80.634       -3.819       38.823       76.059       26.546     1507.190     5785.002      704.694        1.442        0.400      144.324       21.742        0.023      338.801       11.699      859.306
05/23/2013  21:32:00      -88.498      -62.880       -0.746       51.774       59.116       32.731     2680.527     3494.704     1071.344        0.951        0.362      108.563       26.245        0.058      338.770       11.648      859.309
05/23/2013  21:33:00     -157.779       -0.867      -15.152       37.706       38.960       27.265     1421.708     1517.881      743.365        1.440        0.184      157.782       24.768        0.025      338.749       11.613      859.318
05/23/2013  21:34:00     -124.020        4.948       -7.915       59.739       36.053       22.715     3568.758     1299.852      515.952        1.043        0.269      124.118       16.021        0.017      338.729       11.578      859.330
05/23/2013  21:35:00     -180.676       10.355       -8.920       37.739       37.570       19.844     1424.242     1411.517      393.783        1.803        0.161      180.973       12.024        0.004      338.734       11.585      859.327
05/23/2013  21:36:00     -115.035      -28.668       -9.299       34.194       36.181       21.999     1169.228     1309.099      483.965        0.855        0.148      118.553       14.454        0.015      338.640       11.429      859.346
05/23/2013  21:37:00      -84.561      -38.884       -6.009       34.932       38.606       20.117     1220.257     1490.435      404.696        0.591        0.156       93.072       20.004        0.046      338.635       11.422      859.361
05/23/2013  21:38:00     -110.665      -30.035      -10.811       32.124       27.499       15.567     1031.978      756.194      242.320        0.765        0.102      114.668       14.583        0.016      338.705       11.539      859.374
05/23/2013  21:39:00     -111.188      -34.473       -0.181       33.519       27.787       18.932     1123.527      772.096      358.410        0.790        0.113      116.410       17.803        0.023      338.694       11.520      859.400
05/23/2013  21:40:00     -114.159      -38.737      -10.818       31.412       18.883       11.970      986.687      356.566      143.292        0.807        0.074      120.552        9.974        0.007      338.681       11.500      859.419
05/23/2013  21:41:00      -81.717      -29.337        1.661       36.846       27.814       20.503     1357.594      773.624      420.368        0.505        0.128       86.824       18.845        0.047      338.607       11.375      859.435
05/23/2013  21:42:00      -60.091      -31.772       -0.121       24.304       25.898       14.221      590.680      670.698      202.224        0.304        0.073       67.973       11.823        0.030      338.635       11.420      859.466
05/23/2013  21:43:00      -20.798       -0.525       12.472       27.131       18.366       16.349      736.074      337.310      267.277        0.096        0.067       20.804       18.503        0.791      338.573       11.316      859.484
05/23/2013  21:44:00       11.710       16.942       -4.202       13.837       11.315        9.017      191.471      128.033       81.308        0.042        0.020       20.595        7.278        0.125      338.594       11.353      859.492
05/23/2013  21:45:00        5.532       21.244       10.429       14.421       14.547        8.709      207.957      211.612       75.843        0.054        0.025       21.953        5.954        0.074      338.591       11.346      859.517
05/23/2013  21:46:00       24.296       44.627       26.555       24.965       19.417       16.895      623.242      377.023      285.451        0.229        0.064       50.812       16.057        0.100      338.633       11.419      859.522
05/23/2013  21:47:00       22.919       39.759       32.622       23.036       17.374       15.850      530.652      301.863      251.210        0.213        0.054       45.892       10.945        0.057      338.474       11.151      859.530
05/23/2013  21:48:00       42.165       40.594       21.540       16.911       13.092       18.694      285.989      171.407      349.479        0.235        0.040       58.530        9.716        0.028      338.470       11.143      859.548
05/23/2013  21:49:00       45.256       53.753       42.439       25.479       23.125       14.815      649.177      534.745      219.483        0.407        0.070       70.267        6.856        0.010      338.486       11.169      859.570
05/23/2013  21:50:00       23.327       39.745       41.640       21.775       16.812       14.915      474.132      282.628      222.445        0.242        0.049       46.085        7.825        0.029      338.564       11.302      859.595
05/23/2013  21:51:00       43.459       27.167       23.714       25.838       11.407        9.418      667.583      130.122       88.695        0.204        0.044       51.251       11.041        0.046      338.591       11.348      859.623
05/23/2013  21:52:00       65.749       40.427       20.016       19.332       13.079       12.230      373.716      171.071      149.579        0.353        0.035       77.184       12.260        0.025      338.705       11.538      859.662
05/23/2013  21:53:00       63.286       30.965       12.948       17.625       12.868       11.175      310.623      165.577      124.870        0.287        0.030       70.456        9.787        0.019      338.558       11.290      859.678
05/23/2013  21:54:00       50.699       20.893        4.172       16.603       12.350       10.867      275.668      152.534      118.082        0.179        0.027       54.835        4.868        0.008      338.533       11.249      859.694
05/23/2013  21:55:00       61.346       35.741       14.488       12.089       14.301       14.308      146.135      204.513      204.731        0.290        0.028       70.998        8.561        0.015      338.455       11.118      859.710
05/23/2013  21:56:00       49.069       23.866        7.937       16.103       10.125       13.254      259.295      102.515      175.656        0.179        0.027       54.565        6.656        0.015      338.414       11.050      859.705
05/23/2013  21:57:00       10.273        7.751       -2.842       11.000        8.364        6.924      120.990       69.951       47.937        0.021        0.012       12.869        6.186        0.231      338.375       10.982      859.709
05/23/2013  21:58:00      -26.533       46.370       -4.289       20.105       18.134       16.049      404.220      328.834      257.570        0.193        0.050       53.424       14.067        0.069      338.450       11.111      859.711
05/23/2013  21:59:00        7.353       71.753       -6.414       15.055       27.952       14.306      226.642      781.314      204.661        0.323        0.061       72.129       15.248        0.045      338.661       11.465      859.694
05/23/2013  22:00:00      -34.530       71.370      -12.748       25.972       42.311       15.744      674.544     1790.260      247.878        0.458        0.136       79.284       18.090        0.052      338.726       11.573      859.678
05/23/2013  22:01:00      -50.654       14.911      -10.139       23.188       18.826       12.264      537.674      354.419      150.410        0.197        0.052       52.804       13.104        0.062      338.526       11.237      859.671
05/23/2013  22:02:00      -49.288       30.848       -7.447       26.280       16.094       11.257      690.627      259.029      126.716        0.226        0.054       58.145        7.157        0.015      338.816       11.726      859.679
05/23/2013  22:03:00      -19.343       37.373       -5.186       17.568       13.441       10.011      308.620      180.665      100.230        0.119        0.029       42.082        9.161        0.047      338.769       11.646      859.676
05/23/2013  22:04:00      -44.726        2.214       -7.758       10.044       14.263        6.888      100.880      203.430       47.451        0.121        0.018       44.780        3.284        0.005      338.664       11.469      859.677
05/23/2013  22:05:00      -33.013       -5.329       -6.858       14.942       18.401       13.532      223.260      338.602      183.120        0.095        0.037       33.441       10.484        0.098      338.503       11.198      859.685
05/23/2013  22:06:00       -2.749      -17.718        6.283       19.289       19.201       13.131      372.052      368.664      172.418        0.064        0.046       17.930        9.510        0.281      338.552       11.280      859.707
05/23/2013  22:07:00      -49.067       -2.659       -3.894       33.193       14.779       13.481     1101.799      218.413      181.724        0.197        0.075       49.139       15.216        0.096      338.637       11.425      859.721
05/23/2013  22:08:00      -81.203      -12.894       -7.518       23.250       12.218        9.744      540.577      149.277       94.952        0.380        0.039       82.220        8.301        0.010      338.624       11.402      859.731
05/23/2013  22:09:00      -78.385       26.128      -12.081       25.036       28.864       10.366      626.784      833.117      107.459        0.427        0.078       82.625        9.302        0.013      338.563       11.298      859.750
05/23/2013  22:10:00      -72.731       10.183       -8.153       19.174       23.880        9.275      367.629      570.262       86.019        0.324        0.051       73.440        6.277        0.007      338.653       11.452      859.773
05/23/2013  22:11:00      -74.303      -16.168      -10.128       12.793       15.065        9.583      163.671      226.944       91.827        0.318        0.024       76.042        8.464        0.012      338.606       11.373      859.791
05/23/2013  22:12:00      -47.329      -36.061        0.205       30.025       19.459       15.443      901.476      378.660      238.495        0.253        0.076       59.501       12.197        0.042      338.557       11.290      859.803
05/23/2013  22:13:00      -88.850      -46.739        3.537       36.610       24.395       19.943     1340.316      595.132      397.705        0.621        0.117      100.394       23.365        0.054      338.581       11.329      859.811
05/23/2013  22:14:00      -76.815      -16.159       -5.645       44.262       21.221       15.290     1959.102      450.315      233.799        0.442        0.132       78.497       21.663        0.076      338.623       11.401      859.830
05/23/2013  22:15:00      -69.212      -33.907       -0.575       74.235       27.899       29.828     5510.806      778.328      889.734        0.656        0.359       77.071       36.140        0.220      338.837       11.758      859.840
05/23/2013  22:16:00     -103.822       61.617      -13.848       44.255       65.395       25.806     1958.467     4276.556      665.973        1.083        0.345      120.730       35.245        0.085      338.802       11.701      859.848
05/23/2013  22:17:00      -74.970       91.393       -9.713       63.970       67.798       39.423     4092.107     4596.635     1554.160        1.215        0.512      118.208       44.096        0.139      338.905       11.872      859.840
05/23/2013  22:18:00      -21.645       48.827       -3.078       27.088       24.030       20.565      733.781      577.453      422.932        0.230        0.087       53.410       13.940        0.068      338.526       11.237      859.861
05/23/2013  22:19:00      -96.897       -7.561       -4.234       46.773       39.319       22.338     2187.744     1545.994      498.972        0.685        0.212       97.191       13.602        0.020      338.417       11.055      859.877
05/23/2013  22:20:00     -135.261      -36.855       -7.035       25.686       17.766       15.357      659.776      315.622      235.833        1.046        0.061      140.192       14.465        0.011      338.355       10.949      859.887
05/23/2013  22:21:00      -91.119      -31.346       -5.755       35.716       30.048       15.573     1275.648      902.907      242.529        0.587        0.121       96.360       10.521        0.012      338.415       11.052      859.890
05/23/2013  22:22:00      -81.347       -8.069       -2.425       38.534       48.688       30.151     1484.901     2370.526      909.113        0.573        0.238       81.747       20.424        0.062      338.424       11.066      859.901
05/23/2013  22:23:00     -120.629      -28.037       -8.222       42.292       29.961       19.770     1788.644      897.636      390.861        0.924        0.154      123.844       18.074        0.021      338.378       10.990      859.914
05/23/2013  22:24:00     -114.175      -32.129      -10.204       32.577       29.600       17.761     1061.281      876.170      315.443        0.821        0.113      118.610       15.177        0.016      338.344       10.933      859.925
05/23/2013  22:25:00     -123.335      -49.829      -13.030       29.057       48.177       25.667      844.298     2321.064      658.771        1.084        0.191      133.020       15.558        0.014      338.296       10.850      859.924
05/23/2013  22:26:00     -189.508      -60.467      -18.831       45.718       53.250       24.298     2090.141     2835.529      590.404        2.272        0.276      198.921       18.870        0.009      338.095       10.512      859.929
05/23/2013  22:27:00     -217.683      -14.014      -34.714       46.908       48.388       32.834     2200.325     2341.430     1078.069        2.720        0.281      218.134       29.877        0.019      337.950       10.268      859.929
05/23/2013  22:28:00     -163.246      -43.807       -3.995       72.374       41.398       30.727     5238.017     1713.766      944.175        1.824        0.395      169.021       30.774        0.033      337.845       10.094      859.945
05/23/2013  22:29:00     -121.207      -33.593        3.571       65.864       46.477       34.682     4338.069     2160.124     1202.856        1.177        0.385      125.776       31.704        0.064      337.725        9.892      859.953
05/23/2013  22:30:00     -116.377      -10.879      -14.912       44.891       45.766       27.272     2015.173     2094.568      743.744        0.937        0.243      116.884       14.922        0.016      337.767        9.964      859.952
05/23/2013  22:31:00     -105.107      -12.298       -5.501       55.998       36.802       30.303     3135.814     1354.403      918.296        0.832        0.270      105.824       26.967        0.065      337.708        9.865      859.951
05/23/2013  22:32:00      -99.127       17.044      -17.444       41.433       31.456       22.379     1716.655      989.497      500.822        0.681        0.160      100.581       20.218        0.040      337.802       10.022      859.953
05/23/2013  22:33:00      -96.960       27.258      -16.935       68.468       47.884       37.034     4687.800     2292.862     1371.502        0.939        0.418      100.719       41.646        0.171      337.731        9.903      859.966
05/23/2013  22:34:00     -145.327        3.895      -27.893       54.768       36.532       25.937     2999.511     1334.615      672.747        1.346        0.250      145.380       20.436        0.020      337.607        9.696      859.974
05/23/2013  22:35:00      -93.199       38.875       -6.455       29.325       33.968       26.627      859.983     1153.793      709.003        0.648        0.136      100.982       18.212        0.033      337.618        9.715      859.969
05/23/2013  22:36:00      -98.131       -0.859      -13.432       34.025       34.720       21.826     1157.687     1205.479      476.359        0.632        0.142       98.135       17.145        0.031      337.651        9.768      859.968
05/23/2013  22:37:00      -85.451       59.703      -23.273       44.283       73.663       25.480     1960.987     5426.269      649.234        0.972        0.402      104.241       28.980        0.077      337.735        9.911      859.973
05/23/2013  22:38:00      -98.990       21.472      -20.758       32.830       60.738       22.024     1077.809     3689.143      485.066        0.797        0.263      101.292       18.908        0.035      337.746        9.927      859.971
05/23/2013  22:39:00      -43.294       54.937       -9.815       43.620       55.167       32.880     1902.684     3043.361     1081.065        0.551        0.301       69.946       20.881        0.089      337.757        9.947      859.992
05/23/2013  22:40:00     -119.770      -11.298      -18.478       37.946       62.927       22.582     1439.919     3959.751      509.937        1.036        0.295      120.301       12.474        0.011      337.686        9.828      860.006
05/23/2013  22:41:00     -180.336      -69.629       -8.310       48.099       38.375       29.307     2313.479     1472.646      858.885        2.104        0.232      193.311       27.808        0.021      337.425        9.387      860.018
05/23/2013  22:42:00     -139.394      -46.589      -18.304       49.310       34.736       25.975     2431.494     1206.608      674.694        1.312        0.216      146.974       23.517        0.026      337.434        9.403      860.050
05/23/2013  22:43:00     -123.567      -36.980      -12.008       35.093       33.615       22.445     1231.515     1129.984      503.760        0.982        0.143      128.982       19.335        0.022      337.448        9.429      860.063
05/23/2013  22:44:00      -78.646      -48.405      -15.586       38.220       25.701       14.124     1460.750      660.528      199.484        0.555        0.116       92.348       12.371        0.018      337.501        9.517      860.065
05/23/2013  22:45:00      -31.033      -39.917      -19.726       30.640       25.874       21.335      938.803      669.452      455.171        0.250        0.103       50.561       16.149        0.102      337.717        9.879      860.075
05/23/2013  22:46:00      -37.186      -41.793       -7.350       43.537       22.982       17.191     1895.488      528.151      295.540        0.295        0.136       55.942       14.781        0.070      337.580        9.649      860.085
05/23/2013  22:47:00      -84.825      -34.437       -3.755       25.494       26.245       14.040      649.947      688.784      197.134        0.497        0.077       91.548        9.890        0.012      337.543        9.587      860.094
05/23/2013  22:48:00      -48.092      -25.839       -1.284       42.297       23.013       13.799     1789.020      529.590      190.405        0.275        0.125       54.595       17.226        0.100      337.606        9.694      860.106
05/23/2013  22:49:00      -32.973      -27.065        3.757       30.634       24.170       17.480      938.445      584.183      305.557        0.183        0.091       42.658       19.802        0.215      337.645        9.759      860.104
05/23/2013  22:50:00       -8.868      -30.816        4.297       29.172       17.655       12.710      851.001      311.693      161.550        0.119        0.066       32.067       14.826        0.214      337.813       10.041      860.112
05/23/2013  22:51:00      -49.665      -24.911        1.859       25.754       21.962       13.559      663.281      482.329      183.852        0.221        0.066       55.562       13.616        0.060      337.854       10.111      860.111
05/23/2013  22:52:00      -57.340      -42.845       -4.842       30.189       14.961       15.473      911.392      223.828      239.401        0.326        0.069       71.579       17.971        0.063      337.829       10.067      860.111
05/23/2013  22:53:00      -49.652      -39.660        1.489       40.523       16.607       17.058     1642.145      275.783      290.990        0.312        0.110       63.547       16.489        0.067      337.854       10.110      860.105
05/23/2013  22:54:00      -90.557      -47.770       -7.427       20.458       21.505       15.293      418.531      462.475      233.869        0.583        0.056      102.384       12.373        0.015      337.957       10.281      860.098
05/23/2013  22:55:00      -84.135      -49.319       -9.840       29.893       14.068       10.854      893.607      197.909      117.801        0.541        0.060       97.525       13.692        0.020      337.858       10.116      860.100
05/23/2013  22:56:00      -62.754      -41.640       -1.239       37.098       20.727       20.079     1376.232      429.598      403.159        0.394        0.110       75.312       23.243        0.095      337.802       10.022      860.113
05/23/2013  22:57:00      -45.568      -43.942        3.109       32.676       28.772       18.726     1067.745      827.830      350.648        0.313        0.112       63.304       18.412        0.085      337.792       10.006      860.115
05/23/2013  22:58:00      -64.911      -40.540       -6.196       17.730       17.338       13.004      314.338      300.623      169.113        0.334        0.039       76.531        6.632        0.008      337.849       10.099      860.121
05/23/2013  22:59:00     -101.970      -26.716       -8.141       18.056       12.532       13.687      326.036      157.053      187.345        0.592        0.034      105.412       10.826        0.011      337.887       10.164      860.123
05/23/2013  23:00:00     -104.159      -10.779      -12.117       23.681       13.402       11.695      560.802      179.610      136.776        0.599        0.044      104.715       10.927        0.011      338.033       10.410      860.117
05/23/2013  23:01:00      -49.377       -2.331       -7.223       15.346        8.966        5.386      235.500       80.391       29.013        0.142        0.017       49.432        4.029        0.007      338.060       10.455      860.118
05/23/2013  23:02:00       -2.153      -26.458        0.191       17.451       17.442        9.392      304.532      304.213       88.217        0.070        0.035       26.546        3.929        0.022      338.047       10.434      860.109
05/23/2013  23:03:00      -13.784      -25.732       -0.378       25.439       11.736       10.711      647.136      137.736      114.727        0.088        0.045       29.191        6.984        0.057      337.972       10.306      860.100
05/23/2013  23:04:00     -118.245      -39.102        4.202       28.048       22.739       12.663      786.718      517.078      160.360        0.850        0.073      124.543        7.699        0.004      338.054       10.446      860.116
05/23/2013  23:05:00      -65.731      -66.852       -4.548       44.247       39.410       19.846     1957.791     1553.153      393.845        0.636        0.195       93.754       19.069        0.041      337.909       10.202      860.148
05/23/2013  23:06:00      -39.560      -72.216        6.171       31.932       30.516       19.800     1019.684      931.225      392.057        0.458        0.117       82.342       15.476        0.035      338.082       10.493      860.136
05/23/2013  23:07:00      -99.367      -79.441       -2.445       61.525       38.415       24.581     3785.341     1475.724      604.226        1.103        0.293      127.219       14.978        0.014      338.018       10.385      860.135
05/23/2013  23:08:00      -36.906     -117.801        1.175       52.464       34.485       29.361     2752.497     1189.184      862.040        1.002        0.240      123.447       21.914        0.032      338.048       10.436      860.141
05/23/2013  23:09:00       18.573      -33.869       20.312       43.801       73.385       35.449     1918.497     5385.293     1256.615        0.523        0.428       38.627       38.501        0.993      338.027       10.400      860.101
05/23/2013  23:10:00       55.040      -69.492       -8.413       49.491       51.795       39.661     2449.313     2682.726     1572.963        0.732        0.335       88.649       32.378        0.133      338.132       10.576      860.084
05/23/2013  23:11:00       36.201      -76.474       -6.682       45.046       38.500       29.404     2029.185     1482.217      864.567        0.579        0.219       84.610       29.934        0.125      338.140       10.591      860.085
05/23/2013  23:12:00      -18.396      -63.734       -4.106       43.126       33.108       25.306     1859.884     1096.155      640.390        0.401        0.180       66.336       15.718        0.056      338.198       10.687      860.096
05/23/2013  23:13:00      -56.084      -51.478      -10.304       43.577       28.310       22.026     1898.934      801.451      485.130        0.454        0.159       76.127       23.981        0.099      338.137       10.584      860.100
05/23/2013  23:14:00      -30.319      -36.450       10.606       46.619       28.036       17.921     2173.342      786.012      321.150        0.282        0.164       47.412       22.270        0.221      337.989       10.338      860.097
05/23/2013  23:15:00      -42.886      -51.869        0.290       49.667       37.181       15.267     2466.818     1382.408      233.067        0.431        0.204       67.302       17.587        0.068      338.116       10.550      860.092
05/23/2013  23:16:00      -79.332      -52.301       -0.371       47.501       33.858       20.343     2256.374     1146.365      413.829        0.642        0.191       95.021       20.500        0.047      337.950       10.272      860.093
05/23/2013  23:17:00      -54.644      -56.565        5.983       39.334       35.289       21.807     1547.148     1245.303      475.525        0.474        0.163       78.648       23.504        0.089      337.947       10.266      860.104
05/23/2013  23:18:00      -56.931      -63.582      -13.413       34.882       23.517       17.787     1216.722      553.026      316.362        0.477        0.104       85.345        6.488        0.006      338.065       10.463      860.099
05/23/2013  23:19:00      -20.384     -130.930        4.914       33.904       52.098       22.259     1149.451     2714.253      495.475        1.097        0.218      132.507       16.025        0.015      338.195       10.682      860.097
05/23/2013  23:20:00      -34.345      -80.589        5.211       34.013       41.354       20.067     1156.862     1710.174      402.695        0.548        0.163       87.602       19.643        0.050      338.160       10.622      860.097
05/23/2013  23:21:00      -26.141      -62.896        5.678       27.484       42.596       21.192      755.390     1814.380      449.098        0.384        0.151       68.112       21.970        0.104      338.132       10.576      860.099
05/23/2013  23:22:00       -8.560      -25.007        1.918       26.249       24.422       21.652      689.023      596.423      468.829        0.123        0.088       26.432       15.753        0.355      338.059       10.452      860.100
05/23/2013  23:23:00      -26.234      -37.579       10.140       49.673       21.476       18.166     2467.399      461.225      329.998        0.273        0.163       45.831       18.682        0.166      338.039       10.420      860.107
05/23/2013  23:24:00      -64.799      -46.146        4.019       30.608       41.894       18.696      936.859     1755.084      349.535        0.469        0.152       79.551       15.187        0.036      338.089       10.506      860.110
05/23/2013  23:25:00     -125.803      -48.353       -8.402       53.533       36.081       20.922     2865.832     1301.843      437.749        1.142        0.230      134.775       13.247        0.010      338.035       10.413      860.109
05/23/2013  23:26:00      -83.197      -95.604        4.293       56.182       32.414       33.718     3156.376     1050.679     1136.921        1.071        0.267      126.735       30.249        0.057      338.079       10.488      860.120
05/23/2013  23:27:00      -31.564      -83.688        7.969       39.111       35.258       22.978     1529.707     1243.102      528.001        0.568        0.165       89.442       18.105        0.041      338.283       10.830      860.108
05/23/2013  23:28:00      -74.578      -45.058       10.196       54.589       60.392       31.796     2980.007     3647.145     1010.960        0.767        0.382       87.133       36.864        0.179      338.115       10.548      860.097
05/23/2013  23:29:00      -80.928      -34.693       -1.220       62.933       39.242       23.788     3960.526     1539.918      565.869        0.691        0.303       88.051       20.483        0.054      338.159       10.622      860.091
05/23/2013  23:30:00      -91.001      -23.216        2.552       31.789       47.525       23.143     1010.524     2258.661      535.604        0.632        0.190       93.916       12.661        0.018      338.048       10.434      860.088
05/23/2013  23:31:00      -82.327       -0.789        5.985       36.057       46.030       21.381     1300.123     2118.787      457.140        0.534        0.194       82.331       17.300        0.044      337.923       10.225      860.076
05/23/2013  23:32:00      -66.568        1.890       -6.360       14.679       14.242       14.181      215.465      202.842      201.096        0.255        0.031       66.595        3.721        0.003      337.925       10.228      860.079
05/23/2013  23:33:00      -66.916      -26.851      -17.677       79.223       55.821       30.252     6276.215     3116.005      915.203        0.791        0.515       72.102       33.984        0.222      338.014       10.379      860.071
05/23/2013  23:34:00       31.864      -71.411       -7.745       28.942       27.399       17.630      837.632      750.722      310.818        0.404        0.095       78.197       11.187        0.020      337.993       10.343      860.063
05/23/2013  23:35:00       -0.512      -31.745       11.647       19.349       36.793       22.962      374.402     1353.754      527.261        0.170        0.113       31.749       22.268        0.492      337.845       10.094      860.071
05/23/2013  23:36:00        4.742      -26.308       -8.729       12.137       28.456       15.212      147.306      809.744      231.399        0.099        0.059       26.732       16.948        0.402      337.865       10.128      860.069
05/23/2013  23:37:00      -13.215      -19.362       -0.850       13.607       19.173       13.165      185.147      367.606      173.330        0.064        0.036       23.442       10.612        0.205      337.886       10.164      860.050
05/23/2013  23:38:00       -0.519        8.583        2.174        8.913       16.647        7.320       79.434      277.106       53.581        0.024        0.021        8.598        4.624        0.289      337.924       10.225      860.034
05/23/2013  23:39:00       -9.583        9.522        3.734        7.919        9.458        6.919       62.714       89.456       47.874        0.020        0.010       13.509        5.973        0.195      337.755        9.945      860.020
05/23/2013  23:40:00       -3.510        9.095        2.431        7.992       34.501       15.052       63.869     1190.322      226.553        0.079        0.074        9.749        7.889        0.655      337.809       10.034      860.017
05/23/2013  23:41:00      -21.510      -66.440       -3.797       19.153       18.622       15.554      366.846      346.770      241.919        0.292        0.048       69.835       10.717        0.024      338.036       10.416      860.016
05/23/2013  23:42:00      -14.493      -35.059        0.180       14.051       22.209       13.177      197.443      493.220      173.635        0.115        0.043       37.937        6.542        0.030      338.074       10.478      860.006
05/23/2013  23:43:00       -5.704      -19.696        0.000       18.858       35.043       19.399      355.641     1227.990      376.320        0.119        0.098       20.505       16.559        0.652      338.114       10.545      859.999
05/23/2013  23:44:00       -8.970       -1.856       10.811       19.923       16.748       13.402      396.911      280.486      179.617        0.053        0.043        9.160       15.401        2.827      338.028       10.400      859.987
05/23/2013  23:45:00       13.488       24.922       35.252       18.237       15.483       10.326      332.600      239.734      106.625        0.136        0.034       28.338       10.838        0.146      337.828       10.065      859.989
05/23/2013  23:46:00       -7.504       -3.993       10.576       15.371       26.637       19.781      236.278      709.544      391.275        0.076        0.067        8.500       19.633        5.335      337.808       10.031      859.991
05/23/2013  23:47:00       -4.597       -0.344        0.634        5.139        6.727        6.256       26.404       45.248       39.136        0.007        0.006        4.610        4.979        1.167      337.771        9.971      859.995
05/23/2013  23:48:00      -12.684        8.009        0.668       14.954       12.215        6.881      223.610      149.207       47.352        0.032        0.021       15.001        6.819        0.207      337.905       10.195      859.998
05/23/2013  23:49:00       10.124        3.983        7.298        9.143        6.164        7.276       83.602       37.995       52.942        0.017        0.009       10.879        7.379        0.460      337.868       10.134      859.991
05/23/2013  23:50:00       27.379       16.301        9.142       15.178       15.404        8.502      230.372      237.273       72.290        0.082        0.027       31.864       11.312        0.126      337.754        9.941      859.997
05/23/2013  23:51:00       56.137       34.954       20.220       22.110       15.165       15.412      488.835      229.972      237.521        0.287        0.048       66.129        6.867        0.011      337.636        9.745      859.983
05/23/2013  23:52:00       73.154       26.944       30.953       32.028       28.072       22.309     1025.796      788.052      497.708        0.467        0.116       77.959       19.832        0.065      337.565        9.625      859.957
05/23/2013  23:53:00        1.352       10.031       33.455       15.864       22.003       17.895      251.653      484.113      320.239        0.114        0.053       10.122       17.018        2.827      337.515        9.539      859.946
05/23/2013  23:54:00       14.432      -14.578       11.613       15.659       15.773       13.388      245.191      248.786      179.228        0.061        0.034       20.513       12.555        0.375      337.726        9.895      859.931
05/23/2013  23:55:00       56.399       26.724       15.655       20.597       15.930       13.134      424.216      253.767      172.513        0.250        0.043       62.410        6.314        0.010      337.715        9.877      859.916
05/23/2013  23:56:00       51.681       29.081       17.833       18.943       15.531       19.411      358.832      241.202      376.795        0.241        0.049       59.302       14.404        0.059      337.707        9.862      859.902
05/23/2013  23:57:00        1.199       -1.019       17.095       16.554       14.812        7.338      274.020      219.403       53.851        0.042        0.027        1.573        8.145       26.801      337.686        9.827      859.886
05/23/2013  23:58:00      -25.637      -17.184        1.520       20.613       16.202        9.791      424.884      262.515       95.865        0.087        0.039       30.863       10.877        0.124      337.725        9.892      859.878
05/23/2013  23:59:00       -0.070      -21.273        6.736        6.437       13.250       10.609       41.435      175.566      112.556        0.041        0.016       21.273        3.596        0.029      337.729        9.899      859.871
